<?xml version="1.0" encoding="UTF-8" standalone="no" ?>
<gpx xmlns="http://www.topografix.com/GPX/1/1" xmlns:xsi="http://www.w3.org/2001/XMLSchema-instance" xsi:schemaLocation="http://www.topografix.com/GPX/1/1 http://www.topografix.com/GPX/1/1/gpx.xsd" version="1.1" creator="VisuGPX - https://www.visugpx.com">
  <metadata>
    <name>Sentier Tom Morel</name>
    <desc><![CDATA[Rando Glières, sentier Tom Morel]]></desc>
  </metadata>
  <trk>
    <name><![CDATA[2018-06-15 Sentier Tom Morel]]></name>
    <desc><![CDATA[2018-06-15 Sentier Tom Morel]]></desc>
    <trkseg>
      <trkpt lat="45.98416" lon="6.3868">
        <ele>848.349976</ele>
        <time>2018-06-15T06:32:19.445Z</time>
      </trkpt>
      <trkpt lat="45.984" lon="6.38672">
        <ele>808.879944</ele>
        <time>2018-06-15T06:32:29.365Z</time>
      </trkpt>
      <trkpt lat="45.98379" lon="6.3866">
        <ele>783.52002</ele>
        <time>2018-06-15T06:32:38.387Z</time>
      </trkpt>
      <trkpt lat="45.98372" lon="6.38663">
        <ele>776.589966</ele>
        <time>2018-06-15T06:32:47.473Z</time>
      </trkpt>
      <trkpt lat="45.98362" lon="6.3866">
        <ele>773.470032</ele>
        <time>2018-06-15T06:32:56.850Z</time>
      </trkpt>
      <trkpt lat="45.98351" lon="6.38664">
        <ele>774.73999</ele>
        <time>2018-06-15T06:33:06.422Z</time>
      </trkpt>
      <trkpt lat="45.98336" lon="6.38667">
        <ele>776.320007</ele>
        <time>2018-06-15T06:33:15.543Z</time>
      </trkpt>
      <trkpt lat="45.98331" lon="6.3866">
        <ele>774.360046</ele>
        <time>2018-06-15T06:33:25.467Z</time>
      </trkpt>
      <trkpt lat="45.98331" lon="6.38657">
        <ele>767.25</ele>
        <time>2018-06-15T06:33:34.487Z</time>
      </trkpt>
      <trkpt lat="45.9833" lon="6.38658">
        <ele>767.329956</ele>
        <time>2018-06-15T06:33:44.453Z</time>
      </trkpt>
      <trkpt lat="45.98326" lon="6.38662">
        <ele>767.01001</ele>
        <time>2018-06-15T06:33:53.641Z</time>
      </trkpt>
      <trkpt lat="45.98325" lon="6.38653">
        <ele>766.799988</ele>
        <time>2018-06-15T06:34:02.843Z</time>
      </trkpt>
      <trkpt lat="45.98327" lon="6.38651">
        <ele>767.550049</ele>
        <time>2018-06-15T06:34:14.816Z</time>
      </trkpt>
      <trkpt lat="45.98329" lon="6.38649">
        <ele>768.429993</ele>
        <time>2018-06-15T06:34:23.831Z</time>
      </trkpt>
      <trkpt lat="45.9833" lon="6.38651">
        <ele>769.700012</ele>
        <time>2018-06-15T06:34:33.827Z</time>
      </trkpt>
      <trkpt lat="45.98337" lon="6.38657">
        <ele>771.710022</ele>
        <time>2018-06-15T06:34:42.842Z</time>
      </trkpt>
      <trkpt lat="45.98335" lon="6.38661">
        <ele>770.030029</ele>
        <time>2018-06-15T06:34:51.860Z</time>
      </trkpt>
      <trkpt lat="45.98328" lon="6.38656">
        <ele>768.5</ele>
        <time>2018-06-15T06:35:01.785Z</time>
      </trkpt>
      <trkpt lat="45.98329" lon="6.38649">
        <ele>771.230042</ele>
        <time>2018-06-15T06:35:10.891Z</time>
      </trkpt>
      <trkpt lat="45.98325" lon="6.38651">
        <ele>783.650024</ele>
        <time>2018-06-15T06:40:09.790Z</time>
      </trkpt>
      <trkpt lat="45.9832" lon="6.3865">
        <ele>786.349976</ele>
        <time>2018-06-15T06:40:18.994Z</time>
      </trkpt>
      <trkpt lat="45.98312" lon="6.38641">
        <ele>785.429993</ele>
        <time>2018-06-15T06:40:28.988Z</time>
      </trkpt>
      <trkpt lat="45.98307" lon="6.38628">
        <ele>785.630066</ele>
        <time>2018-06-15T06:40:38.913Z</time>
      </trkpt>
      <trkpt lat="45.9831" lon="6.38619">
        <ele>784.219971</ele>
        <time>2018-06-15T06:40:48.762Z</time>
      </trkpt>
      <trkpt lat="45.98316" lon="6.38623">
        <ele>783.299988</ele>
        <time>2018-06-15T06:41:01.797Z</time>
      </trkpt>
      <trkpt lat="45.98318" lon="6.38624">
        <ele>782.599976</ele>
        <time>2018-06-15T06:41:11.745Z</time>
      </trkpt>
      <trkpt lat="45.98321" lon="6.3862">
        <ele>783.5</ele>
        <time>2018-06-15T06:41:29.996Z</time>
      </trkpt>
      <trkpt lat="45.98327" lon="6.38613">
        <ele>783.5</ele>
        <time>2018-06-15T06:41:39.891Z</time>
      </trkpt>
      <trkpt lat="45.98331" lon="6.38608">
        <ele>782.799988</ele>
        <time>2018-06-15T06:41:48.918Z</time>
      </trkpt>
      <trkpt lat="45.98334" lon="6.38606">
        <ele>781.900024</ele>
        <time>2018-06-15T06:41:58.834Z</time>
      </trkpt>
      <trkpt lat="45.98338" lon="6.38604">
        <ele>781.880005</ele>
        <time>2018-06-15T06:42:07.911Z</time>
      </trkpt>
      <trkpt lat="45.9834" lon="6.38604">
        <ele>782.480042</ele>
        <time>2018-06-15T06:42:17.785Z</time>
      </trkpt>
      <trkpt lat="45.98343" lon="6.38603">
        <ele>781.419983</ele>
        <time>2018-06-15T06:43:05.906Z</time>
      </trkpt>
      <trkpt lat="45.98345" lon="6.38601">
        <ele>781.48999</ele>
        <time>2018-06-15T06:43:15.867Z</time>
      </trkpt>
      <trkpt lat="45.98351" lon="6.38592">
        <ele>782.359985</ele>
        <time>2018-06-15T06:43:24.892Z</time>
      </trkpt>
      <trkpt lat="45.98358" lon="6.38586">
        <ele>784.170044</ele>
        <time>2018-06-15T06:43:34.790Z</time>
      </trkpt>
      <trkpt lat="45.98362" lon="6.38578">
        <ele>784.919983</ele>
        <time>2018-06-15T06:43:43.892Z</time>
      </trkpt>
      <trkpt lat="45.98364" lon="6.38573">
        <ele>784.800049</ele>
        <time>2018-06-15T06:43:53.764Z</time>
      </trkpt>
      <trkpt lat="45.98363" lon="6.38581">
        <ele>784.599976</ele>
        <time>2018-06-15T06:44:02.879Z</time>
      </trkpt>
      <trkpt lat="45.9836" lon="6.38582">
        <ele>784.25</ele>
        <time>2018-06-15T06:44:11.910Z</time>
      </trkpt>
      <trkpt lat="45.98357" lon="6.3858">
        <ele>785.570007</ele>
        <time>2018-06-15T06:44:21.101Z</time>
      </trkpt>
      <trkpt lat="45.98353" lon="6.3857">
        <ele>787.77002</ele>
        <time>2018-06-15T06:44:30.730Z</time>
      </trkpt>
      <trkpt lat="45.98351" lon="6.38567">
        <ele>789.310059</ele>
        <time>2018-06-15T06:44:39.865Z</time>
      </trkpt>
      <trkpt lat="45.98348" lon="6.38566">
        <ele>789</ele>
        <time>2018-06-15T06:44:52.888Z</time>
      </trkpt>
      <trkpt lat="45.9834" lon="6.3857">
        <ele>791.580017</ele>
        <time>2018-06-15T06:45:01.912Z</time>
      </trkpt>
      <trkpt lat="45.98337" lon="6.38568">
        <ele>793.97998</ele>
        <time>2018-06-15T06:45:11.727Z</time>
      </trkpt>
      <trkpt lat="45.98336" lon="6.38561">
        <ele>795.200012</ele>
        <time>2018-06-15T06:45:26.828Z</time>
      </trkpt>
      <trkpt lat="45.98328" lon="6.38564">
        <ele>797.029968</ele>
        <time>2018-06-15T06:45:35.996Z</time>
      </trkpt>
      <trkpt lat="45.98327" lon="6.38563">
        <ele>797.599976</ele>
        <time>2018-06-15T06:45:45.753Z</time>
      </trkpt>
      <trkpt lat="45.98325" lon="6.38555">
        <ele>800.300049</ele>
        <time>2018-06-15T06:48:19.951Z</time>
      </trkpt>
      <trkpt lat="45.98324" lon="6.38554">
        <ele>801.400024</ele>
        <time>2018-06-15T06:48:29.735Z</time>
      </trkpt>
      <trkpt lat="45.9833" lon="6.38543">
        <ele>788.350037</ele>
        <time>2018-06-15T06:50:04.810Z</time>
      </trkpt>
      <trkpt lat="45.9833" lon="6.38545">
        <ele>784.059998</ele>
        <time>2018-06-15T06:51:11.896Z</time>
      </trkpt>
      <trkpt lat="45.9833" lon="6.38546">
        <ele>785.370056</ele>
        <time>2018-06-15T06:51:22.809Z</time>
      </trkpt>
      <trkpt lat="45.98328" lon="6.38551">
        <ele>786.600037</ele>
        <time>2018-06-15T06:51:32.788Z</time>
      </trkpt>
      <trkpt lat="45.98326" lon="6.38546">
        <ele>792.829956</ele>
        <time>2018-06-15T06:52:52.958Z</time>
      </trkpt>
      <trkpt lat="45.98324" lon="6.38549">
        <ele>793.97998</ele>
        <time>2018-06-15T06:53:02.854Z</time>
      </trkpt>
      <trkpt lat="45.98321" lon="6.3855">
        <ele>792.400024</ele>
        <time>2018-06-15T06:53:12.879Z</time>
      </trkpt>
      <trkpt lat="45.9832" lon="6.38549">
        <ele>793.200012</ele>
        <time>2018-06-15T06:53:22.808Z</time>
      </trkpt>
      <trkpt lat="45.98319" lon="6.38542">
        <ele>794</ele>
        <time>2018-06-15T06:53:32.811Z</time>
      </trkpt>
      <trkpt lat="45.98314" lon="6.38532">
        <ele>796.75</ele>
        <time>2018-06-15T06:53:42.809Z</time>
      </trkpt>
      <trkpt lat="45.98311" lon="6.38529">
        <ele>797.709961</ele>
        <time>2018-06-15T06:53:52.033Z</time>
      </trkpt>
      <trkpt lat="45.98305" lon="6.38529">
        <ele>798.820007</ele>
        <time>2018-06-15T06:54:01.783Z</time>
      </trkpt>
      <trkpt lat="45.98306" lon="6.3852">
        <ele>800.940002</ele>
        <time>2018-06-15T06:54:10.917Z</time>
      </trkpt>
      <trkpt lat="45.98304" lon="6.38519">
        <ele>803.079956</ele>
        <time>2018-06-15T06:54:21.022Z</time>
      </trkpt>
      <trkpt lat="45.98301" lon="6.38516">
        <ele>804.950012</ele>
        <time>2018-06-15T06:54:30.924Z</time>
      </trkpt>
      <trkpt lat="45.98303" lon="6.38508">
        <ele>805.5</ele>
        <time>2018-06-15T06:54:40.747Z</time>
      </trkpt>
      <trkpt lat="45.98299" lon="6.38503">
        <ele>806.48999</ele>
        <time>2018-06-15T06:54:50.139Z</time>
      </trkpt>
      <trkpt lat="45.98293" lon="6.38498">
        <ele>807.75</ele>
        <time>2018-06-15T06:54:59.869Z</time>
      </trkpt>
      <trkpt lat="45.98288" lon="6.38491">
        <ele>808.820007</ele>
        <time>2018-06-15T06:55:09.899Z</time>
      </trkpt>
      <trkpt lat="45.9828" lon="6.38481">
        <ele>811.5</ele>
        <time>2018-06-15T06:55:19.767Z</time>
      </trkpt>
      <trkpt lat="45.98278" lon="6.38473">
        <ele>811.679993</ele>
        <time>2018-06-15T06:55:28.897Z</time>
      </trkpt>
      <trkpt lat="45.9827" lon="6.38467">
        <ele>814.039978</ele>
        <time>2018-06-15T06:55:38.787Z</time>
      </trkpt>
      <trkpt lat="45.98261" lon="6.38465">
        <ele>817.23999</ele>
        <time>2018-06-15T06:55:47.853Z</time>
      </trkpt>
      <trkpt lat="45.9825" lon="6.38466">
        <ele>819.909973</ele>
        <time>2018-06-15T06:55:57.833Z</time>
      </trkpt>
      <trkpt lat="45.98252" lon="6.38462">
        <ele>820.799988</ele>
        <time>2018-06-15T06:56:07.754Z</time>
      </trkpt>
      <trkpt lat="45.98251" lon="6.38456">
        <ele>823.970032</ele>
        <time>2018-06-15T06:56:16.905Z</time>
      </trkpt>
      <trkpt lat="45.98249" lon="6.38456">
        <ele>824.200012</ele>
        <time>2018-06-15T06:56:26.826Z</time>
      </trkpt>
      <trkpt lat="45.98248" lon="6.38458">
        <ele>825.300049</ele>
        <time>2018-06-15T06:56:36.738Z</time>
      </trkpt>
      <trkpt lat="45.98249" lon="6.3846">
        <ele>826.27002</ele>
        <time>2018-06-15T06:57:23.844Z</time>
      </trkpt>
      <trkpt lat="45.98248" lon="6.38458">
        <ele>826.900024</ele>
        <time>2018-06-15T06:57:33.793Z</time>
      </trkpt>
      <trkpt lat="45.98251" lon="6.38451">
        <ele>828.859985</ele>
        <time>2018-06-15T06:57:42.902Z</time>
      </trkpt>
      <trkpt lat="45.98256" lon="6.38445">
        <ele>829.380005</ele>
        <time>2018-06-15T06:57:51.926Z</time>
      </trkpt>
      <trkpt lat="45.98261" lon="6.38442">
        <ele>829.290039</ele>
        <time>2018-06-15T06:58:01.730Z</time>
      </trkpt>
      <trkpt lat="45.98266" lon="6.38443">
        <ele>828.850037</ele>
        <time>2018-06-15T06:58:24.806Z</time>
      </trkpt>
      <trkpt lat="45.98265" lon="6.38447">
        <ele>829.309998</ele>
        <time>2018-06-15T06:58:33.873Z</time>
      </trkpt>
      <trkpt lat="45.98265" lon="6.38434">
        <ele>829.649963</ele>
        <time>2018-06-15T06:58:43.808Z</time>
      </trkpt>
      <trkpt lat="45.9827" lon="6.38425">
        <ele>830.169983</ele>
        <time>2018-06-15T06:58:53.805Z</time>
      </trkpt>
      <trkpt lat="45.9827" lon="6.38433">
        <ele>830.690002</ele>
        <time>2018-06-15T06:59:02.827Z</time>
      </trkpt>
      <trkpt lat="45.98269" lon="6.38433">
        <ele>830.700012</ele>
        <time>2018-06-15T06:59:12.822Z</time>
      </trkpt>
      <trkpt lat="45.98263" lon="6.38427">
        <ele>833.659973</ele>
        <time>2018-06-15T06:59:22.773Z</time>
      </trkpt>
      <trkpt lat="45.98264" lon="6.38427">
        <ele>832.799988</ele>
        <time>2018-06-15T06:59:31.793Z</time>
      </trkpt>
      <trkpt lat="45.98268" lon="6.38423">
        <ele>833.990051</ele>
        <time>2018-06-15T06:59:40.807Z</time>
      </trkpt>
      <trkpt lat="45.98272" lon="6.38422">
        <ele>834.599976</ele>
        <time>2018-06-15T06:59:50.796Z</time>
      </trkpt>
      <trkpt lat="45.98274" lon="6.38421">
        <ele>836.25</ele>
        <time>2018-06-15T07:00:02.803Z</time>
      </trkpt>
      <trkpt lat="45.98273" lon="6.3842">
        <ele>837</ele>
        <time>2018-06-15T07:00:11.827Z</time>
      </trkpt>
      <trkpt lat="45.98269" lon="6.38421">
        <ele>838.480042</ele>
        <time>2018-06-15T07:00:20.958Z</time>
      </trkpt>
      <trkpt lat="45.98265" lon="6.3842">
        <ele>839.299988</ele>
        <time>2018-06-15T07:00:30.773Z</time>
      </trkpt>
      <trkpt lat="45.98258" lon="6.38423">
        <ele>841.339966</ele>
        <time>2018-06-15T07:00:39.805Z</time>
      </trkpt>
      <trkpt lat="45.98253" lon="6.38418">
        <ele>841.980042</ele>
        <time>2018-06-15T07:00:49.764Z</time>
      </trkpt>
      <trkpt lat="45.98249" lon="6.38414">
        <ele>842.880005</ele>
        <time>2018-06-15T07:00:58.802Z</time>
      </trkpt>
      <trkpt lat="45.98241" lon="6.38408">
        <ele>841.440002</ele>
        <time>2018-06-15T07:01:07.813Z</time>
      </trkpt>
      <trkpt lat="45.98241" lon="6.38399">
        <ele>840.299988</ele>
        <time>2018-06-15T07:01:17.951Z</time>
      </trkpt>
      <trkpt lat="45.98234" lon="6.38385">
        <ele>842.48999</ele>
        <time>2018-06-15T07:01:27.866Z</time>
      </trkpt>
      <trkpt lat="45.98235" lon="6.38379">
        <ele>842.609985</ele>
        <time>2018-06-15T07:01:36.875Z</time>
      </trkpt>
      <trkpt lat="45.98237" lon="6.38375">
        <ele>843.169983</ele>
        <time>2018-06-15T07:01:46.904Z</time>
      </trkpt>
      <trkpt lat="45.98239" lon="6.38373">
        <ele>843.490051</ele>
        <time>2018-06-15T07:01:56.024Z</time>
      </trkpt>
      <trkpt lat="45.98242" lon="6.38378">
        <ele>843.549988</ele>
        <time>2018-06-15T07:02:06.038Z</time>
      </trkpt>
      <trkpt lat="45.98243" lon="6.38369">
        <ele>839.299988</ele>
        <time>2018-06-15T07:02:47.806Z</time>
      </trkpt>
      <trkpt lat="45.9824" lon="6.38368">
        <ele>837.130005</ele>
        <time>2018-06-15T07:03:32.801Z</time>
      </trkpt>
      <trkpt lat="45.98239" lon="6.38368">
        <ele>837.700012</ele>
        <time>2018-06-15T07:03:42.759Z</time>
      </trkpt>
      <trkpt lat="45.98241" lon="6.38373">
        <ele>839.950012</ele>
        <time>2018-06-15T07:04:31.804Z</time>
      </trkpt>
      <trkpt lat="45.98244" lon="6.38372">
        <ele>840.380005</ele>
        <time>2018-06-15T07:04:58.885Z</time>
      </trkpt>
      <trkpt lat="45.98243" lon="6.38371">
        <ele>840.200012</ele>
        <time>2018-06-15T07:05:08.784Z</time>
      </trkpt>
      <trkpt lat="45.98241" lon="6.38375">
        <ele>838.679993</ele>
        <time>2018-06-15T07:05:28.828Z</time>
      </trkpt>
      <trkpt lat="45.98239" lon="6.38378">
        <ele>838.400024</ele>
        <time>2018-06-15T07:05:38.799Z</time>
      </trkpt>
      <trkpt lat="45.98239" lon="6.38372">
        <ele>838.25</ele>
        <time>2018-06-15T07:05:51.931Z</time>
      </trkpt>
      <trkpt lat="45.98237" lon="6.38371">
        <ele>837.300049</ele>
        <time>2018-06-15T07:06:01.758Z</time>
      </trkpt>
      <trkpt lat="45.98242" lon="6.38368">
        <ele>840.080017</ele>
        <time>2018-06-15T07:06:10.814Z</time>
      </trkpt>
      <trkpt lat="45.98244" lon="6.38371">
        <ele>842</ele>
        <time>2018-06-15T07:06:20.880Z</time>
      </trkpt>
      <trkpt lat="45.98248" lon="6.38375">
        <ele>842.27002</ele>
        <time>2018-06-15T07:06:30.849Z</time>
      </trkpt>
      <trkpt lat="45.98254" lon="6.38376">
        <ele>843.169983</ele>
        <time>2018-06-15T07:06:39.883Z</time>
      </trkpt>
      <trkpt lat="45.98261" lon="6.38375">
        <ele>844.200012</ele>
        <time>2018-06-15T07:06:49.813Z</time>
      </trkpt>
      <trkpt lat="45.98268" lon="6.38372">
        <ele>846.089966</ele>
        <time>2018-06-15T07:06:59.808Z</time>
      </trkpt>
      <trkpt lat="45.98272" lon="6.38372">
        <ele>848.719971</ele>
        <time>2018-06-15T07:07:21.854Z</time>
      </trkpt>
      <trkpt lat="45.98277" lon="6.38368">
        <ele>848.47998</ele>
        <time>2018-06-15T07:07:31.832Z</time>
      </trkpt>
      <trkpt lat="45.98279" lon="6.3837">
        <ele>849.109985</ele>
        <time>2018-06-15T07:07:41.879Z</time>
      </trkpt>
      <trkpt lat="45.98284" lon="6.38372">
        <ele>849.600037</ele>
        <time>2018-06-15T07:07:51.785Z</time>
      </trkpt>
      <trkpt lat="45.98289" lon="6.38368">
        <ele>850.5</ele>
        <time>2018-06-15T07:08:00.914Z</time>
      </trkpt>
      <trkpt lat="45.98294" lon="6.38367">
        <ele>852.130005</ele>
        <time>2018-06-15T07:08:10.813Z</time>
      </trkpt>
      <trkpt lat="45.98301" lon="6.38364">
        <ele>855.080017</ele>
        <time>2018-06-15T07:08:20.778Z</time>
      </trkpt>
      <trkpt lat="45.98303" lon="6.38365">
        <ele>855.899963</ele>
        <time>2018-06-15T07:08:30.713Z</time>
      </trkpt>
      <trkpt lat="45.98307" lon="6.38365">
        <ele>856.98999</ele>
        <time>2018-06-15T07:08:39.737Z</time>
      </trkpt>
      <trkpt lat="45.9831" lon="6.38366">
        <ele>858.710022</ele>
        <time>2018-06-15T07:08:48.765Z</time>
      </trkpt>
      <trkpt lat="45.98311" lon="6.38368">
        <ele>860.119995</ele>
        <time>2018-06-15T07:08:57.896Z</time>
      </trkpt>
      <trkpt lat="45.98316" lon="6.38375">
        <ele>860.909973</ele>
        <time>2018-06-15T07:09:07.923Z</time>
      </trkpt>
      <trkpt lat="45.98318" lon="6.38374">
        <ele>860.400024</ele>
        <time>2018-06-15T07:09:17.789Z</time>
      </trkpt>
      <trkpt lat="45.98324" lon="6.38375">
        <ele>862.880005</ele>
        <time>2018-06-15T07:09:26.811Z</time>
      </trkpt>
      <trkpt lat="45.98325" lon="6.38373">
        <ele>861.899963</ele>
        <time>2018-06-15T07:09:36.769Z</time>
      </trkpt>
      <trkpt lat="45.98327" lon="6.38377">
        <ele>862.949951</ele>
        <time>2018-06-15T07:09:45.898Z</time>
      </trkpt>
      <trkpt lat="45.9833" lon="6.38378">
        <ele>865.029968</ele>
        <time>2018-06-15T07:09:55.735Z</time>
      </trkpt>
      <trkpt lat="45.98333" lon="6.38381">
        <ele>867.47998</ele>
        <time>2018-06-15T07:10:17.863Z</time>
      </trkpt>
      <trkpt lat="45.98334" lon="6.38379">
        <ele>868.570007</ele>
        <time>2018-06-15T07:10:27.833Z</time>
      </trkpt>
      <trkpt lat="45.98338" lon="6.38379">
        <ele>869.960022</ele>
        <time>2018-06-15T07:10:37.879Z</time>
      </trkpt>
      <trkpt lat="45.98343" lon="6.38381">
        <ele>871.360046</ele>
        <time>2018-06-15T07:10:47.817Z</time>
      </trkpt>
      <trkpt lat="45.98345" lon="6.38382">
        <ele>872.660034</ele>
        <time>2018-06-15T07:10:56.959Z</time>
      </trkpt>
      <trkpt lat="45.98349" lon="6.38393">
        <ele>877.580017</ele>
        <time>2018-06-15T07:11:06.785Z</time>
      </trkpt>
      <trkpt lat="45.98348" lon="6.38391">
        <ele>877.899963</ele>
        <time>2018-06-15T07:11:16.795Z</time>
      </trkpt>
      <trkpt lat="45.98354" lon="6.38388">
        <ele>879.380005</ele>
        <time>2018-06-15T07:11:26.825Z</time>
      </trkpt>
      <trkpt lat="45.98357" lon="6.38388">
        <ele>881.390015</ele>
        <time>2018-06-15T07:11:36.743Z</time>
      </trkpt>
      <trkpt lat="45.9836" lon="6.38391">
        <ele>883.299988</ele>
        <time>2018-06-15T07:11:45.763Z</time>
      </trkpt>
      <trkpt lat="45.98364" lon="6.38395">
        <ele>884.269958</ele>
        <time>2018-06-15T07:11:59.770Z</time>
      </trkpt>
      <trkpt lat="45.98365" lon="6.38402">
        <ele>886.299988</ele>
        <time>2018-06-15T07:12:08.865Z</time>
      </trkpt>
      <trkpt lat="45.98362" lon="6.38406">
        <ele>888.099976</ele>
        <time>2018-06-15T07:12:18.745Z</time>
      </trkpt>
      <trkpt lat="45.98363" lon="6.38407">
        <ele>887.529968</ele>
        <time>2018-06-15T07:12:44.833Z</time>
      </trkpt>
      <trkpt lat="45.98362" lon="6.3841">
        <ele>888.299988</ele>
        <time>2018-06-15T07:12:54.826Z</time>
      </trkpt>
      <trkpt lat="45.98357" lon="6.38414">
        <ele>893.700012</ele>
        <time>2018-06-15T07:13:20.792Z</time>
      </trkpt>
      <trkpt lat="45.98359" lon="6.38412">
        <ele>894.700012</ele>
        <time>2018-06-15T07:13:30.699Z</time>
      </trkpt>
      <trkpt lat="45.98359" lon="6.38407">
        <ele>900.25</ele>
        <time>2018-06-15T07:18:40.845Z</time>
      </trkpt>
      <trkpt lat="45.98358" lon="6.38407">
        <ele>901.550049</ele>
        <time>2018-06-15T07:18:58.748Z</time>
      </trkpt>
      <trkpt lat="45.98356" lon="6.38403">
        <ele>901.149963</ele>
        <time>2018-06-15T07:19:07.844Z</time>
      </trkpt>
      <trkpt lat="45.98357" lon="6.38401">
        <ele>900.700012</ele>
        <time>2018-06-15T07:19:17.692Z</time>
      </trkpt>
      <trkpt lat="45.98356" lon="6.38387">
        <ele>902.050049</ele>
        <time>2018-06-15T07:19:49.761Z</time>
      </trkpt>
      <trkpt lat="45.98362" lon="6.38385">
        <ele>901.359985</ele>
        <time>2018-06-15T07:19:58.775Z</time>
      </trkpt>
      <trkpt lat="45.98368" lon="6.38383">
        <ele>901.049988</ele>
        <time>2018-06-15T07:20:08.922Z</time>
      </trkpt>
      <trkpt lat="45.98375" lon="6.38377">
        <ele>900.350037</ele>
        <time>2018-06-15T07:20:18.742Z</time>
      </trkpt>
      <trkpt lat="45.98377" lon="6.38377">
        <ele>901.900024</ele>
        <time>2018-06-15T07:20:30.747Z</time>
      </trkpt>
      <trkpt lat="45.9838" lon="6.38377">
        <ele>902.73999</ele>
        <time>2018-06-15T07:20:39.818Z</time>
      </trkpt>
      <trkpt lat="45.98382" lon="6.38378">
        <ele>903.690002</ele>
        <time>2018-06-15T07:20:49.819Z</time>
      </trkpt>
      <trkpt lat="45.98384" lon="6.38377">
        <ele>904.939941</ele>
        <time>2018-06-15T07:20:59.717Z</time>
      </trkpt>
      <trkpt lat="45.98384" lon="6.38383">
        <ele>904.599976</ele>
        <time>2018-06-15T07:21:09.736Z</time>
      </trkpt>
      <trkpt lat="45.98392" lon="6.38382">
        <ele>902.5</ele>
        <time>2018-06-15T07:21:26.933Z</time>
      </trkpt>
      <trkpt lat="45.98392" lon="6.38387">
        <ele>903.189941</ele>
        <time>2018-06-15T07:21:36.863Z</time>
      </trkpt>
      <trkpt lat="45.98393" lon="6.38394">
        <ele>904.090027</ele>
        <time>2018-06-15T07:21:46.824Z</time>
      </trkpt>
      <trkpt lat="45.98393" lon="6.38392">
        <ele>903.799988</ele>
        <time>2018-06-15T07:21:55.837Z</time>
      </trkpt>
      <trkpt lat="45.98398" lon="6.38376">
        <ele>903.280029</ele>
        <time>2018-06-15T07:22:05.821Z</time>
      </trkpt>
      <trkpt lat="45.98402" lon="6.38367">
        <ele>903.77002</ele>
        <time>2018-06-15T07:22:15.761Z</time>
      </trkpt>
      <trkpt lat="45.98406" lon="6.38356">
        <ele>903.909973</ele>
        <time>2018-06-15T07:22:24.795Z</time>
      </trkpt>
      <trkpt lat="45.98411" lon="6.38352">
        <ele>904.900024</ele>
        <time>2018-06-15T07:22:34.688Z</time>
      </trkpt>
      <trkpt lat="45.98423" lon="6.38348">
        <ele>904.370056</ele>
        <time>2018-06-15T07:22:43.890Z</time>
      </trkpt>
      <trkpt lat="45.98431" lon="6.38346">
        <ele>906.679993</ele>
        <time>2018-06-15T07:22:53.711Z</time>
      </trkpt>
      <trkpt lat="45.98433" lon="6.38343">
        <ele>907.200012</ele>
        <time>2018-06-15T07:23:03.813Z</time>
      </trkpt>
      <trkpt lat="45.98432" lon="6.38343">
        <ele>907.25</ele>
        <time>2018-06-15T07:23:13.809Z</time>
      </trkpt>
      <trkpt lat="45.98415" lon="6.3835">
        <ele>908.199951</ele>
        <time>2018-06-15T07:23:22.825Z</time>
      </trkpt>
      <trkpt lat="45.98419" lon="6.38344">
        <ele>908.109985</ele>
        <time>2018-06-15T07:23:32.746Z</time>
      </trkpt>
      <trkpt lat="45.98431" lon="6.3834">
        <ele>908.199951</ele>
        <time>2018-06-15T07:23:41.831Z</time>
      </trkpt>
      <trkpt lat="45.98437" lon="6.38341">
        <ele>907.200012</ele>
        <time>2018-06-15T07:23:51.759Z</time>
      </trkpt>
      <trkpt lat="45.9844" lon="6.38344">
        <ele>906.980042</ele>
        <time>2018-06-15T07:24:06.809Z</time>
      </trkpt>
      <trkpt lat="45.98443" lon="6.38343">
        <ele>907.869995</ele>
        <time>2018-06-15T07:24:16.767Z</time>
      </trkpt>
      <trkpt lat="45.98444" lon="6.38345">
        <ele>908</ele>
        <time>2018-06-15T07:24:26.717Z</time>
      </trkpt>
      <trkpt lat="45.98435" lon="6.38351">
        <ele>908.919983</ele>
        <time>2018-06-15T07:25:40.770Z</time>
      </trkpt>
      <trkpt lat="45.98432" lon="6.38348">
        <ele>911.910034</ele>
        <time>2018-06-15T07:25:50.765Z</time>
      </trkpt>
      <trkpt lat="45.98432" lon="6.38341">
        <ele>913.519958</ele>
        <time>2018-06-15T07:25:59.773Z</time>
      </trkpt>
      <trkpt lat="45.98432" lon="6.38334">
        <ele>914.52002</ele>
        <time>2018-06-15T07:26:08.827Z</time>
      </trkpt>
      <trkpt lat="45.9843" lon="6.38335">
        <ele>915.170044</ele>
        <time>2018-06-15T07:26:20.856Z</time>
      </trkpt>
      <trkpt lat="45.98426" lon="6.38337">
        <ele>915.650024</ele>
        <time>2018-06-15T07:26:29.906Z</time>
      </trkpt>
      <trkpt lat="45.98422" lon="6.38335">
        <ele>915.899963</ele>
        <time>2018-06-15T07:26:39.760Z</time>
      </trkpt>
      <trkpt lat="45.98426" lon="6.38319">
        <ele>915.549988</ele>
        <time>2018-06-15T07:26:49.733Z</time>
      </trkpt>
      <trkpt lat="45.98427" lon="6.38317">
        <ele>916.070007</ele>
        <time>2018-06-15T07:26:59.776Z</time>
      </trkpt>
      <trkpt lat="45.98433" lon="6.38311">
        <ele>916.339966</ele>
        <time>2018-06-15T07:27:09.951Z</time>
      </trkpt>
      <trkpt lat="45.98438" lon="6.38303">
        <ele>916.77002</ele>
        <time>2018-06-15T07:27:19.888Z</time>
      </trkpt>
      <trkpt lat="45.9844" lon="6.38299">
        <ele>917.690002</ele>
        <time>2018-06-15T07:27:29.693Z</time>
      </trkpt>
      <trkpt lat="45.98448" lon="6.38301">
        <ele>919.570007</ele>
        <time>2018-06-15T07:27:38.785Z</time>
      </trkpt>
      <trkpt lat="45.98455" lon="6.38298">
        <ele>920.52002</ele>
        <time>2018-06-15T07:27:48.778Z</time>
      </trkpt>
      <trkpt lat="45.98458" lon="6.38299">
        <ele>921.089966</ele>
        <time>2018-06-15T07:27:58.743Z</time>
      </trkpt>
      <trkpt lat="45.9846" lon="6.38305">
        <ele>922.359985</ele>
        <time>2018-06-15T07:28:07.893Z</time>
      </trkpt>
      <trkpt lat="45.98459" lon="6.38311">
        <ele>926.01001</ele>
        <time>2018-06-15T07:28:17.772Z</time>
      </trkpt>
      <trkpt lat="45.98456" lon="6.38308">
        <ele>928.590027</ele>
        <time>2018-06-15T07:28:27.702Z</time>
      </trkpt>
      <trkpt lat="45.98453" lon="6.38309">
        <ele>930.529968</ele>
        <time>2018-06-15T07:28:36.742Z</time>
      </trkpt>
      <trkpt lat="45.98443" lon="6.38309">
        <ele>931.399963</ele>
        <time>2018-06-15T07:28:45.898Z</time>
      </trkpt>
      <trkpt lat="45.98437" lon="6.38307">
        <ele>933.710022</ele>
        <time>2018-06-15T07:28:55.812Z</time>
      </trkpt>
      <trkpt lat="45.98434" lon="6.38303">
        <ele>935.179993</ele>
        <time>2018-06-15T07:29:04.914Z</time>
      </trkpt>
      <trkpt lat="45.98432" lon="6.38298">
        <ele>935.790039</ele>
        <time>2018-06-15T07:29:14.849Z</time>
      </trkpt>
      <trkpt lat="45.98425" lon="6.38298">
        <ele>936.799988</ele>
        <time>2018-06-15T07:29:24.814Z</time>
      </trkpt>
      <trkpt lat="45.9842" lon="6.38292">
        <ele>937.72998</ele>
        <time>2018-06-15T07:29:33.915Z</time>
      </trkpt>
      <trkpt lat="45.98417" lon="6.38288">
        <ele>940.089966</ele>
        <time>2018-06-15T07:29:43.748Z</time>
      </trkpt>
      <trkpt lat="45.98414" lon="6.38289">
        <ele>940.5</ele>
        <time>2018-06-15T07:29:53.709Z</time>
      </trkpt>
      <trkpt lat="45.9841" lon="6.38284">
        <ele>939.749939</ele>
        <time>2018-06-15T07:30:09.823Z</time>
      </trkpt>
      <trkpt lat="45.98405" lon="6.38277">
        <ele>940.919983</ele>
        <time>2018-06-15T07:30:19.893Z</time>
      </trkpt>
      <trkpt lat="45.98404" lon="6.38268">
        <ele>940.830017</ele>
        <time>2018-06-15T07:30:29.696Z</time>
      </trkpt>
      <trkpt lat="45.98401" lon="6.38269">
        <ele>942.600037</ele>
        <time>2018-06-15T07:30:39.690Z</time>
      </trkpt>
      <trkpt lat="45.984" lon="6.38265">
        <ele>945.919983</ele>
        <time>2018-06-15T07:30:48.951Z</time>
      </trkpt>
      <trkpt lat="45.984" lon="6.38264">
        <ele>946.100037</ele>
        <time>2018-06-15T07:30:58.713Z</time>
      </trkpt>
      <trkpt lat="45.984" lon="6.38261">
        <ele>946.02002</ele>
        <time>2018-06-15T07:31:10.796Z</time>
      </trkpt>
      <trkpt lat="45.98391" lon="6.3826">
        <ele>948.51001</ele>
        <time>2018-06-15T07:31:19.847Z</time>
      </trkpt>
      <trkpt lat="45.98392" lon="6.38253">
        <ele>946.76001</ele>
        <time>2018-06-15T07:31:29.853Z</time>
      </trkpt>
      <trkpt lat="45.98389" lon="6.38246">
        <ele>947.429993</ele>
        <time>2018-06-15T07:31:39.809Z</time>
      </trkpt>
      <trkpt lat="45.98386" lon="6.3824">
        <ele>947.579956</ele>
        <time>2018-06-15T07:31:49.797Z</time>
      </trkpt>
      <trkpt lat="45.98386" lon="6.38237">
        <ele>947.200012</ele>
        <time>2018-06-15T07:31:59.752Z</time>
      </trkpt>
      <trkpt lat="45.98382" lon="6.38236">
        <ele>949.159973</ele>
        <time>2018-06-15T07:32:08.792Z</time>
      </trkpt>
      <trkpt lat="45.9838" lon="6.38232">
        <ele>950.52002</ele>
        <time>2018-06-15T07:32:17.800Z</time>
      </trkpt>
      <trkpt lat="45.98377" lon="6.3823">
        <ele>952.809998</ele>
        <time>2018-06-15T07:32:27.795Z</time>
      </trkpt>
      <trkpt lat="45.98374" lon="6.38233">
        <ele>955.710022</ele>
        <time>2018-06-15T07:32:36.818Z</time>
      </trkpt>
      <trkpt lat="45.98368" lon="6.38229">
        <ele>958.669983</ele>
        <time>2018-06-15T07:32:54.810Z</time>
      </trkpt>
      <trkpt lat="45.98368" lon="6.38227">
        <ele>960.220032</ele>
        <time>2018-06-15T07:33:04.903Z</time>
      </trkpt>
      <trkpt lat="45.98365" lon="6.38219">
        <ele>962.330017</ele>
        <time>2018-06-15T07:33:14.783Z</time>
      </trkpt>
      <trkpt lat="45.98359" lon="6.38214">
        <ele>963.22998</ele>
        <time>2018-06-15T07:33:24.747Z</time>
      </trkpt>
      <trkpt lat="45.98357" lon="6.38204">
        <ele>963.130005</ele>
        <time>2018-06-15T07:33:33.936Z</time>
      </trkpt>
      <trkpt lat="45.98359" lon="6.38199">
        <ele>963.200012</ele>
        <time>2018-06-15T07:33:43.730Z</time>
      </trkpt>
      <trkpt lat="45.98358" lon="6.382">
        <ele>963.700012</ele>
        <time>2018-06-15T07:33:52.761Z</time>
      </trkpt>
      <trkpt lat="45.98358" lon="6.38198">
        <ele>963.610046</ele>
        <time>2018-06-15T07:34:02.803Z</time>
      </trkpt>
      <trkpt lat="45.98357" lon="6.38205">
        <ele>965.700012</ele>
        <time>2018-06-15T07:34:12.773Z</time>
      </trkpt>
      <trkpt lat="45.98355" lon="6.38206">
        <ele>966.099976</ele>
        <time>2018-06-15T07:34:22.748Z</time>
      </trkpt>
      <trkpt lat="45.98356" lon="6.38203">
        <ele>966.099976</ele>
        <time>2018-06-15T07:34:38.772Z</time>
      </trkpt>
      <trkpt lat="45.9836" lon="6.38202">
        <ele>967.169983</ele>
        <time>2018-06-15T07:34:48.702Z</time>
      </trkpt>
      <trkpt lat="45.98364" lon="6.382">
        <ele>966.690002</ele>
        <time>2018-06-15T07:34:57.803Z</time>
      </trkpt>
      <trkpt lat="45.98369" lon="6.38192">
        <ele>966.850037</ele>
        <time>2018-06-15T07:35:07.768Z</time>
      </trkpt>
      <trkpt lat="45.98372" lon="6.382">
        <ele>967.099976</ele>
        <time>2018-06-15T07:35:16.792Z</time>
      </trkpt>
      <trkpt lat="45.98381" lon="6.38204">
        <ele>967.210022</ele>
        <time>2018-06-15T07:35:26.799Z</time>
      </trkpt>
      <trkpt lat="45.98388" lon="6.38198">
        <ele>968.280029</ele>
        <time>2018-06-15T07:35:35.824Z</time>
      </trkpt>
      <trkpt lat="45.98394" lon="6.38204">
        <ele>969.51001</ele>
        <time>2018-06-15T07:35:45.812Z</time>
      </trkpt>
      <trkpt lat="45.984" lon="6.38204">
        <ele>970.860046</ele>
        <time>2018-06-15T07:35:55.752Z</time>
      </trkpt>
      <trkpt lat="45.98407" lon="6.38201">
        <ele>971.289978</ele>
        <time>2018-06-15T07:36:04.797Z</time>
      </trkpt>
      <trkpt lat="45.98414" lon="6.38199">
        <ele>971.700012</ele>
        <time>2018-06-15T07:36:13.848Z</time>
      </trkpt>
      <trkpt lat="45.9842" lon="6.38205">
        <ele>971.800049</ele>
        <time>2018-06-15T07:36:23.744Z</time>
      </trkpt>
      <trkpt lat="45.98434" lon="6.3821">
        <ele>975.549988</ele>
        <time>2018-06-15T07:36:32.802Z</time>
      </trkpt>
      <trkpt lat="45.98447" lon="6.38204">
        <ele>978.529968</ele>
        <time>2018-06-15T07:36:41.932Z</time>
      </trkpt>
      <trkpt lat="45.98444" lon="6.3822">
        <ele>981.22998</ele>
        <time>2018-06-15T07:36:51.804Z</time>
      </trkpt>
      <trkpt lat="45.98443" lon="6.38223">
        <ele>982.599976</ele>
        <time>2018-06-15T07:37:01.750Z</time>
      </trkpt>
      <trkpt lat="45.98439" lon="6.38221">
        <ele>983.219971</ele>
        <time>2018-06-15T07:37:10.823Z</time>
      </trkpt>
      <trkpt lat="45.98429" lon="6.3821">
        <ele>983.990051</ele>
        <time>2018-06-15T07:37:20.841Z</time>
      </trkpt>
      <trkpt lat="45.98424" lon="6.38198">
        <ele>983.160034</ele>
        <time>2018-06-15T07:37:30.808Z</time>
      </trkpt>
      <trkpt lat="45.98425" lon="6.3819">
        <ele>983.600037</ele>
        <time>2018-06-15T07:37:40.733Z</time>
      </trkpt>
      <trkpt lat="45.98427" lon="6.38188">
        <ele>984.049988</ele>
        <time>2018-06-15T07:38:20.787Z</time>
      </trkpt>
      <trkpt lat="45.98429" lon="6.38184">
        <ele>983.630005</ele>
        <time>2018-06-15T07:38:30.701Z</time>
      </trkpt>
      <trkpt lat="45.98429" lon="6.38182">
        <ele>984.200012</ele>
        <time>2018-06-15T07:38:39.728Z</time>
      </trkpt>
      <trkpt lat="45.98428" lon="6.38187">
        <ele>986</ele>
        <time>2018-06-15T07:40:28.878Z</time>
      </trkpt>
      <trkpt lat="45.98431" lon="6.38189">
        <ele>987.590027</ele>
        <time>2018-06-15T07:40:38.742Z</time>
      </trkpt>
      <trkpt lat="45.98434" lon="6.38185">
        <ele>988.220032</ele>
        <time>2018-06-15T07:40:47.814Z</time>
      </trkpt>
      <trkpt lat="45.98436" lon="6.38185">
        <ele>989.210022</ele>
        <time>2018-06-15T07:40:57.725Z</time>
      </trkpt>
      <trkpt lat="45.98439" lon="6.38184">
        <ele>990.809998</ele>
        <time>2018-06-15T07:41:06.807Z</time>
      </trkpt>
      <trkpt lat="45.98442" lon="6.38178">
        <ele>991.940002</ele>
        <time>2018-06-15T07:41:15.997Z</time>
      </trkpt>
      <trkpt lat="45.98445" lon="6.38178">
        <ele>993.040039</ele>
        <time>2018-06-15T07:41:25.797Z</time>
      </trkpt>
      <trkpt lat="45.98449" lon="6.38178">
        <ele>995.309937</ele>
        <time>2018-06-15T07:41:35.836Z</time>
      </trkpt>
      <trkpt lat="45.98452" lon="6.38177">
        <ele>996.379944</ele>
        <time>2018-06-15T07:41:45.775Z</time>
      </trkpt>
      <trkpt lat="45.98454" lon="6.38174">
        <ele>997.519958</ele>
        <time>2018-06-15T07:41:55.744Z</time>
      </trkpt>
      <trkpt lat="45.9846" lon="6.38175">
        <ele>998.210022</ele>
        <time>2018-06-15T07:42:04.772Z</time>
      </trkpt>
      <trkpt lat="45.98462" lon="6.38177">
        <ele>1000.060059</ele>
        <time>2018-06-15T07:42:13.775Z</time>
      </trkpt>
      <trkpt lat="45.98468" lon="6.38172">
        <ele>1000.980042</ele>
        <time>2018-06-15T07:42:23.795Z</time>
      </trkpt>
      <trkpt lat="45.98474" lon="6.38173">
        <ele>1001.660034</ele>
        <time>2018-06-15T07:42:33.764Z</time>
      </trkpt>
      <trkpt lat="45.98479" lon="6.3817">
        <ele>1004.519958</ele>
        <time>2018-06-15T07:42:42.785Z</time>
      </trkpt>
      <trkpt lat="45.98478" lon="6.38172">
        <ele>1006.590027</ele>
        <time>2018-06-15T07:42:53.808Z</time>
      </trkpt>
      <trkpt lat="45.98487" lon="6.38167">
        <ele>1007.519958</ele>
        <time>2018-06-15T07:43:02.890Z</time>
      </trkpt>
      <trkpt lat="45.9849" lon="6.38171">
        <ele>1006.999939</ele>
        <time>2018-06-15T07:43:12.737Z</time>
      </trkpt>
      <trkpt lat="45.98494" lon="6.38167">
        <ele>1007.98999</ele>
        <time>2018-06-15T07:43:21.865Z</time>
      </trkpt>
      <trkpt lat="45.985" lon="6.38163">
        <ele>1010.240051</ele>
        <time>2018-06-15T07:43:31.715Z</time>
      </trkpt>
      <trkpt lat="45.98505" lon="6.38162">
        <ele>1012.200012</ele>
        <time>2018-06-15T07:43:40.736Z</time>
      </trkpt>
      <trkpt lat="45.98512" lon="6.38154">
        <ele>1013.900024</ele>
        <time>2018-06-15T07:43:49.843Z</time>
      </trkpt>
      <trkpt lat="45.98513" lon="6.38161">
        <ele>1016.25</ele>
        <time>2018-06-15T07:43:59.807Z</time>
      </trkpt>
      <trkpt lat="45.98515" lon="6.38166">
        <ele>1016.200012</ele>
        <time>2018-06-15T07:44:09.719Z</time>
      </trkpt>
      <trkpt lat="45.98519" lon="6.38167">
        <ele>1017.539978</ele>
        <time>2018-06-15T07:44:18.728Z</time>
      </trkpt>
      <trkpt lat="45.9852" lon="6.3817">
        <ele>1018.299988</ele>
        <time>2018-06-15T07:44:28.707Z</time>
      </trkpt>
      <trkpt lat="45.98509" lon="6.3819">
        <ele>1020.400024</ele>
        <time>2018-06-15T07:45:10.754Z</time>
      </trkpt>
      <trkpt lat="45.98512" lon="6.38181">
        <ele>1021.190002</ele>
        <time>2018-06-15T07:45:19.837Z</time>
      </trkpt>
      <trkpt lat="45.98517" lon="6.38172">
        <ele>1020.890015</ele>
        <time>2018-06-15T07:45:29.713Z</time>
      </trkpt>
      <trkpt lat="45.98521" lon="6.38171">
        <ele>1020.890015</ele>
        <time>2018-06-15T07:45:38.887Z</time>
      </trkpt>
      <trkpt lat="45.98529" lon="6.38165">
        <ele>1021.490051</ele>
        <time>2018-06-15T07:45:48.710Z</time>
      </trkpt>
      <trkpt lat="45.98531" lon="6.38164">
        <ele>1022.300049</ele>
        <time>2018-06-15T07:45:57.766Z</time>
      </trkpt>
      <trkpt lat="45.98535" lon="6.38162">
        <ele>1024.050049</ele>
        <time>2018-06-15T07:46:07.710Z</time>
      </trkpt>
      <trkpt lat="45.98538" lon="6.38167">
        <ele>1024.700073</ele>
        <time>2018-06-15T07:46:17.803Z</time>
      </trkpt>
      <trkpt lat="45.98536" lon="6.3818">
        <ele>1025.449951</ele>
        <time>2018-06-15T07:46:47.828Z</time>
      </trkpt>
      <trkpt lat="45.98541" lon="6.38181">
        <ele>1026.849976</ele>
        <time>2018-06-15T07:46:57.800Z</time>
      </trkpt>
      <trkpt lat="45.9854" lon="6.38182">
        <ele>1027.670044</ele>
        <time>2018-06-15T07:47:16.775Z</time>
      </trkpt>
      <trkpt lat="45.98543" lon="6.38178">
        <ele>1029</ele>
        <time>2018-06-15T07:47:26.726Z</time>
      </trkpt>
      <trkpt lat="45.98539" lon="6.38182">
        <ele>1029.300049</ele>
        <time>2018-06-15T07:49:48.912Z</time>
      </trkpt>
      <trkpt lat="45.98538" lon="6.38181">
        <ele>1029.5</ele>
        <time>2018-06-15T07:51:23.708Z</time>
      </trkpt>
      <trkpt lat="45.98538" lon="6.38179">
        <ele>1030</ele>
        <time>2018-06-15T07:51:32.716Z</time>
      </trkpt>
      <trkpt lat="45.98535" lon="6.38185">
        <ele>1031.650024</ele>
        <time>2018-06-15T07:51:49.777Z</time>
      </trkpt>
      <trkpt lat="45.98532" lon="6.38181">
        <ele>1032.790039</ele>
        <time>2018-06-15T07:51:59.708Z</time>
      </trkpt>
      <trkpt lat="45.98531" lon="6.38168">
        <ele>1032.890015</ele>
        <time>2018-06-15T07:52:09.732Z</time>
      </trkpt>
      <trkpt lat="45.98536" lon="6.38159">
        <ele>1033.069946</ele>
        <time>2018-06-15T07:52:18.774Z</time>
      </trkpt>
      <trkpt lat="45.9854" lon="6.38152">
        <ele>1034.73999</ele>
        <time>2018-06-15T07:52:28.717Z</time>
      </trkpt>
      <trkpt lat="45.98543" lon="6.38155">
        <ele>1035.589966</ele>
        <time>2018-06-15T07:52:37.721Z</time>
      </trkpt>
      <trkpt lat="45.98544" lon="6.38159">
        <ele>1037.130005</ele>
        <time>2018-06-15T07:52:46.799Z</time>
      </trkpt>
      <trkpt lat="45.98548" lon="6.38158">
        <ele>1038.069946</ele>
        <time>2018-06-15T07:52:56.715Z</time>
      </trkpt>
      <trkpt lat="45.98552" lon="6.38154">
        <ele>1038.950073</ele>
        <time>2018-06-15T07:53:06.755Z</time>
      </trkpt>
      <trkpt lat="45.98558" lon="6.38153">
        <ele>1039.589966</ele>
        <time>2018-06-15T07:53:15.816Z</time>
      </trkpt>
      <trkpt lat="45.98563" lon="6.38141">
        <ele>1042.310059</ele>
        <time>2018-06-15T07:53:25.688Z</time>
      </trkpt>
      <trkpt lat="45.98565" lon="6.38142">
        <ele>1043.720093</ele>
        <time>2018-06-15T07:53:34.957Z</time>
      </trkpt>
      <trkpt lat="45.98573" lon="6.38147">
        <ele>1044.300049</ele>
        <time>2018-06-15T07:53:44.741Z</time>
      </trkpt>
      <trkpt lat="45.98581" lon="6.3814">
        <ele>1045.190063</ele>
        <time>2018-06-15T07:53:54.718Z</time>
      </trkpt>
      <trkpt lat="45.98581" lon="6.38148">
        <ele>1046.200073</ele>
        <time>2018-06-15T07:54:04.948Z</time>
      </trkpt>
      <trkpt lat="45.98591" lon="6.38136">
        <ele>1048.22998</ele>
        <time>2018-06-15T07:54:14.708Z</time>
      </trkpt>
      <trkpt lat="45.98593" lon="6.38131">
        <ele>1048.799927</ele>
        <time>2018-06-15T07:54:23.752Z</time>
      </trkpt>
      <trkpt lat="45.98597" lon="6.38119">
        <ele>1051.390015</ele>
        <time>2018-06-15T07:54:32.830Z</time>
      </trkpt>
      <trkpt lat="45.98597" lon="6.38108">
        <ele>1054</ele>
        <time>2018-06-15T07:54:42.706Z</time>
      </trkpt>
      <trkpt lat="45.98597" lon="6.38117">
        <ele>1055.169922</ele>
        <time>2018-06-15T07:54:51.714Z</time>
      </trkpt>
      <trkpt lat="45.98596" lon="6.3812">
        <ele>1056.400024</ele>
        <time>2018-06-15T07:55:01.726Z</time>
      </trkpt>
      <trkpt lat="45.98598" lon="6.38122">
        <ele>1056.919922</ele>
        <time>2018-06-15T07:55:51.743Z</time>
      </trkpt>
      <trkpt lat="45.98598" lon="6.38125">
        <ele>1057.599976</ele>
        <time>2018-06-15T07:56:01.719Z</time>
      </trkpt>
      <trkpt lat="45.98596" lon="6.38134">
        <ele>1058.949951</ele>
        <time>2018-06-15T07:56:11.957Z</time>
      </trkpt>
      <trkpt lat="45.98593" lon="6.38138">
        <ele>1060.420044</ele>
        <time>2018-06-15T07:56:21.737Z</time>
      </trkpt>
      <trkpt lat="45.98585" lon="6.38138">
        <ele>1063.569946</ele>
        <time>2018-06-15T07:56:31.688Z</time>
      </trkpt>
      <trkpt lat="45.98587" lon="6.3813">
        <ele>1063.790039</ele>
        <time>2018-06-15T07:56:40.793Z</time>
      </trkpt>
      <trkpt lat="45.98586" lon="6.38128">
        <ele>1063.5</ele>
        <time>2018-06-15T07:56:50.669Z</time>
      </trkpt>
      <trkpt lat="45.98587" lon="6.38106">
        <ele>1060.569946</ele>
        <time>2018-06-15T07:57:21.774Z</time>
      </trkpt>
      <trkpt lat="45.98592" lon="6.38092">
        <ele>1058.25</ele>
        <time>2018-06-15T07:57:31.715Z</time>
      </trkpt>
      <trkpt lat="45.98591" lon="6.38095">
        <ele>1058.799927</ele>
        <time>2018-06-15T07:57:43.706Z</time>
      </trkpt>
      <trkpt lat="45.98593" lon="6.38091">
        <ele>1058.880005</ele>
        <time>2018-06-15T07:58:03.786Z</time>
      </trkpt>
      <trkpt lat="45.98591" lon="6.38096">
        <ele>1058.25</ele>
        <time>2018-06-15T07:58:12.792Z</time>
      </trkpt>
      <trkpt lat="45.98592" lon="6.38096">
        <ele>1057.900024</ele>
        <time>2018-06-15T07:58:22.708Z</time>
      </trkpt>
      <trkpt lat="45.98591" lon="6.38085">
        <ele>1058.669922</ele>
        <time>2018-06-15T07:58:32.676Z</time>
      </trkpt>
      <trkpt lat="45.98592" lon="6.38089">
        <ele>1057.400024</ele>
        <time>2018-06-15T07:59:14.807Z</time>
      </trkpt>
      <trkpt lat="45.98583" lon="6.38105">
        <ele>1060.320068</ele>
        <time>2018-06-15T07:59:24.710Z</time>
      </trkpt>
      <trkpt lat="45.98578" lon="6.38108">
        <ele>1061.429932</ele>
        <time>2018-06-15T07:59:33.805Z</time>
      </trkpt>
      <trkpt lat="45.98575" lon="6.38107">
        <ele>1062.869995</ele>
        <time>2018-06-15T07:59:43.705Z</time>
      </trkpt>
      <trkpt lat="45.98572" lon="6.38099">
        <ele>1064.189941</ele>
        <time>2018-06-15T07:59:52.719Z</time>
      </trkpt>
      <trkpt lat="45.98569" lon="6.38092">
        <ele>1065.460083</ele>
        <time>2018-06-15T08:00:01.859Z</time>
      </trkpt>
      <trkpt lat="45.98562" lon="6.38092">
        <ele>1066.190063</ele>
        <time>2018-06-15T08:00:11.709Z</time>
      </trkpt>
      <trkpt lat="45.98564" lon="6.3809">
        <ele>1066.950073</ele>
        <time>2018-06-15T08:00:20.854Z</time>
      </trkpt>
      <trkpt lat="45.98562" lon="6.38078">
        <ele>1067.380005</ele>
        <time>2018-06-15T08:00:30.680Z</time>
      </trkpt>
      <trkpt lat="45.98556" lon="6.38064">
        <ele>1070.780029</ele>
        <time>2018-06-15T08:00:50.735Z</time>
      </trkpt>
      <trkpt lat="45.98555" lon="6.38065">
        <ele>1071.599976</ele>
        <time>2018-06-15T08:00:59.747Z</time>
      </trkpt>
      <trkpt lat="45.98556" lon="6.38069">
        <ele>1072.02002</ele>
        <time>2018-06-15T08:01:08.763Z</time>
      </trkpt>
      <trkpt lat="45.98555" lon="6.38071">
        <ele>1071.930054</ele>
        <time>2018-06-15T08:01:17.794Z</time>
      </trkpt>
      <trkpt lat="45.98557" lon="6.3807">
        <ele>1071.920044</ele>
        <time>2018-06-15T08:01:27.744Z</time>
      </trkpt>
      <trkpt lat="45.98558" lon="6.38072">
        <ele>1072.910034</ele>
        <time>2018-06-15T08:01:37.702Z</time>
      </trkpt>
      <trkpt lat="45.98558" lon="6.38074">
        <ele>1075.5</ele>
        <time>2018-06-15T08:01:57.708Z</time>
      </trkpt>
      <trkpt lat="45.98554" lon="6.38081">
        <ele>1076.77002</ele>
        <time>2018-06-15T08:02:06.799Z</time>
      </trkpt>
      <trkpt lat="45.98554" lon="6.38078">
        <ele>1076.709961</ele>
        <time>2018-06-15T08:02:16.774Z</time>
      </trkpt>
      <trkpt lat="45.98551" lon="6.38071">
        <ele>1073.569946</ele>
        <time>2018-06-15T08:02:26.806Z</time>
      </trkpt>
      <trkpt lat="45.98544" lon="6.38078">
        <ele>1074.880005</ele>
        <time>2018-06-15T08:02:36.670Z</time>
      </trkpt>
      <trkpt lat="45.98543" lon="6.38074">
        <ele>1075.630005</ele>
        <time>2018-06-15T08:02:45.783Z</time>
      </trkpt>
      <trkpt lat="45.9854" lon="6.38069">
        <ele>1076.829956</ele>
        <time>2018-06-15T08:02:54.861Z</time>
      </trkpt>
      <trkpt lat="45.98534" lon="6.38071">
        <ele>1078.349976</ele>
        <time>2018-06-15T08:03:04.680Z</time>
      </trkpt>
      <trkpt lat="45.98529" lon="6.38069">
        <ele>1079.569946</ele>
        <time>2018-06-15T08:03:13.733Z</time>
      </trkpt>
      <trkpt lat="45.98522" lon="6.38065">
        <ele>1080.160034</ele>
        <time>2018-06-15T08:03:23.711Z</time>
      </trkpt>
      <trkpt lat="45.98515" lon="6.38062">
        <ele>1081.52002</ele>
        <time>2018-06-15T08:03:32.742Z</time>
      </trkpt>
      <trkpt lat="45.98503" lon="6.38064">
        <ele>1084.02002</ele>
        <time>2018-06-15T08:03:42.758Z</time>
      </trkpt>
      <trkpt lat="45.98497" lon="6.38058">
        <ele>1084.050049</ele>
        <time>2018-06-15T08:03:52.755Z</time>
      </trkpt>
      <trkpt lat="45.98496" lon="6.38049">
        <ele>1084.5</ele>
        <time>2018-06-15T08:04:01.808Z</time>
      </trkpt>
      <trkpt lat="45.9849" lon="6.38049">
        <ele>1087.569946</ele>
        <time>2018-06-15T08:04:10.834Z</time>
      </trkpt>
      <trkpt lat="45.98484" lon="6.38048">
        <ele>1088.030029</ele>
        <time>2018-06-15T08:04:20.775Z</time>
      </trkpt>
      <trkpt lat="45.98481" lon="6.3805">
        <ele>1089.409912</ele>
        <time>2018-06-15T08:04:30.678Z</time>
      </trkpt>
      <trkpt lat="45.9848" lon="6.38042">
        <ele>1091.23999</ele>
        <time>2018-06-15T08:04:40.021Z</time>
      </trkpt>
      <trkpt lat="45.98476" lon="6.38036">
        <ele>1093.619995</ele>
        <time>2018-06-15T08:04:49.743Z</time>
      </trkpt>
      <trkpt lat="45.98473" lon="6.38027">
        <ele>1096</ele>
        <time>2018-06-15T08:04:59.700Z</time>
      </trkpt>
      <trkpt lat="45.98469" lon="6.38028">
        <ele>1097.390015</ele>
        <time>2018-06-15T08:05:08.797Z</time>
      </trkpt>
      <trkpt lat="45.98466" lon="6.38024">
        <ele>1099.660034</ele>
        <time>2018-06-15T08:05:18.829Z</time>
      </trkpt>
      <trkpt lat="45.98463" lon="6.38018">
        <ele>1100.900024</ele>
        <time>2018-06-15T08:05:28.652Z</time>
      </trkpt>
      <trkpt lat="45.98463" lon="6.37999">
        <ele>1103.670044</ele>
        <time>2018-06-15T08:05:48.896Z</time>
      </trkpt>
      <trkpt lat="45.98461" lon="6.37996">
        <ele>1108.700073</ele>
        <time>2018-06-15T08:05:58.775Z</time>
      </trkpt>
      <trkpt lat="45.98456" lon="6.37989">
        <ele>1108.890015</ele>
        <time>2018-06-15T08:06:08.670Z</time>
      </trkpt>
      <trkpt lat="45.98455" lon="6.37988">
        <ele>1108.859985</ele>
        <time>2018-06-15T08:06:18.765Z</time>
      </trkpt>
      <trkpt lat="45.98452" lon="6.37989">
        <ele>1109.900024</ele>
        <time>2018-06-15T08:06:27.771Z</time>
      </trkpt>
      <trkpt lat="45.98446" lon="6.37982">
        <ele>1111.059937</ele>
        <time>2018-06-15T08:06:37.698Z</time>
      </trkpt>
      <trkpt lat="45.98441" lon="6.37979">
        <ele>1111.349976</ele>
        <time>2018-06-15T08:06:46.807Z</time>
      </trkpt>
      <trkpt lat="45.98437" lon="6.3797">
        <ele>1113.829956</ele>
        <time>2018-06-15T08:06:56.784Z</time>
      </trkpt>
      <trkpt lat="45.98436" lon="6.37957">
        <ele>1118.099976</ele>
        <time>2018-06-15T08:07:06.695Z</time>
      </trkpt>
      <trkpt lat="45.98437" lon="6.37956">
        <ele>1122.209961</ele>
        <time>2018-06-15T08:07:39.767Z</time>
      </trkpt>
      <trkpt lat="45.98436" lon="6.37957">
        <ele>1122.099976</ele>
        <time>2018-06-15T08:07:49.679Z</time>
      </trkpt>
      <trkpt lat="45.98435" lon="6.37961">
        <ele>1121.540039</ele>
        <time>2018-06-15T08:07:58.695Z</time>
      </trkpt>
      <trkpt lat="45.98434" lon="6.37966">
        <ele>1122</ele>
        <time>2018-06-15T08:08:08.622Z</time>
      </trkpt>
      <trkpt lat="45.98431" lon="6.37964">
        <ele>1127.099976</ele>
        <time>2018-06-15T08:09:46.750Z</time>
      </trkpt>
      <trkpt lat="45.9843" lon="6.37965">
        <ele>1129.27002</ele>
        <time>2018-06-15T08:10:11.739Z</time>
      </trkpt>
      <trkpt lat="45.98431" lon="6.37964">
        <ele>1129.199951</ele>
        <time>2018-06-15T08:10:21.714Z</time>
      </trkpt>
      <trkpt lat="45.98434" lon="6.3796">
        <ele>1128.97998</ele>
        <time>2018-06-15T08:11:02.713Z</time>
      </trkpt>
      <trkpt lat="45.98433" lon="6.37961">
        <ele>1129</ele>
        <time>2018-06-15T08:11:12.667Z</time>
      </trkpt>
      <trkpt lat="45.98432" lon="6.37955">
        <ele>1129.819946</ele>
        <time>2018-06-15T08:11:21.792Z</time>
      </trkpt>
      <trkpt lat="45.98433" lon="6.37957">
        <ele>1130.329956</ele>
        <time>2018-06-15T08:11:31.684Z</time>
      </trkpt>
      <trkpt lat="45.98432" lon="6.3796">
        <ele>1130.299927</ele>
        <time>2018-06-15T08:11:40.735Z</time>
      </trkpt>
      <trkpt lat="45.98432" lon="6.37957">
        <ele>1130.099976</ele>
        <time>2018-06-15T08:11:50.626Z</time>
      </trkpt>
      <trkpt lat="45.98423" lon="6.3796">
        <ele>1128.400024</ele>
        <time>2018-06-15T08:11:59.712Z</time>
      </trkpt>
      <trkpt lat="45.98418" lon="6.37958">
        <ele>1128.150024</ele>
        <time>2018-06-15T08:12:09.720Z</time>
      </trkpt>
      <trkpt lat="45.98418" lon="6.37951">
        <ele>1128.670044</ele>
        <time>2018-06-15T08:12:18.756Z</time>
      </trkpt>
      <trkpt lat="45.98415" lon="6.37943">
        <ele>1130.26001</ele>
        <time>2018-06-15T08:12:28.768Z</time>
      </trkpt>
      <trkpt lat="45.98412" lon="6.3793">
        <ele>1131.27002</ele>
        <time>2018-06-15T08:12:38.773Z</time>
      </trkpt>
      <trkpt lat="45.98413" lon="6.37923">
        <ele>1131.599976</ele>
        <time>2018-06-15T08:12:48.759Z</time>
      </trkpt>
      <trkpt lat="45.98409" lon="6.37924">
        <ele>1132.300049</ele>
        <time>2018-06-15T08:12:58.715Z</time>
      </trkpt>
      <trkpt lat="45.98406" lon="6.37917">
        <ele>1130.609985</ele>
        <time>2018-06-15T08:13:07.764Z</time>
      </trkpt>
      <trkpt lat="45.98404" lon="6.37918">
        <ele>1129.400024</ele>
        <time>2018-06-15T08:13:17.687Z</time>
      </trkpt>
      <trkpt lat="45.98406" lon="6.37901">
        <ele>1129.069946</ele>
        <time>2018-06-15T08:13:26.772Z</time>
      </trkpt>
      <trkpt lat="45.98404" lon="6.37903">
        <ele>1130.079956</ele>
        <time>2018-06-15T08:13:36.848Z</time>
      </trkpt>
      <trkpt lat="45.98398" lon="6.37909">
        <ele>1131.300049</ele>
        <time>2018-06-15T08:13:46.644Z</time>
      </trkpt>
      <trkpt lat="45.98393" lon="6.37909">
        <ele>1133.5</ele>
        <time>2018-06-15T08:13:55.763Z</time>
      </trkpt>
      <trkpt lat="45.98385" lon="6.37909">
        <ele>1135.219971</ele>
        <time>2018-06-15T08:14:04.764Z</time>
      </trkpt>
      <trkpt lat="45.98384" lon="6.37898">
        <ele>1136.109985</ele>
        <time>2018-06-15T08:14:14.831Z</time>
      </trkpt>
      <trkpt lat="45.98381" lon="6.37894">
        <ele>1138.27002</ele>
        <time>2018-06-15T08:14:24.792Z</time>
      </trkpt>
      <trkpt lat="45.9837" lon="6.37894">
        <ele>1137.359985</ele>
        <time>2018-06-15T08:14:34.773Z</time>
      </trkpt>
      <trkpt lat="45.98363" lon="6.3789">
        <ele>1137.619995</ele>
        <time>2018-06-15T08:14:44.778Z</time>
      </trkpt>
      <trkpt lat="45.98357" lon="6.37883">
        <ele>1138.900024</ele>
        <time>2018-06-15T08:14:54.719Z</time>
      </trkpt>
      <trkpt lat="45.98356" lon="6.37876">
        <ele>1138.599976</ele>
        <time>2018-06-15T08:15:04.798Z</time>
      </trkpt>
      <trkpt lat="45.98355" lon="6.37868">
        <ele>1136.700073</ele>
        <time>2018-06-15T08:15:14.618Z</time>
      </trkpt>
      <trkpt lat="45.98354" lon="6.37865">
        <ele>1138.01001</ele>
        <time>2018-06-15T08:15:23.634Z</time>
      </trkpt>
      <trkpt lat="45.9835" lon="6.37861">
        <ele>1140.099976</ele>
        <time>2018-06-15T08:15:32.770Z</time>
      </trkpt>
      <trkpt lat="45.98344" lon="6.37863">
        <ele>1141.72998</ele>
        <time>2018-06-15T08:15:42.697Z</time>
      </trkpt>
      <trkpt lat="45.98341" lon="6.37854">
        <ele>1142.799927</ele>
        <time>2018-06-15T08:15:51.740Z</time>
      </trkpt>
      <trkpt lat="45.98337" lon="6.37852">
        <ele>1144.390015</ele>
        <time>2018-06-15T08:16:00.796Z</time>
      </trkpt>
      <trkpt lat="45.98334" lon="6.37852">
        <ele>1145.920044</ele>
        <time>2018-06-15T08:16:10.746Z</time>
      </trkpt>
      <trkpt lat="45.98336" lon="6.37848">
        <ele>1146.969971</ele>
        <time>2018-06-15T08:16:20.775Z</time>
      </trkpt>
      <trkpt lat="45.98333" lon="6.3784">
        <ele>1147.859985</ele>
        <time>2018-06-15T08:16:30.695Z</time>
      </trkpt>
      <trkpt lat="45.98332" lon="6.3784">
        <ele>1148.550049</ele>
        <time>2018-06-15T08:16:42.761Z</time>
      </trkpt>
      <trkpt lat="45.98338" lon="6.37831">
        <ele>1148.569946</ele>
        <time>2018-06-15T08:16:58.759Z</time>
      </trkpt>
      <trkpt lat="45.98337" lon="6.37842">
        <ele>1148.97998</ele>
        <time>2018-06-15T08:17:07.866Z</time>
      </trkpt>
      <trkpt lat="45.98335" lon="6.37838">
        <ele>1149.670044</ele>
        <time>2018-06-15T08:17:17.685Z</time>
      </trkpt>
      <trkpt lat="45.98335" lon="6.37839">
        <ele>1149.400024</ele>
        <time>2018-06-15T08:17:27.688Z</time>
      </trkpt>
      <trkpt lat="45.98334" lon="6.37842">
        <ele>1149.330078</ele>
        <time>2018-06-15T08:17:36.735Z</time>
      </trkpt>
      <trkpt lat="45.98335" lon="6.37835">
        <ele>1149.400024</ele>
        <time>2018-06-15T08:17:46.693Z</time>
      </trkpt>
      <trkpt lat="45.98336" lon="6.37834">
        <ele>1149.219971</ele>
        <time>2018-06-15T08:18:05.790Z</time>
      </trkpt>
      <trkpt lat="45.98337" lon="6.37837">
        <ele>1149.050049</ele>
        <time>2018-06-15T08:19:06.827Z</time>
      </trkpt>
      <trkpt lat="45.98333" lon="6.37832">
        <ele>1149.380005</ele>
        <time>2018-06-15T08:19:16.723Z</time>
      </trkpt>
      <trkpt lat="45.9833" lon="6.37826">
        <ele>1150.02002</ele>
        <time>2018-06-15T08:19:25.804Z</time>
      </trkpt>
      <trkpt lat="45.98326" lon="6.37823">
        <ele>1149.700073</ele>
        <time>2018-06-15T08:19:35.647Z</time>
      </trkpt>
      <trkpt lat="45.98322" lon="6.37816">
        <ele>1150.670044</ele>
        <time>2018-06-15T08:19:44.740Z</time>
      </trkpt>
      <trkpt lat="45.98319" lon="6.37803">
        <ele>1152.420044</ele>
        <time>2018-06-15T08:19:54.736Z</time>
      </trkpt>
      <trkpt lat="45.98316" lon="6.37796">
        <ele>1152.670044</ele>
        <time>2018-06-15T08:20:03.770Z</time>
      </trkpt>
      <trkpt lat="45.98314" lon="6.37795">
        <ele>1154.5</ele>
        <time>2018-06-15T08:20:13.681Z</time>
      </trkpt>
      <trkpt lat="45.98313" lon="6.37789">
        <ele>1155.849976</ele>
        <time>2018-06-15T08:20:26.695Z</time>
      </trkpt>
      <trkpt lat="45.98309" lon="6.37778">
        <ele>1157.280029</ele>
        <time>2018-06-15T08:20:35.779Z</time>
      </trkpt>
      <trkpt lat="45.98307" lon="6.37768">
        <ele>1157.51001</ele>
        <time>2018-06-15T08:20:45.738Z</time>
      </trkpt>
      <trkpt lat="45.98304" lon="6.37761">
        <ele>1157.920044</ele>
        <time>2018-06-15T08:20:55.748Z</time>
      </trkpt>
      <trkpt lat="45.98301" lon="6.37752">
        <ele>1158.169922</ele>
        <time>2018-06-15T08:21:04.753Z</time>
      </trkpt>
      <trkpt lat="45.98298" lon="6.37744">
        <ele>1158.700073</ele>
        <time>2018-06-15T08:21:13.825Z</time>
      </trkpt>
      <trkpt lat="45.98295" lon="6.3774">
        <ele>1160.300049</ele>
        <time>2018-06-15T08:21:23.979Z</time>
      </trkpt>
      <trkpt lat="45.98292" lon="6.37731">
        <ele>1160.619995</ele>
        <time>2018-06-15T08:21:33.749Z</time>
      </trkpt>
      <trkpt lat="45.98291" lon="6.37728">
        <ele>1160.199951</ele>
        <time>2018-06-15T08:21:43.647Z</time>
      </trkpt>
      <trkpt lat="45.98295" lon="6.37723">
        <ele>1159.22998</ele>
        <time>2018-06-15T08:21:52.787Z</time>
      </trkpt>
      <trkpt lat="45.98295" lon="6.37717">
        <ele>1159.189941</ele>
        <time>2018-06-15T08:22:02.703Z</time>
      </trkpt>
      <trkpt lat="45.98296" lon="6.3773">
        <ele>1163.699951</ele>
        <time>2018-06-15T08:22:32.762Z</time>
      </trkpt>
      <trkpt lat="45.98293" lon="6.37725">
        <ele>1165.23999</ele>
        <time>2018-06-15T08:22:41.831Z</time>
      </trkpt>
      <trkpt lat="45.98289" lon="6.37725">
        <ele>1166.52002</ele>
        <time>2018-06-15T08:22:51.711Z</time>
      </trkpt>
      <trkpt lat="45.98286" lon="6.37717">
        <ele>1166.98999</ele>
        <time>2018-06-15T08:23:01.715Z</time>
      </trkpt>
      <trkpt lat="45.98284" lon="6.37708">
        <ele>1168.599976</ele>
        <time>2018-06-15T08:23:10.757Z</time>
      </trkpt>
      <trkpt lat="45.98284" lon="6.37701">
        <ele>1170.429932</ele>
        <time>2018-06-15T08:23:26.748Z</time>
      </trkpt>
      <trkpt lat="45.98282" lon="6.37694">
        <ele>1172.540039</ele>
        <time>2018-06-15T08:23:36.697Z</time>
      </trkpt>
      <trkpt lat="45.98283" lon="6.37693">
        <ele>1173.099976</ele>
        <time>2018-06-15T08:23:45.713Z</time>
      </trkpt>
      <trkpt lat="45.98283" lon="6.37691">
        <ele>1173.469971</ele>
        <time>2018-06-15T08:24:11.705Z</time>
      </trkpt>
      <trkpt lat="45.9828" lon="6.3768">
        <ele>1173.97998</ele>
        <time>2018-06-15T08:24:20.741Z</time>
      </trkpt>
      <trkpt lat="45.98279" lon="6.37668">
        <ele>1175.01001</ele>
        <time>2018-06-15T08:24:30.720Z</time>
      </trkpt>
      <trkpt lat="45.98278" lon="6.37658">
        <ele>1176.540039</ele>
        <time>2018-06-15T08:24:39.850Z</time>
      </trkpt>
      <trkpt lat="45.98279" lon="6.37641">
        <ele>1176.540039</ele>
        <time>2018-06-15T08:24:49.726Z</time>
      </trkpt>
      <trkpt lat="45.9828" lon="6.37632">
        <ele>1177.23999</ele>
        <time>2018-06-15T08:24:58.845Z</time>
      </trkpt>
      <trkpt lat="45.98279" lon="6.37629">
        <ele>1178.950073</ele>
        <time>2018-06-15T08:25:09.787Z</time>
      </trkpt>
      <trkpt lat="45.98278" lon="6.37626">
        <ele>1179.300049</ele>
        <time>2018-06-15T08:25:19.642Z</time>
      </trkpt>
      <trkpt lat="45.98278" lon="6.37624">
        <ele>1179.380005</ele>
        <time>2018-06-15T08:25:39.740Z</time>
      </trkpt>
      <trkpt lat="45.98277" lon="6.37621">
        <ele>1179.619995</ele>
        <time>2018-06-15T08:26:00.714Z</time>
      </trkpt>
      <trkpt lat="45.98279" lon="6.3762">
        <ele>1180.420044</ele>
        <time>2018-06-15T08:26:10.831Z</time>
      </trkpt>
      <trkpt lat="45.98285" lon="6.37621">
        <ele>1181</ele>
        <time>2018-06-15T08:26:20.634Z</time>
      </trkpt>
      <trkpt lat="45.98284" lon="6.3762">
        <ele>1181.820068</ele>
        <time>2018-06-15T08:28:05.765Z</time>
      </trkpt>
      <trkpt lat="45.98276" lon="6.37612">
        <ele>1183.900024</ele>
        <time>2018-06-15T08:29:31.655Z</time>
      </trkpt>
      <trkpt lat="45.98271" lon="6.37608">
        <ele>1185.450073</ele>
        <time>2018-06-15T08:29:40.782Z</time>
      </trkpt>
      <trkpt lat="45.98268" lon="6.37609">
        <ele>1186.22998</ele>
        <time>2018-06-15T08:29:49.816Z</time>
      </trkpt>
      <trkpt lat="45.98266" lon="6.37608">
        <ele>1186.299927</ele>
        <time>2018-06-15T08:29:59.715Z</time>
      </trkpt>
      <trkpt lat="45.98268" lon="6.37611">
        <ele>1187.719971</ele>
        <time>2018-06-15T08:31:41.861Z</time>
      </trkpt>
      <trkpt lat="45.98267" lon="6.37612">
        <ele>1189.099976</ele>
        <time>2018-06-15T08:31:51.672Z</time>
      </trkpt>
      <trkpt lat="45.98267" lon="6.37618">
        <ele>1190.969971</ele>
        <time>2018-06-15T08:32:38.694Z</time>
      </trkpt>
      <trkpt lat="45.98264" lon="6.37618">
        <ele>1192.099976</ele>
        <time>2018-06-15T08:33:03.750Z</time>
      </trkpt>
      <trkpt lat="45.98266" lon="6.37613">
        <ele>1192.900024</ele>
        <time>2018-06-15T08:33:13.713Z</time>
      </trkpt>
      <trkpt lat="45.98268" lon="6.37608">
        <ele>1193</ele>
        <time>2018-06-15T08:33:22.766Z</time>
      </trkpt>
      <trkpt lat="45.98276" lon="6.37603">
        <ele>1190.900024</ele>
        <time>2018-06-15T08:33:32.598Z</time>
      </trkpt>
      <trkpt lat="45.98275" lon="6.37603">
        <ele>1192.530029</ele>
        <time>2018-06-15T08:33:45.748Z</time>
      </trkpt>
      <trkpt lat="45.98278" lon="6.37598">
        <ele>1192.859985</ele>
        <time>2018-06-15T08:33:55.822Z</time>
      </trkpt>
      <trkpt lat="45.98273" lon="6.37589">
        <ele>1192.72998</ele>
        <time>2018-06-15T08:34:05.801Z</time>
      </trkpt>
      <trkpt lat="45.98279" lon="6.3759">
        <ele>1193.310059</ele>
        <time>2018-06-15T08:34:14.825Z</time>
      </trkpt>
      <trkpt lat="45.98275" lon="6.37581">
        <ele>1193.590088</ele>
        <time>2018-06-15T08:34:24.765Z</time>
      </trkpt>
      <trkpt lat="45.98275" lon="6.37571">
        <ele>1194.130005</ele>
        <time>2018-06-15T08:34:34.818Z</time>
      </trkpt>
      <trkpt lat="45.98277" lon="6.3757">
        <ele>1195.329956</ele>
        <time>2018-06-15T08:34:44.702Z</time>
      </trkpt>
      <trkpt lat="45.98279" lon="6.3757">
        <ele>1196.73999</ele>
        <time>2018-06-15T08:35:02.708Z</time>
      </trkpt>
      <trkpt lat="45.98282" lon="6.37563">
        <ele>1196.780029</ele>
        <time>2018-06-15T08:35:11.753Z</time>
      </trkpt>
      <trkpt lat="45.98281" lon="6.37554">
        <ele>1194.48999</ele>
        <time>2018-06-15T08:35:21.685Z</time>
      </trkpt>
      <trkpt lat="45.9828" lon="6.3755">
        <ele>1194.619995</ele>
        <time>2018-06-15T08:35:38.751Z</time>
      </trkpt>
      <trkpt lat="45.98278" lon="6.37549">
        <ele>1195.48999</ele>
        <time>2018-06-15T08:35:47.756Z</time>
      </trkpt>
      <trkpt lat="45.98281" lon="6.37545">
        <ele>1196.099976</ele>
        <time>2018-06-15T08:35:57.742Z</time>
      </trkpt>
      <trkpt lat="45.98284" lon="6.3754">
        <ele>1195.969971</ele>
        <time>2018-06-15T08:36:06.757Z</time>
      </trkpt>
      <trkpt lat="45.98284" lon="6.37528">
        <ele>1196.299927</ele>
        <time>2018-06-15T08:36:16.766Z</time>
      </trkpt>
      <trkpt lat="45.98282" lon="6.37524">
        <ele>1197.660034</ele>
        <time>2018-06-15T08:36:26.695Z</time>
      </trkpt>
      <trkpt lat="45.98286" lon="6.37519">
        <ele>1199.440063</ele>
        <time>2018-06-15T08:36:35.725Z</time>
      </trkpt>
      <trkpt lat="45.98287" lon="6.37517">
        <ele>1202.72998</ele>
        <time>2018-06-15T08:36:45.680Z</time>
      </trkpt>
      <trkpt lat="45.98282" lon="6.375">
        <ele>1203.540039</ele>
        <time>2018-06-15T08:36:55.648Z</time>
      </trkpt>
      <trkpt lat="45.98283" lon="6.37484">
        <ele>1205</ele>
        <time>2018-06-15T08:37:04.690Z</time>
      </trkpt>
      <trkpt lat="45.98288" lon="6.37473">
        <ele>1208.570068</ele>
        <time>2018-06-15T08:37:14.712Z</time>
      </trkpt>
      <trkpt lat="45.98298" lon="6.37464">
        <ele>1209.189941</ele>
        <time>2018-06-15T08:37:24.672Z</time>
      </trkpt>
      <trkpt lat="45.98311" lon="6.37458">
        <ele>1209.849976</ele>
        <time>2018-06-15T08:37:33.746Z</time>
      </trkpt>
      <trkpt lat="45.98307" lon="6.37451">
        <ele>1210.089966</ele>
        <time>2018-06-15T08:37:43.774Z</time>
      </trkpt>
      <trkpt lat="45.98312" lon="6.37449">
        <ele>1209.950073</ele>
        <time>2018-06-15T08:37:55.699Z</time>
      </trkpt>
      <trkpt lat="45.98323" lon="6.37439">
        <ele>1209.820068</ele>
        <time>2018-06-15T08:38:04.722Z</time>
      </trkpt>
      <trkpt lat="45.98324" lon="6.37432">
        <ele>1212.02002</ele>
        <time>2018-06-15T08:38:14.770Z</time>
      </trkpt>
      <trkpt lat="45.98318" lon="6.3742">
        <ele>1213.939941</ele>
        <time>2018-06-15T08:38:24.718Z</time>
      </trkpt>
      <trkpt lat="45.98308" lon="6.37417">
        <ele>1216.670044</ele>
        <time>2018-06-15T08:38:42.673Z</time>
      </trkpt>
      <trkpt lat="45.98314" lon="6.37417">
        <ele>1221.5</ele>
        <time>2018-06-15T08:38:59.861Z</time>
      </trkpt>
      <trkpt lat="45.98318" lon="6.37423">
        <ele>1224.359985</ele>
        <time>2018-06-15T08:39:09.670Z</time>
      </trkpt>
      <trkpt lat="45.98317" lon="6.37424">
        <ele>1224.169922</ele>
        <time>2018-06-15T08:39:19.741Z</time>
      </trkpt>
      <trkpt lat="45.98315" lon="6.37417">
        <ele>1221.349976</ele>
        <time>2018-06-15T08:39:32.670Z</time>
      </trkpt>
      <trkpt lat="45.98323" lon="6.37395">
        <ele>1210.589966</ele>
        <time>2018-06-15T08:39:51.773Z</time>
      </trkpt>
      <trkpt lat="45.98336" lon="6.37404">
        <ele>1208.400024</ele>
        <time>2018-06-15T08:40:01.639Z</time>
      </trkpt>
      <trkpt lat="45.98344" lon="6.37411">
        <ele>1218.939941</ele>
        <time>2018-06-15T08:40:10.672Z</time>
      </trkpt>
      <trkpt lat="45.98344" lon="6.37413">
        <ele>1221.700073</ele>
        <time>2018-06-15T08:40:20.691Z</time>
      </trkpt>
      <trkpt lat="45.98347" lon="6.37413">
        <ele>1223.599976</ele>
        <time>2018-06-15T08:40:30.613Z</time>
      </trkpt>
      <trkpt lat="45.98343" lon="6.37408">
        <ele>1222.849976</ele>
        <time>2018-06-15T08:40:47.804Z</time>
      </trkpt>
      <trkpt lat="45.98341" lon="6.37407">
        <ele>1224.200073</ele>
        <time>2018-06-15T08:40:57.624Z</time>
      </trkpt>
      <trkpt lat="45.98342" lon="6.37408">
        <ele>1226.660034</ele>
        <time>2018-06-15T08:41:44.697Z</time>
      </trkpt>
      <trkpt lat="45.98333" lon="6.37416">
        <ele>1224.97998</ele>
        <time>2018-06-15T08:43:25.713Z</time>
      </trkpt>
      <trkpt lat="45.98329" lon="6.37413">
        <ele>1224.780029</ele>
        <time>2018-06-15T08:44:06.708Z</time>
      </trkpt>
      <trkpt lat="45.9833" lon="6.37412">
        <ele>1225.140015</ele>
        <time>2018-06-15T08:44:16.674Z</time>
      </trkpt>
      <trkpt lat="45.98328" lon="6.37413">
        <ele>1226.199951</ele>
        <time>2018-06-15T08:44:26.615Z</time>
      </trkpt>
      <trkpt lat="45.98326" lon="6.37413">
        <ele>1226.119995</ele>
        <time>2018-06-15T08:44:48.690Z</time>
      </trkpt>
      <trkpt lat="45.98327" lon="6.37413">
        <ele>1227.200073</ele>
        <time>2018-06-15T08:44:58.636Z</time>
      </trkpt>
      <trkpt lat="45.98326" lon="6.3741">
        <ele>1228.400024</ele>
        <time>2018-06-15T08:45:13.700Z</time>
      </trkpt>
      <trkpt lat="45.98323" lon="6.37409">
        <ele>1228.699951</ele>
        <time>2018-06-15T08:45:23.565Z</time>
      </trkpt>
      <trkpt lat="45.98309" lon="6.37401">
        <ele>1228.329956</ele>
        <time>2018-06-15T08:45:32.712Z</time>
      </trkpt>
      <trkpt lat="45.98309" lon="6.37399">
        <ele>1230.550049</ele>
        <time>2018-06-15T08:45:41.781Z</time>
      </trkpt>
      <trkpt lat="45.98317" lon="6.37396">
        <ele>1231.76001</ele>
        <time>2018-06-15T08:45:51.717Z</time>
      </trkpt>
      <trkpt lat="45.98322" lon="6.37383">
        <ele>1231.27002</ele>
        <time>2018-06-15T08:46:01.696Z</time>
      </trkpt>
      <trkpt lat="45.98325" lon="6.37379">
        <ele>1230.960083</ele>
        <time>2018-06-15T08:46:10.866Z</time>
      </trkpt>
      <trkpt lat="45.9833" lon="6.37377">
        <ele>1231.659912</ele>
        <time>2018-06-15T08:46:20.739Z</time>
      </trkpt>
      <trkpt lat="45.98341" lon="6.37371">
        <ele>1232.48999</ele>
        <time>2018-06-15T08:46:30.604Z</time>
      </trkpt>
      <trkpt lat="45.98352" lon="6.37368">
        <ele>1232.349976</ele>
        <time>2018-06-15T08:46:40.062Z</time>
      </trkpt>
      <trkpt lat="45.98351" lon="6.37363">
        <ele>1232.300049</ele>
        <time>2018-06-15T08:46:49.595Z</time>
      </trkpt>
      <trkpt lat="45.98355" lon="6.37357">
        <ele>1232.359985</ele>
        <time>2018-06-15T08:46:58.663Z</time>
      </trkpt>
      <trkpt lat="45.98364" lon="6.37354">
        <ele>1234.579956</ele>
        <time>2018-06-15T08:47:07.727Z</time>
      </trkpt>
      <trkpt lat="45.98366" lon="6.37355">
        <ele>1234.5</ele>
        <time>2018-06-15T08:47:17.869Z</time>
      </trkpt>
      <trkpt lat="45.98361" lon="6.3736">
        <ele>1231.569946</ele>
        <time>2018-06-15T08:47:47.813Z</time>
      </trkpt>
      <trkpt lat="45.98362" lon="6.37364">
        <ele>1229.650024</ele>
        <time>2018-06-15T08:48:03.720Z</time>
      </trkpt>
      <trkpt lat="45.98364" lon="6.37367">
        <ele>1230.099976</ele>
        <time>2018-06-15T08:48:13.630Z</time>
      </trkpt>
      <trkpt lat="45.98361" lon="6.37363">
        <ele>1232.27002</ele>
        <time>2018-06-15T08:49:20.622Z</time>
      </trkpt>
      <trkpt lat="45.98362" lon="6.3736">
        <ele>1233.310059</ele>
        <time>2018-06-15T08:49:29.719Z</time>
      </trkpt>
      <trkpt lat="45.98363" lon="6.37363">
        <ele>1233.700073</ele>
        <time>2018-06-15T08:49:39.615Z</time>
      </trkpt>
      <trkpt lat="45.98363" lon="6.3736">
        <ele>1235.040039</ele>
        <time>2018-06-15T08:49:48.708Z</time>
      </trkpt>
      <trkpt lat="45.98362" lon="6.3736">
        <ele>1235.199951</ele>
        <time>2018-06-15T08:49:58.639Z</time>
      </trkpt>
      <trkpt lat="45.98362" lon="6.37368">
        <ele>1236.47998</ele>
        <time>2018-06-15T08:50:16.703Z</time>
      </trkpt>
      <trkpt lat="45.98362" lon="6.3737">
        <ele>1237</ele>
        <time>2018-06-15T08:50:26.650Z</time>
      </trkpt>
      <trkpt lat="45.98363" lon="6.37369">
        <ele>1236.900024</ele>
        <time>2018-06-15T08:50:36.626Z</time>
      </trkpt>
      <trkpt lat="45.98368" lon="6.37373">
        <ele>1238.549927</ele>
        <time>2018-06-15T08:51:38.682Z</time>
      </trkpt>
      <trkpt lat="45.98367" lon="6.37374">
        <ele>1239.599976</ele>
        <time>2018-06-15T08:51:48.645Z</time>
      </trkpt>
      <trkpt lat="45.98358" lon="6.37374">
        <ele>1240.719971</ele>
        <time>2018-06-15T08:52:39.640Z</time>
      </trkpt>
      <trkpt lat="45.98356" lon="6.37373">
        <ele>1240.900024</ele>
        <time>2018-06-15T08:52:49.628Z</time>
      </trkpt>
      <trkpt lat="45.98353" lon="6.37372">
        <ele>1239.030029</ele>
        <time>2018-06-15T08:53:39.675Z</time>
      </trkpt>
      <trkpt lat="45.98352" lon="6.37372">
        <ele>1239.299927</ele>
        <time>2018-06-15T08:53:49.876Z</time>
      </trkpt>
      <trkpt lat="45.98358" lon="6.37372">
        <ele>1240.5</ele>
        <time>2018-06-15T08:54:41.749Z</time>
      </trkpt>
      <trkpt lat="45.98361" lon="6.37357">
        <ele>1241.23999</ele>
        <time>2018-06-15T08:54:51.674Z</time>
      </trkpt>
      <trkpt lat="45.98356" lon="6.37338">
        <ele>1240.829956</ele>
        <time>2018-06-15T08:55:01.656Z</time>
      </trkpt>
      <trkpt lat="45.98357" lon="6.37326">
        <ele>1240.969971</ele>
        <time>2018-06-15T08:55:10.700Z</time>
      </trkpt>
      <trkpt lat="45.98367" lon="6.37322">
        <ele>1241.400024</ele>
        <time>2018-06-15T08:55:20.663Z</time>
      </trkpt>
      <trkpt lat="45.98371" lon="6.37316">
        <ele>1241.670044</ele>
        <time>2018-06-15T08:55:30.679Z</time>
      </trkpt>
      <trkpt lat="45.98378" lon="6.3732">
        <ele>1242.5</ele>
        <time>2018-06-15T08:55:40.565Z</time>
      </trkpt>
      <trkpt lat="45.9837" lon="6.3732">
        <ele>1247</ele>
        <time>2018-06-15T08:56:39.692Z</time>
      </trkpt>
      <trkpt lat="45.98372" lon="6.37305">
        <ele>1246.349976</ele>
        <time>2018-06-15T08:56:49.749Z</time>
      </trkpt>
      <trkpt lat="45.98372" lon="6.37294">
        <ele>1245.599976</ele>
        <time>2018-06-15T08:56:58.752Z</time>
      </trkpt>
      <trkpt lat="45.9837" lon="6.37286">
        <ele>1244.890015</ele>
        <time>2018-06-15T08:57:08.690Z</time>
      </trkpt>
      <trkpt lat="45.98369" lon="6.37277">
        <ele>1244.25</ele>
        <time>2018-06-15T08:57:17.720Z</time>
      </trkpt>
      <trkpt lat="45.98374" lon="6.37272">
        <ele>1244.099976</ele>
        <time>2018-06-15T08:57:27.677Z</time>
      </trkpt>
      <trkpt lat="45.98374" lon="6.37261">
        <ele>1243.680054</ele>
        <time>2018-06-15T08:57:37.653Z</time>
      </trkpt>
      <trkpt lat="45.98371" lon="6.37256">
        <ele>1244</ele>
        <time>2018-06-15T08:57:46.679Z</time>
      </trkpt>
      <trkpt lat="45.98367" lon="6.37251">
        <ele>1244</ele>
        <time>2018-06-15T08:57:55.682Z</time>
      </trkpt>
      <trkpt lat="45.98367" lon="6.37246">
        <ele>1244.320068</ele>
        <time>2018-06-15T08:58:05.674Z</time>
      </trkpt>
      <trkpt lat="45.98368" lon="6.37251">
        <ele>1247.25</ele>
        <time>2018-06-15T08:58:24.722Z</time>
      </trkpt>
      <trkpt lat="45.98373" lon="6.37249">
        <ele>1250.180054</ele>
        <time>2018-06-15T08:58:34.608Z</time>
      </trkpt>
      <trkpt lat="45.98372" lon="6.37247">
        <ele>1252.640015</ele>
        <time>2018-06-15T08:58:43.678Z</time>
      </trkpt>
      <trkpt lat="45.98379" lon="6.37246">
        <ele>1254.689941</ele>
        <time>2018-06-15T08:58:52.699Z</time>
      </trkpt>
      <trkpt lat="45.98374" lon="6.37247">
        <ele>1255.52002</ele>
        <time>2018-06-15T08:59:02.699Z</time>
      </trkpt>
      <trkpt lat="45.98375" lon="6.37254">
        <ele>1256.949951</ele>
        <time>2018-06-15T08:59:14.599Z</time>
      </trkpt>
      <trkpt lat="45.9838" lon="6.3726">
        <ele>1257.97998</ele>
        <time>2018-06-15T08:59:23.814Z</time>
      </trkpt>
      <trkpt lat="45.98385" lon="6.37269">
        <ele>1258.299927</ele>
        <time>2018-06-15T08:59:33.624Z</time>
      </trkpt>
      <trkpt lat="45.98386" lon="6.3728">
        <ele>1259.51001</ele>
        <time>2018-06-15T08:59:43.615Z</time>
      </trkpt>
      <trkpt lat="45.98387" lon="6.37288">
        <ele>1258.840088</ele>
        <time>2018-06-15T08:59:52.897Z</time>
      </trkpt>
      <trkpt lat="45.98385" lon="6.37293">
        <ele>1260.039917</ele>
        <time>2018-06-15T09:00:02.595Z</time>
      </trkpt>
      <trkpt lat="45.98388" lon="6.37295">
        <ele>1261.029907</ele>
        <time>2018-06-15T09:00:11.694Z</time>
      </trkpt>
      <trkpt lat="45.9839" lon="6.37296">
        <ele>1261.350098</ele>
        <time>2018-06-15T09:00:51.625Z</time>
      </trkpt>
      <trkpt lat="45.98388" lon="6.37299">
        <ele>1262.069946</ele>
        <time>2018-06-15T09:01:00.627Z</time>
      </trkpt>
      <trkpt lat="45.98382" lon="6.37303">
        <ele>1262.420044</ele>
        <time>2018-06-15T09:01:09.784Z</time>
      </trkpt>
      <trkpt lat="45.98388" lon="6.37307">
        <ele>1261.649902</ele>
        <time>2018-06-15T09:01:19.641Z</time>
      </trkpt>
      <trkpt lat="45.98394" lon="6.37307">
        <ele>1262.73999</ele>
        <time>2018-06-15T09:01:28.644Z</time>
      </trkpt>
      <trkpt lat="45.98398" lon="6.37308">
        <ele>1263.5</ele>
        <time>2018-06-15T09:01:38.562Z</time>
      </trkpt>
      <trkpt lat="45.98397" lon="6.37312">
        <ele>1264.390015</ele>
        <time>2018-06-15T09:01:47.615Z</time>
      </trkpt>
      <trkpt lat="45.98402" lon="6.37314">
        <ele>1265.170044</ele>
        <time>2018-06-15T09:01:56.666Z</time>
      </trkpt>
      <trkpt lat="45.98398" lon="6.37317">
        <ele>1266.570068</ele>
        <time>2018-06-15T09:02:05.797Z</time>
      </trkpt>
      <trkpt lat="45.98398" lon="6.37316">
        <ele>1267.499878</ele>
        <time>2018-06-15T09:02:17.763Z</time>
      </trkpt>
      <trkpt lat="45.98402" lon="6.37314">
        <ele>1267.040039</ele>
        <time>2018-06-15T09:02:27.779Z</time>
      </trkpt>
      <trkpt lat="45.98398" lon="6.37322">
        <ele>1267.930054</ele>
        <time>2018-06-15T09:02:37.663Z</time>
      </trkpt>
      <trkpt lat="45.98396" lon="6.37332">
        <ele>1265.519897</ele>
        <time>2018-06-15T09:02:47.683Z</time>
      </trkpt>
      <trkpt lat="45.98395" lon="6.37342">
        <ele>1266.050049</ele>
        <time>2018-06-15T09:02:56.761Z</time>
      </trkpt>
      <trkpt lat="45.98403" lon="6.37357">
        <ele>1267.73999</ele>
        <time>2018-06-15T09:03:06.675Z</time>
      </trkpt>
      <trkpt lat="45.98406" lon="6.37364">
        <ele>1266.709961</ele>
        <time>2018-06-15T09:03:16.595Z</time>
      </trkpt>
      <trkpt lat="45.98406" lon="6.37369">
        <ele>1267.670044</ele>
        <time>2018-06-15T09:03:25.680Z</time>
      </trkpt>
      <trkpt lat="45.98406" lon="6.37373">
        <ele>1269.5</ele>
        <time>2018-06-15T09:03:35.643Z</time>
      </trkpt>
      <trkpt lat="45.984" lon="6.37375">
        <ele>1272.470093</ele>
        <time>2018-06-15T09:03:44.692Z</time>
      </trkpt>
      <trkpt lat="45.98412" lon="6.3738">
        <ele>1274.469971</ele>
        <time>2018-06-15T09:03:54.676Z</time>
      </trkpt>
      <trkpt lat="45.98414" lon="6.37382">
        <ele>1274.500122</ele>
        <time>2018-06-15T09:04:04.640Z</time>
      </trkpt>
      <trkpt lat="45.98413" lon="6.37383">
        <ele>1275.700073</ele>
        <time>2018-06-15T09:04:33.618Z</time>
      </trkpt>
      <trkpt lat="45.98406" lon="6.37387">
        <ele>1276.700073</ele>
        <time>2018-06-15T09:04:42.655Z</time>
      </trkpt>
      <trkpt lat="45.98398" lon="6.37396">
        <ele>1277.160034</ele>
        <time>2018-06-15T09:04:51.745Z</time>
      </trkpt>
      <trkpt lat="45.98398" lon="6.37409">
        <ele>1277.75</ele>
        <time>2018-06-15T09:05:01.711Z</time>
      </trkpt>
      <trkpt lat="45.98407" lon="6.37422">
        <ele>1278.449951</ele>
        <time>2018-06-15T09:05:11.747Z</time>
      </trkpt>
      <trkpt lat="45.98412" lon="6.37425">
        <ele>1280.099976</ele>
        <time>2018-06-15T09:05:21.665Z</time>
      </trkpt>
      <trkpt lat="45.98421" lon="6.37436">
        <ele>1280.25</ele>
        <time>2018-06-15T09:05:35.721Z</time>
      </trkpt>
      <trkpt lat="45.98427" lon="6.37433">
        <ele>1281.650024</ele>
        <time>2018-06-15T09:05:45.660Z</time>
      </trkpt>
      <trkpt lat="45.98404" lon="6.37432">
        <ele>1282.159912</ele>
        <time>2018-06-15T09:05:55.619Z</time>
      </trkpt>
      <trkpt lat="45.984" lon="6.37434">
        <ele>1282.099976</ele>
        <time>2018-06-15T09:06:05.542Z</time>
      </trkpt>
      <trkpt lat="45.98398" lon="6.37439">
        <ele>1280.699951</ele>
        <time>2018-06-15T09:06:14.573Z</time>
      </trkpt>
      <trkpt lat="45.98401" lon="6.37444">
        <ele>1280.849976</ele>
        <time>2018-06-15T09:06:24.693Z</time>
      </trkpt>
      <trkpt lat="45.98402" lon="6.37441">
        <ele>1280.500122</ele>
        <time>2018-06-15T09:06:34.628Z</time>
      </trkpt>
      <trkpt lat="45.98401" lon="6.37437">
        <ele>1282.159912</ele>
        <time>2018-06-15T09:06:44.616Z</time>
      </trkpt>
      <trkpt lat="45.98401" lon="6.37433">
        <ele>1283.099976</ele>
        <time>2018-06-15T09:07:10.650Z</time>
      </trkpt>
      <trkpt lat="45.984" lon="6.37435">
        <ele>1282.949951</ele>
        <time>2018-06-15T09:07:23.741Z</time>
      </trkpt>
      <trkpt lat="45.98399" lon="6.37428">
        <ele>1282.700073</ele>
        <time>2018-06-15T09:07:33.629Z</time>
      </trkpt>
      <trkpt lat="45.984" lon="6.3743">
        <ele>1283.199951</ele>
        <time>2018-06-15T09:07:43.673Z</time>
      </trkpt>
      <trkpt lat="45.98407" lon="6.37436">
        <ele>1270</ele>
        <time>2018-06-15T09:08:49.553Z</time>
      </trkpt>
      <trkpt lat="45.98408" lon="6.37439">
        <ele>1266.97998</ele>
        <time>2018-06-15T09:08:58.768Z</time>
      </trkpt>
      <trkpt lat="45.98407" lon="6.37431">
        <ele>1270.599976</ele>
        <time>2018-06-15T09:09:08.688Z</time>
      </trkpt>
      <trkpt lat="45.98408" lon="6.3743">
        <ele>1271.199951</ele>
        <time>2018-06-15T09:09:18.546Z</time>
      </trkpt>
      <trkpt lat="45.98403" lon="6.37426">
        <ele>1274.200073</ele>
        <time>2018-06-15T09:10:29.695Z</time>
      </trkpt>
      <trkpt lat="45.984" lon="6.3743">
        <ele>1274.22998</ele>
        <time>2018-06-15T09:11:53.742Z</time>
      </trkpt>
      <trkpt lat="45.98402" lon="6.37435">
        <ele>1273.670044</ele>
        <time>2018-06-15T09:12:06.731Z</time>
      </trkpt>
      <trkpt lat="45.98401" lon="6.37432">
        <ele>1273.380005</ele>
        <time>2018-06-15T09:12:18.657Z</time>
      </trkpt>
      <trkpt lat="45.98402" lon="6.37432">
        <ele>1273.350098</ele>
        <time>2018-06-15T09:12:28.667Z</time>
      </trkpt>
      <trkpt lat="45.98404" lon="6.37426">
        <ele>1277.049927</ele>
        <time>2018-06-15T09:12:42.817Z</time>
      </trkpt>
      <trkpt lat="45.98405" lon="6.37425">
        <ele>1276.51001</ele>
        <time>2018-06-15T09:12:52.514Z</time>
      </trkpt>
      <trkpt lat="45.98402" lon="6.37426">
        <ele>1275.970093</ele>
        <time>2018-06-15T09:13:05.606Z</time>
      </trkpt>
      <trkpt lat="45.984" lon="6.37434">
        <ele>1272.830078</ele>
        <time>2018-06-15T09:13:50.726Z</time>
      </trkpt>
      <trkpt lat="45.98401" lon="6.37436">
        <ele>1272.100098</ele>
        <time>2018-06-15T09:13:59.765Z</time>
      </trkpt>
      <trkpt lat="45.984" lon="6.37434">
        <ele>1273.369995</ele>
        <time>2018-06-15T09:14:13.700Z</time>
      </trkpt>
      <trkpt lat="45.98401" lon="6.37432">
        <ele>1272.800049</ele>
        <time>2018-06-15T09:14:23.708Z</time>
      </trkpt>
      <trkpt lat="45.98403" lon="6.37429">
        <ele>1274.219971</ele>
        <time>2018-06-15T09:14:50.812Z</time>
      </trkpt>
      <trkpt lat="45.98406" lon="6.37431">
        <ele>1275.199951</ele>
        <time>2018-06-15T09:15:00.688Z</time>
      </trkpt>
      <trkpt lat="45.98406" lon="6.3743">
        <ele>1275.300049</ele>
        <time>2018-06-15T09:15:10.558Z</time>
      </trkpt>
      <trkpt lat="45.98406" lon="6.37422">
        <ele>1275.660034</ele>
        <time>2018-06-15T09:15:19.714Z</time>
      </trkpt>
      <trkpt lat="45.98406" lon="6.37421">
        <ele>1275.650024</ele>
        <time>2018-06-15T09:15:29.917Z</time>
      </trkpt>
      <trkpt lat="45.98404" lon="6.37419">
        <ele>1275.51001</ele>
        <time>2018-06-15T09:15:39.753Z</time>
      </trkpt>
      <trkpt lat="45.98403" lon="6.37427">
        <ele>1276.400024</ele>
        <time>2018-06-15T09:16:03.782Z</time>
      </trkpt>
      <trkpt lat="45.98401" lon="6.37425">
        <ele>1277.700073</ele>
        <time>2018-06-15T09:16:13.866Z</time>
      </trkpt>
      <trkpt lat="45.984" lon="6.37423">
        <ele>1278.100098</ele>
        <time>2018-06-15T09:16:23.645Z</time>
      </trkpt>
      <trkpt lat="45.984" lon="6.37426">
        <ele>1279.530029</ele>
        <time>2018-06-15T09:16:32.716Z</time>
      </trkpt>
      <trkpt lat="45.98404" lon="6.37427">
        <ele>1281.679932</ele>
        <time>2018-06-15T09:16:42.683Z</time>
      </trkpt>
      <trkpt lat="45.98402" lon="6.37426">
        <ele>1286.300049</ele>
        <time>2018-06-15T09:17:01.809Z</time>
      </trkpt>
      <trkpt lat="45.98403" lon="6.37426">
        <ele>1287.670044</ele>
        <time>2018-06-15T09:17:15.773Z</time>
      </trkpt>
      <trkpt lat="45.98407" lon="6.37425">
        <ele>1288.5</ele>
        <time>2018-06-15T09:17:24.833Z</time>
      </trkpt>
      <trkpt lat="45.9841" lon="6.37428">
        <ele>1288.77002</ele>
        <time>2018-06-15T09:17:34.598Z</time>
      </trkpt>
      <trkpt lat="45.98413" lon="6.37423">
        <ele>1289.02002</ele>
        <time>2018-06-15T09:17:43.712Z</time>
      </trkpt>
      <trkpt lat="45.9842" lon="6.37418">
        <ele>1287.98999</ele>
        <time>2018-06-15T09:17:53.749Z</time>
      </trkpt>
      <trkpt lat="45.98426" lon="6.37409">
        <ele>1286.709961</ele>
        <time>2018-06-15T09:18:03.733Z</time>
      </trkpt>
      <trkpt lat="45.98432" lon="6.37406">
        <ele>1287.699951</ele>
        <time>2018-06-15T09:18:13.669Z</time>
      </trkpt>
      <trkpt lat="45.9843" lon="6.37402">
        <ele>1288.269897</ele>
        <time>2018-06-15T09:18:22.754Z</time>
      </trkpt>
      <trkpt lat="45.98424" lon="6.37401">
        <ele>1288.899902</ele>
        <time>2018-06-15T09:18:32.746Z</time>
      </trkpt>
      <trkpt lat="45.98428" lon="6.37384">
        <ele>1287.810059</ele>
        <time>2018-06-15T09:18:42.703Z</time>
      </trkpt>
      <trkpt lat="45.98427" lon="6.3737">
        <ele>1289.27002</ele>
        <time>2018-06-15T09:18:51.723Z</time>
      </trkpt>
      <trkpt lat="45.98427" lon="6.37353">
        <ele>1288.469971</ele>
        <time>2018-06-15T09:19:01.723Z</time>
      </trkpt>
      <trkpt lat="45.98424" lon="6.3734">
        <ele>1290.25</ele>
        <time>2018-06-15T09:19:11.713Z</time>
      </trkpt>
      <trkpt lat="45.98425" lon="6.37338">
        <ele>1291.699951</ele>
        <time>2018-06-15T09:19:21.623Z</time>
      </trkpt>
      <trkpt lat="45.98427" lon="6.37329">
        <ele>1291.100098</ele>
        <time>2018-06-15T09:21:50.710Z</time>
      </trkpt>
      <trkpt lat="45.98429" lon="6.37322">
        <ele>1291.690063</ele>
        <time>2018-06-15T09:22:00.701Z</time>
      </trkpt>
      <trkpt lat="45.98432" lon="6.37319">
        <ele>1292.369995</ele>
        <time>2018-06-15T09:22:09.781Z</time>
      </trkpt>
      <trkpt lat="45.98436" lon="6.37315">
        <ele>1292.98999</ele>
        <time>2018-06-15T09:22:19.717Z</time>
      </trkpt>
      <trkpt lat="45.9844" lon="6.3731">
        <ele>1293.300049</ele>
        <time>2018-06-15T09:22:28.729Z</time>
      </trkpt>
      <trkpt lat="45.98444" lon="6.37304">
        <ele>1294.089966</ele>
        <time>2018-06-15T09:22:38.739Z</time>
      </trkpt>
      <trkpt lat="45.98445" lon="6.37296">
        <ele>1293.22998</ele>
        <time>2018-06-15T09:22:47.765Z</time>
      </trkpt>
      <trkpt lat="45.98446" lon="6.37288">
        <ele>1292.660034</ele>
        <time>2018-06-15T09:22:57.709Z</time>
      </trkpt>
      <trkpt lat="45.98445" lon="6.37281">
        <ele>1292.329956</ele>
        <time>2018-06-15T09:23:06.741Z</time>
      </trkpt>
      <trkpt lat="45.98445" lon="6.37272">
        <ele>1292.709961</ele>
        <time>2018-06-15T09:23:16.661Z</time>
      </trkpt>
      <trkpt lat="45.98441" lon="6.37262">
        <ele>1293.52002</ele>
        <time>2018-06-15T09:23:25.674Z</time>
      </trkpt>
      <trkpt lat="45.9844" lon="6.37252">
        <ele>1293.970093</ele>
        <time>2018-06-15T09:23:35.697Z</time>
      </trkpt>
      <trkpt lat="45.98438" lon="6.37251">
        <ele>1296.349976</ele>
        <time>2018-06-15T09:24:02.725Z</time>
      </trkpt>
      <trkpt lat="45.98438" lon="6.37249">
        <ele>1298.310059</ele>
        <time>2018-06-15T09:24:12.723Z</time>
      </trkpt>
      <trkpt lat="45.98435" lon="6.37249">
        <ele>1299</ele>
        <time>2018-06-15T09:24:22.611Z</time>
      </trkpt>
      <trkpt lat="45.98432" lon="6.37252">
        <ele>1299.450073</ele>
        <time>2018-06-15T09:24:53.713Z</time>
      </trkpt>
      <trkpt lat="45.98435" lon="6.37247">
        <ele>1300.190063</ele>
        <time>2018-06-15T09:25:02.734Z</time>
      </trkpt>
      <trkpt lat="45.98437" lon="6.37248">
        <ele>1299.859985</ele>
        <time>2018-06-15T09:25:11.739Z</time>
      </trkpt>
      <trkpt lat="45.98436" lon="6.37235">
        <ele>1289.5</ele>
        <time>2018-06-15T09:26:34.683Z</time>
      </trkpt>
      <trkpt lat="45.98435" lon="6.37235">
        <ele>1287.899902</ele>
        <time>2018-06-15T09:26:44.691Z</time>
      </trkpt>
      <trkpt lat="45.98436" lon="6.37238">
        <ele>1287.300049</ele>
        <time>2018-06-15T09:27:38.730Z</time>
      </trkpt>
      <trkpt lat="45.9844" lon="6.37238">
        <ele>1288.340088</ele>
        <time>2018-06-15T09:27:48.698Z</time>
      </trkpt>
      <trkpt lat="45.98441" lon="6.37238">
        <ele>1289</ele>
        <time>2018-06-15T09:27:57.699Z</time>
      </trkpt>
      <trkpt lat="45.98448" lon="6.37234">
        <ele>1291.170044</ele>
        <time>2018-06-15T09:28:06.781Z</time>
      </trkpt>
      <trkpt lat="45.98451" lon="6.37232">
        <ele>1292</ele>
        <time>2018-06-15T09:28:16.624Z</time>
      </trkpt>
      <trkpt lat="45.98455" lon="6.37224">
        <ele>1294.51001</ele>
        <time>2018-06-15T09:28:25.718Z</time>
      </trkpt>
      <trkpt lat="45.98457" lon="6.37214">
        <ele>1294.76001</ele>
        <time>2018-06-15T09:28:34.721Z</time>
      </trkpt>
      <trkpt lat="45.9846" lon="6.37205">
        <ele>1295.330078</ele>
        <time>2018-06-15T09:28:44.690Z</time>
      </trkpt>
      <trkpt lat="45.98462" lon="6.37198">
        <ele>1296.470093</ele>
        <time>2018-06-15T09:28:54.668Z</time>
      </trkpt>
      <trkpt lat="45.98462" lon="6.37193">
        <ele>1299.369995</ele>
        <time>2018-06-15T09:29:03.789Z</time>
      </trkpt>
      <trkpt lat="45.98464" lon="6.37187">
        <ele>1299.880005</ele>
        <time>2018-06-15T09:29:13.657Z</time>
      </trkpt>
      <trkpt lat="45.98465" lon="6.3718">
        <ele>1302.330078</ele>
        <time>2018-06-15T09:29:22.763Z</time>
      </trkpt>
      <trkpt lat="45.98466" lon="6.37171">
        <ele>1302.459961</ele>
        <time>2018-06-15T09:29:32.782Z</time>
      </trkpt>
      <trkpt lat="45.9847" lon="6.37169">
        <ele>1305.369995</ele>
        <time>2018-06-15T09:29:42.628Z</time>
      </trkpt>
      <trkpt lat="45.9847" lon="6.37166">
        <ele>1310.620117</ele>
        <time>2018-06-15T09:29:51.698Z</time>
      </trkpt>
      <trkpt lat="45.98474" lon="6.37162">
        <ele>1311.350098</ele>
        <time>2018-06-15T09:30:00.704Z</time>
      </trkpt>
      <trkpt lat="45.98478" lon="6.37151">
        <ele>1311.329956</ele>
        <time>2018-06-15T09:30:09.945Z</time>
      </trkpt>
      <trkpt lat="45.9848" lon="6.37142">
        <ele>1311.47998</ele>
        <time>2018-06-15T09:30:19.651Z</time>
      </trkpt>
      <trkpt lat="45.9848" lon="6.37141">
        <ele>1311.560059</ele>
        <time>2018-06-15T09:30:32.707Z</time>
      </trkpt>
      <trkpt lat="45.9848" lon="6.37136">
        <ele>1313.859985</ele>
        <time>2018-06-15T09:30:42.688Z</time>
      </trkpt>
      <trkpt lat="45.98477" lon="6.37133">
        <ele>1315.280029</ele>
        <time>2018-06-15T09:30:52.724Z</time>
      </trkpt>
      <trkpt lat="45.98473" lon="6.37138">
        <ele>1315.829956</ele>
        <time>2018-06-15T09:31:31.690Z</time>
      </trkpt>
      <trkpt lat="45.98468" lon="6.37132">
        <ele>1317.25</ele>
        <time>2018-06-15T09:31:41.701Z</time>
      </trkpt>
      <trkpt lat="45.98466" lon="6.37127">
        <ele>1317.499878</ele>
        <time>2018-06-15T09:31:50.770Z</time>
      </trkpt>
      <trkpt lat="45.98466" lon="6.37114">
        <ele>1314.929932</ele>
        <time>2018-06-15T09:31:59.780Z</time>
      </trkpt>
      <trkpt lat="45.98466" lon="6.37101">
        <ele>1313.689941</ele>
        <time>2018-06-15T09:32:09.710Z</time>
      </trkpt>
      <trkpt lat="45.98465" lon="6.37095">
        <ele>1313.540039</ele>
        <time>2018-06-15T09:32:18.734Z</time>
      </trkpt>
      <trkpt lat="45.98465" lon="6.37084">
        <ele>1313.330078</ele>
        <time>2018-06-15T09:32:28.689Z</time>
      </trkpt>
      <trkpt lat="45.98463" lon="6.37076">
        <ele>1313.949951</ele>
        <time>2018-06-15T09:32:37.751Z</time>
      </trkpt>
      <trkpt lat="45.98464" lon="6.37071">
        <ele>1313.5</ele>
        <time>2018-06-15T09:32:47.685Z</time>
      </trkpt>
      <trkpt lat="45.98463" lon="6.37069">
        <ele>1313.850098</ele>
        <time>2018-06-15T09:33:38.814Z</time>
      </trkpt>
      <trkpt lat="45.98462" lon="6.37063">
        <ele>1318.570068</ele>
        <time>2018-06-15T09:33:48.621Z</time>
      </trkpt>
      <trkpt lat="45.98466" lon="6.37056">
        <ele>1319.049927</ele>
        <time>2018-06-15T09:33:58.095Z</time>
      </trkpt>
      <trkpt lat="45.98467" lon="6.37048">
        <ele>1320.559937</ele>
        <time>2018-06-15T09:34:07.680Z</time>
      </trkpt>
      <trkpt lat="45.98467" lon="6.37046">
        <ele>1321.149902</ele>
        <time>2018-06-15T09:34:23.741Z</time>
      </trkpt>
      <trkpt lat="45.9847" lon="6.37034">
        <ele>1320.819946</ele>
        <time>2018-06-15T09:34:32.796Z</time>
      </trkpt>
      <trkpt lat="45.98471" lon="6.37026">
        <ele>1320.519897</ele>
        <time>2018-06-15T09:34:42.781Z</time>
      </trkpt>
      <trkpt lat="45.98475" lon="6.37019">
        <ele>1321.339966</ele>
        <time>2018-06-15T09:34:51.811Z</time>
      </trkpt>
      <trkpt lat="45.98476" lon="6.37012">
        <ele>1322.769897</ele>
        <time>2018-06-15T09:35:01.714Z</time>
      </trkpt>
      <trkpt lat="45.98472" lon="6.3701">
        <ele>1323.880005</ele>
        <time>2018-06-15T09:35:11.682Z</time>
      </trkpt>
      <trkpt lat="45.98476" lon="6.37002">
        <ele>1324.970093</ele>
        <time>2018-06-15T09:35:20.717Z</time>
      </trkpt>
      <trkpt lat="45.98477" lon="6.36994">
        <ele>1325.920044</ele>
        <time>2018-06-15T09:35:29.800Z</time>
      </trkpt>
      <trkpt lat="45.98478" lon="6.36992">
        <ele>1327.299927</ele>
        <time>2018-06-15T09:35:39.606Z</time>
      </trkpt>
      <trkpt lat="45.98476" lon="6.36993">
        <ele>1330.52002</ele>
        <time>2018-06-15T09:37:03.637Z</time>
      </trkpt>
      <trkpt lat="45.9848" lon="6.36978">
        <ele>1334.060059</ele>
        <time>2018-06-15T09:37:13.660Z</time>
      </trkpt>
      <trkpt lat="45.98486" lon="6.36968">
        <ele>1336</ele>
        <time>2018-06-15T09:37:22.765Z</time>
      </trkpt>
      <trkpt lat="45.98494" lon="6.36963">
        <ele>1338.459961</ele>
        <time>2018-06-15T09:37:32.690Z</time>
      </trkpt>
      <trkpt lat="45.98494" lon="6.36965">
        <ele>1340.099976</ele>
        <time>2018-06-15T09:37:42.575Z</time>
      </trkpt>
      <trkpt lat="45.98495" lon="6.36969">
        <ele>1342.23999</ele>
        <time>2018-06-15T09:37:51.931Z</time>
      </trkpt>
      <trkpt lat="45.98497" lon="6.36966">
        <ele>1343.389893</ele>
        <time>2018-06-15T09:38:01.648Z</time>
      </trkpt>
      <trkpt lat="45.98498" lon="6.36978">
        <ele>1344.829956</ele>
        <time>2018-06-15T09:38:42.770Z</time>
      </trkpt>
      <trkpt lat="45.98492" lon="6.36981">
        <ele>1347.509888</ele>
        <time>2018-06-15T09:38:52.768Z</time>
      </trkpt>
      <trkpt lat="45.98486" lon="6.36977">
        <ele>1354.720093</ele>
        <time>2018-06-15T09:39:59.702Z</time>
      </trkpt>
      <trkpt lat="45.9849" lon="6.36977">
        <ele>1361.069946</ele>
        <time>2018-06-15T09:40:14.929Z</time>
      </trkpt>
      <trkpt lat="45.98495" lon="6.3698">
        <ele>1363.529907</ele>
        <time>2018-06-15T09:40:24.652Z</time>
      </trkpt>
      <trkpt lat="45.98498" lon="6.36979">
        <ele>1361.369995</ele>
        <time>2018-06-15T09:40:33.730Z</time>
      </trkpt>
      <trkpt lat="45.98504" lon="6.36976">
        <ele>1361.77002</ele>
        <time>2018-06-15T09:40:43.774Z</time>
      </trkpt>
      <trkpt lat="45.98504" lon="6.36975">
        <ele>1362.099976</ele>
        <time>2018-06-15T09:40:53.599Z</time>
      </trkpt>
      <trkpt lat="45.98506" lon="6.36971">
        <ele>1362.77002</ele>
        <time>2018-06-15T09:41:03.766Z</time>
      </trkpt>
      <trkpt lat="45.98507" lon="6.36971">
        <ele>1362.200073</ele>
        <time>2018-06-15T09:41:13.569Z</time>
      </trkpt>
      <trkpt lat="45.98506" lon="6.3696">
        <ele>1356.569946</ele>
        <time>2018-06-15T09:41:41.600Z</time>
      </trkpt>
      <trkpt lat="45.98508" lon="6.36958">
        <ele>1355.570068</ele>
        <time>2018-06-15T09:41:50.636Z</time>
      </trkpt>
      <trkpt lat="45.98514" lon="6.36964">
        <ele>1356.949951</ele>
        <time>2018-06-15T09:42:17.638Z</time>
      </trkpt>
      <trkpt lat="45.98516" lon="6.36971">
        <ele>1360.609985</ele>
        <time>2018-06-15T09:42:26.698Z</time>
      </trkpt>
      <trkpt lat="45.98522" lon="6.3697">
        <ele>1363.670044</ele>
        <time>2018-06-15T09:42:36.668Z</time>
      </trkpt>
      <trkpt lat="45.98526" lon="6.36966">
        <ele>1366.549927</ele>
        <time>2018-06-15T09:42:45.706Z</time>
      </trkpt>
      <trkpt lat="45.9853" lon="6.36968">
        <ele>1372.179932</ele>
        <time>2018-06-15T09:42:55.637Z</time>
      </trkpt>
      <trkpt lat="45.98533" lon="6.36973">
        <ele>1377.700073</ele>
        <time>2018-06-15T09:43:04.802Z</time>
      </trkpt>
      <trkpt lat="45.98536" lon="6.36973">
        <ele>1382.419922</ele>
        <time>2018-06-15T09:43:14.728Z</time>
      </trkpt>
      <trkpt lat="45.9854" lon="6.36969">
        <ele>1384.869995</ele>
        <time>2018-06-15T09:43:24.645Z</time>
      </trkpt>
      <trkpt lat="45.98541" lon="6.36972">
        <ele>1387.140015</ele>
        <time>2018-06-15T09:43:33.699Z</time>
      </trkpt>
      <trkpt lat="45.98544" lon="6.36972">
        <ele>1391.460083</ele>
        <time>2018-06-15T09:43:42.717Z</time>
      </trkpt>
      <trkpt lat="45.98546" lon="6.36974">
        <ele>1394.710083</ele>
        <time>2018-06-15T09:43:51.777Z</time>
      </trkpt>
      <trkpt lat="45.9855" lon="6.36976">
        <ele>1395.290039</ele>
        <time>2018-06-15T09:44:01.723Z</time>
      </trkpt>
      <trkpt lat="45.98551" lon="6.36975">
        <ele>1396.349976</ele>
        <time>2018-06-15T09:44:18.636Z</time>
      </trkpt>
      <trkpt lat="45.98558" lon="6.36979">
        <ele>1398.560059</ele>
        <time>2018-06-15T09:44:27.747Z</time>
      </trkpt>
      <trkpt lat="45.98561" lon="6.36976">
        <ele>1399.839966</ele>
        <time>2018-06-15T09:44:37.796Z</time>
      </trkpt>
      <trkpt lat="45.98566" lon="6.36981">
        <ele>1402.130005</ele>
        <time>2018-06-15T09:44:47.669Z</time>
      </trkpt>
      <trkpt lat="45.98568" lon="6.36983">
        <ele>1402.599976</ele>
        <time>2018-06-15T09:44:57.683Z</time>
      </trkpt>
      <trkpt lat="45.9857" lon="6.36988">
        <ele>1408.299927</ele>
        <time>2018-06-15T09:45:27.853Z</time>
      </trkpt>
      <trkpt lat="45.98572" lon="6.36984">
        <ele>1410.200073</ele>
        <time>2018-06-15T09:45:37.600Z</time>
      </trkpt>
      <trkpt lat="45.98573" lon="6.36982">
        <ele>1409.149902</ele>
        <time>2018-06-15T09:46:13.709Z</time>
      </trkpt>
      <trkpt lat="45.98572" lon="6.3699">
        <ele>1406.560059</ele>
        <time>2018-06-15T09:46:23.625Z</time>
      </trkpt>
      <trkpt lat="45.98575" lon="6.3699">
        <ele>1397.809937</ele>
        <time>2018-06-15T09:46:32.751Z</time>
      </trkpt>
      <trkpt lat="45.98576" lon="6.3699">
        <ele>1395</ele>
        <time>2018-06-15T09:46:42.615Z</time>
      </trkpt>
      <trkpt lat="45.98586" lon="6.36986">
        <ele>1385.73999</ele>
        <time>2018-06-15T09:46:51.762Z</time>
      </trkpt>
      <trkpt lat="45.98596" lon="6.36978">
        <ele>1378.470093</ele>
        <time>2018-06-15T09:47:01.656Z</time>
      </trkpt>
      <trkpt lat="45.98599" lon="6.36973">
        <ele>1377.299927</ele>
        <time>2018-06-15T09:47:10.676Z</time>
      </trkpt>
      <trkpt lat="45.98601" lon="6.3697">
        <ele>1376.400024</ele>
        <time>2018-06-15T09:47:20.651Z</time>
      </trkpt>
      <trkpt lat="45.98605" lon="6.36971">
        <ele>1374.859985</ele>
        <time>2018-06-15T09:47:29.667Z</time>
      </trkpt>
      <trkpt lat="45.98612" lon="6.36965">
        <ele>1371.199951</ele>
        <time>2018-06-15T09:47:39.684Z</time>
      </trkpt>
      <trkpt lat="45.98612" lon="6.36958">
        <ele>1369.849976</ele>
        <time>2018-06-15T09:47:49.669Z</time>
      </trkpt>
      <trkpt lat="45.98618" lon="6.36954">
        <ele>1368.400024</ele>
        <time>2018-06-15T09:47:58.740Z</time>
      </trkpt>
      <trkpt lat="45.98623" lon="6.36943">
        <ele>1367.26001</ele>
        <time>2018-06-15T09:48:08.720Z</time>
      </trkpt>
      <trkpt lat="45.98625" lon="6.36933">
        <ele>1366.98999</ele>
        <time>2018-06-15T09:48:18.654Z</time>
      </trkpt>
      <trkpt lat="45.98622" lon="6.3693">
        <ele>1365.890015</ele>
        <time>2018-06-15T09:48:27.847Z</time>
      </trkpt>
      <trkpt lat="45.98622" lon="6.36924">
        <ele>1365.149902</ele>
        <time>2018-06-15T09:48:37.843Z</time>
      </trkpt>
      <trkpt lat="45.98627" lon="6.36914">
        <ele>1364.579956</ele>
        <time>2018-06-15T09:48:47.695Z</time>
      </trkpt>
      <trkpt lat="45.98627" lon="6.36905">
        <ele>1365.769897</ele>
        <time>2018-06-15T09:48:57.773Z</time>
      </trkpt>
      <trkpt lat="45.98627" lon="6.36896">
        <ele>1366.819946</ele>
        <time>2018-06-15T09:49:07.616Z</time>
      </trkpt>
      <trkpt lat="45.98626" lon="6.36893">
        <ele>1365.900024</ele>
        <time>2018-06-15T09:49:17.567Z</time>
      </trkpt>
      <trkpt lat="45.98623" lon="6.36894">
        <ele>1365.829956</ele>
        <time>2018-06-15T09:49:36.713Z</time>
      </trkpt>
      <trkpt lat="45.98625" lon="6.36885">
        <ele>1366.719971</ele>
        <time>2018-06-15T09:49:46.167Z</time>
      </trkpt>
      <trkpt lat="45.98624" lon="6.3687">
        <ele>1367.699951</ele>
        <time>2018-06-15T09:49:55.706Z</time>
      </trkpt>
      <trkpt lat="45.9862" lon="6.36858">
        <ele>1368.670044</ele>
        <time>2018-06-15T09:50:04.767Z</time>
      </trkpt>
      <trkpt lat="45.98611" lon="6.36849">
        <ele>1371.02002</ele>
        <time>2018-06-15T09:50:13.778Z</time>
      </trkpt>
      <trkpt lat="45.98605" lon="6.36839">
        <ele>1373.539917</ele>
        <time>2018-06-15T09:50:23.835Z</time>
      </trkpt>
      <trkpt lat="45.98603" lon="6.3683">
        <ele>1374.48999</ele>
        <time>2018-06-15T09:50:33.701Z</time>
      </trkpt>
      <trkpt lat="45.98598" lon="6.36827">
        <ele>1374.780029</ele>
        <time>2018-06-15T09:50:42.862Z</time>
      </trkpt>
      <trkpt lat="45.98589" lon="6.36829">
        <ele>1377.440063</ele>
        <time>2018-06-15T09:50:52.749Z</time>
      </trkpt>
      <trkpt lat="45.98586" lon="6.3683">
        <ele>1377.559937</ele>
        <time>2018-06-15T09:51:02.702Z</time>
      </trkpt>
      <trkpt lat="45.98584" lon="6.36833">
        <ele>1377.400024</ele>
        <time>2018-06-15T09:51:12.643Z</time>
      </trkpt>
      <trkpt lat="45.98584" lon="6.36836">
        <ele>1376.120117</ele>
        <time>2018-06-15T09:52:03.746Z</time>
      </trkpt>
      <trkpt lat="45.98586" lon="6.36836">
        <ele>1376.099976</ele>
        <time>2018-06-15T09:52:12.999Z</time>
      </trkpt>
      <trkpt lat="45.98585" lon="6.36836">
        <ele>1376.889893</ele>
        <time>2018-06-15T09:52:26.732Z</time>
      </trkpt>
      <trkpt lat="45.98584" lon="6.36835">
        <ele>1377.099976</ele>
        <time>2018-06-15T09:52:36.607Z</time>
      </trkpt>
      <trkpt lat="45.98584" lon="6.3684">
        <ele>1375.300049</ele>
        <time>2018-06-15T09:52:59.764Z</time>
      </trkpt>
      <trkpt lat="45.98584" lon="6.36838">
        <ele>1375</ele>
        <time>2018-06-15T09:53:09.692Z</time>
      </trkpt>
      <trkpt lat="45.98583" lon="6.36839">
        <ele>1375.77002</ele>
        <time>2018-06-15T09:56:38.698Z</time>
      </trkpt>
      <trkpt lat="45.98583" lon="6.3684">
        <ele>1375.799927</ele>
        <time>2018-06-15T09:56:48.792Z</time>
      </trkpt>
      <trkpt lat="45.98585" lon="6.3684">
        <ele>1376.080078</ele>
        <time>2018-06-15T09:57:05.673Z</time>
      </trkpt>
      <trkpt lat="45.98588" lon="6.36841">
        <ele>1376.599976</ele>
        <time>2018-06-15T09:57:15.689Z</time>
      </trkpt>
      <trkpt lat="45.98588" lon="6.3684">
        <ele>1375.579956</ele>
        <time>2018-06-15T09:57:49.669Z</time>
      </trkpt>
      <trkpt lat="45.98588" lon="6.36837">
        <ele>1375.25</ele>
        <time>2018-06-15T09:58:03.673Z</time>
      </trkpt>
      <trkpt lat="45.98588" lon="6.36836">
        <ele>1375.300049</ele>
        <time>2018-06-15T09:58:13.592Z</time>
      </trkpt>
      <trkpt lat="45.98587" lon="6.36832">
        <ele>1375.970093</ele>
        <time>2018-06-15T10:00:51.713Z</time>
      </trkpt>
      <trkpt lat="45.98586" lon="6.36831">
        <ele>1376.400024</ele>
        <time>2018-06-15T10:01:01.616Z</time>
      </trkpt>
      <trkpt lat="45.98587" lon="6.36833">
        <ele>1376.030029</ele>
        <time>2018-06-15T10:01:20.702Z</time>
      </trkpt>
      <trkpt lat="45.98588" lon="6.36833">
        <ele>1376</ele>
        <time>2018-06-15T10:01:30.638Z</time>
      </trkpt>
      <trkpt lat="45.98587" lon="6.36834">
        <ele>1375.930054</ele>
        <time>2018-06-15T10:02:11.750Z</time>
      </trkpt>
      <trkpt lat="45.98585" lon="6.36833">
        <ele>1376.419922</ele>
        <time>2018-06-15T10:02:42.721Z</time>
      </trkpt>
      <trkpt lat="45.98582" lon="6.36835">
        <ele>1376.700073</ele>
        <time>2018-06-15T10:02:52.619Z</time>
      </trkpt>
      <trkpt lat="45.98583" lon="6.36833">
        <ele>1377.070068</ele>
        <time>2018-06-15T10:03:01.664Z</time>
      </trkpt>
      <trkpt lat="45.98587" lon="6.36841">
        <ele>1376.619995</ele>
        <time>2018-06-15T10:03:10.790Z</time>
      </trkpt>
      <trkpt lat="45.98589" lon="6.36836">
        <ele>1375.97998</ele>
        <time>2018-06-15T10:04:33.717Z</time>
      </trkpt>
      <trkpt lat="45.98592" lon="6.36833">
        <ele>1375.300049</ele>
        <time>2018-06-15T10:04:43.712Z</time>
      </trkpt>
      <trkpt lat="45.98591" lon="6.36832">
        <ele>1375.099976</ele>
        <time>2018-06-15T10:04:52.945Z</time>
      </trkpt>
      <trkpt lat="45.98586" lon="6.36834">
        <ele>1376.889893</ele>
        <time>2018-06-15T10:05:02.708Z</time>
      </trkpt>
      <trkpt lat="45.98585" lon="6.36833">
        <ele>1376.089966</ele>
        <time>2018-06-15T10:05:12.613Z</time>
      </trkpt>
      <trkpt lat="45.98586" lon="6.36831">
        <ele>1377.149902</ele>
        <time>2018-06-15T10:12:55.747Z</time>
      </trkpt>
      <trkpt lat="45.98585" lon="6.36831">
        <ele>1377.800049</ele>
        <time>2018-06-15T10:13:04.924Z</time>
      </trkpt>
      <trkpt lat="45.98584" lon="6.3683">
        <ele>1378.100098</ele>
        <time>2018-06-15T10:13:27.703Z</time>
      </trkpt>
      <trkpt lat="45.98586" lon="6.3683">
        <ele>1378.950073</ele>
        <time>2018-06-15T10:14:09.674Z</time>
      </trkpt>
      <trkpt lat="45.98586" lon="6.36832">
        <ele>1379.919922</ele>
        <time>2018-06-15T10:14:25.690Z</time>
      </trkpt>
      <trkpt lat="45.98587" lon="6.36832">
        <ele>1379.900024</ele>
        <time>2018-06-15T10:14:35.556Z</time>
      </trkpt>
      <trkpt lat="45.98585" lon="6.36833">
        <ele>1379.599976</ele>
        <time>2018-06-15T10:14:44.576Z</time>
      </trkpt>
      <trkpt lat="45.98586" lon="6.36833">
        <ele>1380.820068</ele>
        <time>2018-06-15T10:14:53.665Z</time>
      </trkpt>
      <trkpt lat="45.98586" lon="6.36832">
        <ele>1380.900024</ele>
        <time>2018-06-15T10:15:03.612Z</time>
      </trkpt>
      <trkpt lat="45.98586" lon="6.36834">
        <ele>1378.869995</ele>
        <time>2018-06-15T10:17:42.640Z</time>
      </trkpt>
      <trkpt lat="45.98591" lon="6.36838">
        <ele>1378.780029</ele>
        <time>2018-06-15T10:17:52.567Z</time>
      </trkpt>
      <trkpt lat="45.9859" lon="6.36838">
        <ele>1379.890015</ele>
        <time>2018-06-15T10:18:01.650Z</time>
      </trkpt>
      <trkpt lat="45.9859" lon="6.36837">
        <ele>1378.699951</ele>
        <time>2018-06-15T10:18:12.587Z</time>
      </trkpt>
      <trkpt lat="45.98589" lon="6.36835">
        <ele>1377.199951</ele>
        <time>2018-06-15T10:18:21.659Z</time>
      </trkpt>
      <trkpt lat="45.98588" lon="6.36834">
        <ele>1377.199951</ele>
        <time>2018-06-15T10:21:34.695Z</time>
      </trkpt>
      <trkpt lat="45.98588" lon="6.36836">
        <ele>1374.869995</ele>
        <time>2018-06-15T10:33:01.667Z</time>
      </trkpt>
      <trkpt lat="45.98591" lon="6.36837">
        <ele>1374.52002</ele>
        <time>2018-06-15T10:33:11.588Z</time>
      </trkpt>
      <trkpt lat="45.98591" lon="6.36833">
        <ele>1375.47998</ele>
        <time>2018-06-15T10:33:49.573Z</time>
      </trkpt>
      <trkpt lat="45.9859" lon="6.36827">
        <ele>1375.910034</ele>
        <time>2018-06-15T10:33:58.609Z</time>
      </trkpt>
      <trkpt lat="45.98589" lon="6.3683">
        <ele>1375.5</ele>
        <time>2018-06-15T10:34:07.782Z</time>
      </trkpt>
      <trkpt lat="45.98586" lon="6.36836">
        <ele>1375.920044</ele>
        <time>2018-06-15T10:34:17.608Z</time>
      </trkpt>
      <trkpt lat="45.98588" lon="6.36839">
        <ele>1375.400024</ele>
        <time>2018-06-15T10:34:27.631Z</time>
      </trkpt>
      <trkpt lat="45.9859" lon="6.36842">
        <ele>1376.099976</ele>
        <time>2018-06-15T10:34:37.628Z</time>
      </trkpt>
      <trkpt lat="45.98588" lon="6.36836">
        <ele>1375.440063</ele>
        <time>2018-06-15T10:34:47.635Z</time>
      </trkpt>
      <trkpt lat="45.98588" lon="6.36833">
        <ele>1375.180054</ele>
        <time>2018-06-15T10:35:02.591Z</time>
      </trkpt>
      <trkpt lat="45.98587" lon="6.36826">
        <ele>1376.040039</ele>
        <time>2018-06-15T10:35:12.611Z</time>
      </trkpt>
      <trkpt lat="45.98587" lon="6.36825">
        <ele>1376.199951</ele>
        <time>2018-06-15T10:35:22.614Z</time>
      </trkpt>
      <trkpt lat="45.98583" lon="6.36826">
        <ele>1376.880005</ele>
        <time>2018-06-15T10:35:32.675Z</time>
      </trkpt>
      <trkpt lat="45.98583" lon="6.36828">
        <ele>1374.97998</ele>
        <time>2018-06-15T10:35:41.757Z</time>
      </trkpt>
      <trkpt lat="45.98582" lon="6.36831">
        <ele>1374.810059</ele>
        <time>2018-06-15T10:35:51.635Z</time>
      </trkpt>
      <trkpt lat="45.98586" lon="6.36835">
        <ele>1374.649902</ele>
        <time>2018-06-15T10:36:01.573Z</time>
      </trkpt>
      <trkpt lat="45.98588" lon="6.36829">
        <ele>1375.329956</ele>
        <time>2018-06-15T10:36:10.597Z</time>
      </trkpt>
      <trkpt lat="45.9859" lon="6.36824">
        <ele>1376.929932</ele>
        <time>2018-06-15T10:36:19.639Z</time>
      </trkpt>
      <trkpt lat="45.98589" lon="6.36826">
        <ele>1376.400024</ele>
        <time>2018-06-15T10:36:29.755Z</time>
      </trkpt>
      <trkpt lat="45.98591" lon="6.36834">
        <ele>1377.189941</ele>
        <time>2018-06-15T10:36:39.652Z</time>
      </trkpt>
      <trkpt lat="45.98587" lon="6.36835">
        <ele>1378.199951</ele>
        <time>2018-06-15T10:36:49.608Z</time>
      </trkpt>
      <trkpt lat="45.98588" lon="6.36833">
        <ele>1378.280029</ele>
        <time>2018-06-15T10:37:03.689Z</time>
      </trkpt>
      <trkpt lat="45.98591" lon="6.36828">
        <ele>1377.959961</ele>
        <time>2018-06-15T10:37:12.742Z</time>
      </trkpt>
      <trkpt lat="45.98593" lon="6.36826">
        <ele>1380.599976</ele>
        <time>2018-06-15T10:46:01.714Z</time>
      </trkpt>
      <trkpt lat="45.98589" lon="6.36831">
        <ele>1381.279907</ele>
        <time>2018-06-15T10:46:11.565Z</time>
      </trkpt>
      <trkpt lat="45.98586" lon="6.36833">
        <ele>1380.240112</ele>
        <time>2018-06-15T10:46:20.665Z</time>
      </trkpt>
      <trkpt lat="45.9859" lon="6.3683">
        <ele>1380.420044</ele>
        <time>2018-06-15T10:46:30.593Z</time>
      </trkpt>
      <trkpt lat="45.98594" lon="6.36827">
        <ele>1380.369995</ele>
        <time>2018-06-15T10:46:39.647Z</time>
      </trkpt>
      <trkpt lat="45.98599" lon="6.3682">
        <ele>1380.019897</ele>
        <time>2018-06-15T10:46:49.600Z</time>
      </trkpt>
      <trkpt lat="45.98599" lon="6.36819">
        <ele>1380.300049</ele>
        <time>2018-06-15T10:47:00.602Z</time>
      </trkpt>
      <trkpt lat="45.98599" lon="6.36818">
        <ele>1380</ele>
        <time>2018-06-15T10:47:45.666Z</time>
      </trkpt>
      <trkpt lat="45.986" lon="6.36815">
        <ele>1379.670044</ele>
        <time>2018-06-15T10:48:44.598Z</time>
      </trkpt>
      <trkpt lat="45.98601" lon="6.36808">
        <ele>1379.900024</ele>
        <time>2018-06-15T10:48:53.686Z</time>
      </trkpt>
      <trkpt lat="45.98599" lon="6.36802">
        <ele>1380.589966</ele>
        <time>2018-06-15T10:49:03.583Z</time>
      </trkpt>
      <trkpt lat="45.98599" lon="6.36801">
        <ele>1381.099976</ele>
        <time>2018-06-15T10:50:33.667Z</time>
      </trkpt>
      <trkpt lat="45.98598" lon="6.36787">
        <ele>1380.410034</ele>
        <time>2018-06-15T10:50:43.582Z</time>
      </trkpt>
      <trkpt lat="45.98596" lon="6.36773">
        <ele>1380.670044</ele>
        <time>2018-06-15T10:50:52.683Z</time>
      </trkpt>
      <trkpt lat="45.9859" lon="6.36759">
        <ele>1380.959961</ele>
        <time>2018-06-15T10:51:02.691Z</time>
      </trkpt>
      <trkpt lat="45.98583" lon="6.36746">
        <ele>1381.180054</ele>
        <time>2018-06-15T10:51:12.874Z</time>
      </trkpt>
      <trkpt lat="45.98578" lon="6.36736">
        <ele>1382.120117</ele>
        <time>2018-06-15T10:51:22.692Z</time>
      </trkpt>
      <trkpt lat="45.98572" lon="6.36729">
        <ele>1385.650024</ele>
        <time>2018-06-15T10:51:32.647Z</time>
      </trkpt>
      <trkpt lat="45.98569" lon="6.36718">
        <ele>1386.439941</ele>
        <time>2018-06-15T10:51:42.551Z</time>
      </trkpt>
      <trkpt lat="45.98567" lon="6.36704">
        <ele>1387.26001</ele>
        <time>2018-06-15T10:51:51.627Z</time>
      </trkpt>
      <trkpt lat="45.98565" lon="6.36692">
        <ele>1387.579956</ele>
        <time>2018-06-15T10:52:00.656Z</time>
      </trkpt>
      <trkpt lat="45.98561" lon="6.3668">
        <ele>1389.130005</ele>
        <time>2018-06-15T10:52:09.665Z</time>
      </trkpt>
      <trkpt lat="45.98559" lon="6.36665">
        <ele>1390.840088</ele>
        <time>2018-06-15T10:52:19.534Z</time>
      </trkpt>
      <trkpt lat="45.98557" lon="6.3666">
        <ele>1392.400024</ele>
        <time>2018-06-15T10:52:28.618Z</time>
      </trkpt>
      <trkpt lat="45.98555" lon="6.36664">
        <ele>1395.550049</ele>
        <time>2018-06-15T10:54:05.752Z</time>
      </trkpt>
      <trkpt lat="45.98556" lon="6.36673">
        <ele>1396.299927</ele>
        <time>2018-06-15T10:54:15.632Z</time>
      </trkpt>
      <trkpt lat="45.98555" lon="6.36661">
        <ele>1397.27002</ele>
        <time>2018-06-15T10:54:25.529Z</time>
      </trkpt>
      <trkpt lat="45.98557" lon="6.36654">
        <ele>1397.399902</ele>
        <time>2018-06-15T10:54:34.538Z</time>
      </trkpt>
      <trkpt lat="45.9856" lon="6.36642">
        <ele>1397.990112</ele>
        <time>2018-06-15T10:54:43.625Z</time>
      </trkpt>
      <trkpt lat="45.98559" lon="6.36624">
        <ele>1398.619995</ele>
        <time>2018-06-15T10:54:53.668Z</time>
      </trkpt>
      <trkpt lat="45.98552" lon="6.36608">
        <ele>1399.140015</ele>
        <time>2018-06-15T10:55:03.604Z</time>
      </trkpt>
      <trkpt lat="45.98544" lon="6.36595">
        <ele>1399.500122</ele>
        <time>2018-06-15T10:55:12.645Z</time>
      </trkpt>
      <trkpt lat="45.98534" lon="6.36582">
        <ele>1400.890015</ele>
        <time>2018-06-15T10:55:22.675Z</time>
      </trkpt>
      <trkpt lat="45.98528" lon="6.36576">
        <ele>1401.789917</ele>
        <time>2018-06-15T10:55:32.646Z</time>
      </trkpt>
      <trkpt lat="45.98522" lon="6.36563">
        <ele>1401.330078</ele>
        <time>2018-06-15T10:55:42.558Z</time>
      </trkpt>
      <trkpt lat="45.98514" lon="6.36554">
        <ele>1401.789917</ele>
        <time>2018-06-15T10:55:51.655Z</time>
      </trkpt>
      <trkpt lat="45.98505" lon="6.36546">
        <ele>1402.810059</ele>
        <time>2018-06-15T10:56:01.555Z</time>
      </trkpt>
      <trkpt lat="45.98498" lon="6.36537">
        <ele>1403.390015</ele>
        <time>2018-06-15T10:56:10.564Z</time>
      </trkpt>
      <trkpt lat="45.98496" lon="6.3653">
        <ele>1402.939941</ele>
        <time>2018-06-15T10:56:19.633Z</time>
      </trkpt>
      <trkpt lat="45.98491" lon="6.36519">
        <ele>1403.409912</ele>
        <time>2018-06-15T10:56:28.689Z</time>
      </trkpt>
      <trkpt lat="45.98484" lon="6.36506">
        <ele>1404.100098</ele>
        <time>2018-06-15T10:56:38.585Z</time>
      </trkpt>
      <trkpt lat="45.98478" lon="6.36497">
        <ele>1405.359985</ele>
        <time>2018-06-15T10:56:47.612Z</time>
      </trkpt>
      <trkpt lat="45.98471" lon="6.36485">
        <ele>1405.570068</ele>
        <time>2018-06-15T10:56:57.625Z</time>
      </trkpt>
      <trkpt lat="45.98462" lon="6.36476">
        <ele>1407.340088</ele>
        <time>2018-06-15T10:57:06.824Z</time>
      </trkpt>
      <trkpt lat="45.98458" lon="6.36472">
        <ele>1408.370117</ele>
        <time>2018-06-15T10:57:16.645Z</time>
      </trkpt>
      <trkpt lat="45.98451" lon="6.36463">
        <ele>1408.969971</ele>
        <time>2018-06-15T10:57:26.617Z</time>
      </trkpt>
      <trkpt lat="45.98442" lon="6.36452">
        <ele>1410.189941</ele>
        <time>2018-06-15T10:57:36.588Z</time>
      </trkpt>
      <trkpt lat="45.98437" lon="6.36439">
        <ele>1411.27002</ele>
        <time>2018-06-15T10:57:45.621Z</time>
      </trkpt>
      <trkpt lat="45.98431" lon="6.36424">
        <ele>1411.150024</ele>
        <time>2018-06-15T10:57:55.582Z</time>
      </trkpt>
      <trkpt lat="45.98422" lon="6.3641">
        <ele>1412.5</ele>
        <time>2018-06-15T10:58:05.582Z</time>
      </trkpt>
      <trkpt lat="45.98414" lon="6.36399">
        <ele>1412.820068</ele>
        <time>2018-06-15T10:58:15.012Z</time>
      </trkpt>
      <trkpt lat="45.98409" lon="6.36389">
        <ele>1413.070068</ele>
        <time>2018-06-15T10:58:24.583Z</time>
      </trkpt>
      <trkpt lat="45.98405" lon="6.36391">
        <ele>1414.550049</ele>
        <time>2018-06-15T10:58:40.634Z</time>
      </trkpt>
      <trkpt lat="45.98406" lon="6.36392">
        <ele>1415.829956</ele>
        <time>2018-06-15T10:59:11.552Z</time>
      </trkpt>
      <trkpt lat="45.9841" lon="6.36399">
        <ele>1415.609985</ele>
        <time>2018-06-15T10:59:20.583Z</time>
      </trkpt>
      <trkpt lat="45.98408" lon="6.36396">
        <ele>1414.629883</ele>
        <time>2018-06-15T10:59:30.580Z</time>
      </trkpt>
      <trkpt lat="45.98408" lon="6.36394">
        <ele>1415.099976</ele>
        <time>2018-06-15T10:59:39.616Z</time>
      </trkpt>
      <trkpt lat="45.98407" lon="6.36393">
        <ele>1415.199951</ele>
        <time>2018-06-15T10:59:49.477Z</time>
      </trkpt>
      <trkpt lat="45.98406" lon="6.36389">
        <ele>1415.01001</ele>
        <time>2018-06-15T10:59:58.699Z</time>
      </trkpt>
      <trkpt lat="45.98405" lon="6.36387">
        <ele>1415.130005</ele>
        <time>2018-06-15T11:00:08.823Z</time>
      </trkpt>
      <trkpt lat="45.98405" lon="6.3639">
        <ele>1415.359985</ele>
        <time>2018-06-15T11:00:18.573Z</time>
      </trkpt>
      <trkpt lat="45.98406" lon="6.36392">
        <ele>1415.000122</ele>
        <time>2018-06-15T11:01:04.585Z</time>
      </trkpt>
      <trkpt lat="45.98408" lon="6.36394">
        <ele>1415.070068</ele>
        <time>2018-06-15T11:01:14.553Z</time>
      </trkpt>
      <trkpt lat="45.98409" lon="6.36395">
        <ele>1415.420044</ele>
        <time>2018-06-15T11:01:24.637Z</time>
      </trkpt>
      <trkpt lat="45.98411" lon="6.3639">
        <ele>1415.599976</ele>
        <time>2018-06-15T11:01:34.602Z</time>
      </trkpt>
      <trkpt lat="45.98409" lon="6.36392">
        <ele>1415.699951</ele>
        <time>2018-06-15T11:01:44.502Z</time>
      </trkpt>
      <trkpt lat="45.98404" lon="6.36389">
        <ele>1416.390015</ele>
        <time>2018-06-15T11:01:53.638Z</time>
      </trkpt>
      <trkpt lat="45.98403" lon="6.3639">
        <ele>1416.420044</ele>
        <time>2018-06-15T11:02:04.558Z</time>
      </trkpt>
      <trkpt lat="45.98401" lon="6.36391">
        <ele>1416.900024</ele>
        <time>2018-06-15T11:02:14.499Z</time>
      </trkpt>
      <trkpt lat="45.98404" lon="6.36392">
        <ele>1417.200073</ele>
        <time>2018-06-15T11:02:23.500Z</time>
      </trkpt>
      <trkpt lat="45.98403" lon="6.36394">
        <ele>1417.369995</ele>
        <time>2018-06-15T11:03:44.584Z</time>
      </trkpt>
      <trkpt lat="45.98403" lon="6.36392">
        <ele>1418.209961</ele>
        <time>2018-06-15T11:05:33.688Z</time>
      </trkpt>
      <trkpt lat="45.98401" lon="6.3638">
        <ele>1418.290039</ele>
        <time>2018-06-15T11:05:43.598Z</time>
      </trkpt>
      <trkpt lat="45.98399" lon="6.36385">
        <ele>1419.890015</ele>
        <time>2018-06-15T11:05:52.621Z</time>
      </trkpt>
      <trkpt lat="45.984" lon="6.3639">
        <ele>1420.099976</ele>
        <time>2018-06-15T11:06:02.539Z</time>
      </trkpt>
      <trkpt lat="45.984" lon="6.36384">
        <ele>1419.410034</ele>
        <time>2018-06-15T11:06:11.572Z</time>
      </trkpt>
      <trkpt lat="45.98395" lon="6.36369">
        <ele>1419.219971</ele>
        <time>2018-06-15T11:06:21.789Z</time>
      </trkpt>
      <trkpt lat="45.98391" lon="6.36363">
        <ele>1418.219971</ele>
        <time>2018-06-15T11:06:31.536Z</time>
      </trkpt>
      <trkpt lat="45.98391" lon="6.36361">
        <ele>1417.640015</ele>
        <time>2018-06-15T11:06:46.545Z</time>
      </trkpt>
      <trkpt lat="45.98389" lon="6.3635">
        <ele>1417.77002</ele>
        <time>2018-06-15T11:06:56.559Z</time>
      </trkpt>
      <trkpt lat="45.98387" lon="6.36339">
        <ele>1417.599976</ele>
        <time>2018-06-15T11:07:06.565Z</time>
      </trkpt>
      <trkpt lat="45.98383" lon="6.36325">
        <ele>1418.98999</ele>
        <time>2018-06-15T11:07:15.649Z</time>
      </trkpt>
      <trkpt lat="45.9838" lon="6.36309">
        <ele>1419.319946</ele>
        <time>2018-06-15T11:07:25.523Z</time>
      </trkpt>
      <trkpt lat="45.9838" lon="6.36305">
        <ele>1418.600098</ele>
        <time>2018-06-15T11:07:34.571Z</time>
      </trkpt>
      <trkpt lat="45.98378" lon="6.36305">
        <ele>1418.829956</ele>
        <time>2018-06-15T11:07:46.560Z</time>
      </trkpt>
      <trkpt lat="45.98377" lon="6.36298">
        <ele>1419.589966</ele>
        <time>2018-06-15T11:07:55.565Z</time>
      </trkpt>
      <trkpt lat="45.98377" lon="6.36295">
        <ele>1420</ele>
        <time>2018-06-15T11:08:05.572Z</time>
      </trkpt>
      <trkpt lat="45.98375" lon="6.36294">
        <ele>1420.070068</ele>
        <time>2018-06-15T11:08:14.589Z</time>
      </trkpt>
      <trkpt lat="45.98372" lon="6.36293">
        <ele>1419.529907</ele>
        <time>2018-06-15T11:08:23.648Z</time>
      </trkpt>
      <trkpt lat="45.98372" lon="6.3629">
        <ele>1418.799927</ele>
        <time>2018-06-15T11:08:33.536Z</time>
      </trkpt>
      <trkpt lat="45.98373" lon="6.36286">
        <ele>1418.190063</ele>
        <time>2018-06-15T11:08:42.561Z</time>
      </trkpt>
      <trkpt lat="45.98369" lon="6.36274">
        <ele>1417.949951</ele>
        <time>2018-06-15T11:08:51.636Z</time>
      </trkpt>
      <trkpt lat="45.98365" lon="6.36262">
        <ele>1418.76001</ele>
        <time>2018-06-15T11:09:01.513Z</time>
      </trkpt>
      <trkpt lat="45.9836" lon="6.36249">
        <ele>1419.049927</ele>
        <time>2018-06-15T11:09:10.532Z</time>
      </trkpt>
      <trkpt lat="45.98359" lon="6.36236">
        <ele>1419.300049</ele>
        <time>2018-06-15T11:09:19.553Z</time>
      </trkpt>
      <trkpt lat="45.98353" lon="6.36227">
        <ele>1419.710083</ele>
        <time>2018-06-15T11:09:28.649Z</time>
      </trkpt>
      <trkpt lat="45.98347" lon="6.36216">
        <ele>1420.309937</ele>
        <time>2018-06-15T11:09:38.597Z</time>
      </trkpt>
      <trkpt lat="45.9834" lon="6.36202">
        <ele>1420.709961</ele>
        <time>2018-06-15T11:09:48.604Z</time>
      </trkpt>
      <trkpt lat="45.9833" lon="6.36189">
        <ele>1421.370117</ele>
        <time>2018-06-15T11:09:58.598Z</time>
      </trkpt>
      <trkpt lat="45.98324" lon="6.36178">
        <ele>1420.939941</ele>
        <time>2018-06-15T11:10:07.607Z</time>
      </trkpt>
      <trkpt lat="45.98319" lon="6.36166">
        <ele>1422.530029</ele>
        <time>2018-06-15T11:10:16.624Z</time>
      </trkpt>
      <trkpt lat="45.98313" lon="6.36157">
        <ele>1422.990112</ele>
        <time>2018-06-15T11:10:26.599Z</time>
      </trkpt>
      <trkpt lat="45.98311" lon="6.36155">
        <ele>1422.699951</ele>
        <time>2018-06-15T11:10:35.618Z</time>
      </trkpt>
      <trkpt lat="45.98315" lon="6.36154">
        <ele>1418.949951</ele>
        <time>2018-06-15T11:11:07.562Z</time>
      </trkpt>
      <trkpt lat="45.98307" lon="6.36138">
        <ele>1420.339966</ele>
        <time>2018-06-15T11:11:17.594Z</time>
      </trkpt>
      <trkpt lat="45.98303" lon="6.36127">
        <ele>1420.969971</ele>
        <time>2018-06-15T11:11:26.604Z</time>
      </trkpt>
      <trkpt lat="45.98297" lon="6.36115">
        <ele>1421.709961</ele>
        <time>2018-06-15T11:11:36.568Z</time>
      </trkpt>
      <trkpt lat="45.9829" lon="6.36105">
        <ele>1422.730103</ele>
        <time>2018-06-15T11:11:45.586Z</time>
      </trkpt>
      <trkpt lat="45.98281" lon="6.36091">
        <ele>1423.659912</ele>
        <time>2018-06-15T11:11:55.570Z</time>
      </trkpt>
      <trkpt lat="45.98275" lon="6.36084">
        <ele>1425.150024</ele>
        <time>2018-06-15T11:12:05.609Z</time>
      </trkpt>
      <trkpt lat="45.98269" lon="6.36069">
        <ele>1426.269897</ele>
        <time>2018-06-15T11:12:14.640Z</time>
      </trkpt>
      <trkpt lat="45.98265" lon="6.36064">
        <ele>1426.800049</ele>
        <time>2018-06-15T11:12:24.472Z</time>
      </trkpt>
      <trkpt lat="45.98263" lon="6.36064">
        <ele>1427.119995</ele>
        <time>2018-06-15T11:12:33.603Z</time>
      </trkpt>
      <trkpt lat="45.98259" lon="6.36051">
        <ele>1426.709961</ele>
        <time>2018-06-15T11:12:42.618Z</time>
      </trkpt>
      <trkpt lat="45.98253" lon="6.36037">
        <ele>1427.590088</ele>
        <time>2018-06-15T11:12:52.648Z</time>
      </trkpt>
      <trkpt lat="45.98251" lon="6.36036">
        <ele>1427.599976</ele>
        <time>2018-06-15T11:13:02.494Z</time>
      </trkpt>
      <trkpt lat="45.98251" lon="6.36034">
        <ele>1425.829956</ele>
        <time>2018-06-15T11:13:21.566Z</time>
      </trkpt>
      <trkpt lat="45.98246" lon="6.36019">
        <ele>1425.639893</ele>
        <time>2018-06-15T11:13:31.547Z</time>
      </trkpt>
      <trkpt lat="45.98243" lon="6.36005">
        <ele>1426.099976</ele>
        <time>2018-06-15T11:13:40.557Z</time>
      </trkpt>
      <trkpt lat="45.98237" lon="6.3599">
        <ele>1426.209961</ele>
        <time>2018-06-15T11:13:50.575Z</time>
      </trkpt>
      <trkpt lat="45.98231" lon="6.35977">
        <ele>1427.099976</ele>
        <time>2018-06-15T11:13:59.876Z</time>
      </trkpt>
      <trkpt lat="45.98226" lon="6.35961">
        <ele>1426.339966</ele>
        <time>2018-06-15T11:14:09.648Z</time>
      </trkpt>
      <trkpt lat="45.98222" lon="6.35953">
        <ele>1426.449951</ele>
        <time>2018-06-15T11:14:19.668Z</time>
      </trkpt>
      <trkpt lat="45.98217" lon="6.35939">
        <ele>1426.410034</ele>
        <time>2018-06-15T11:14:29.679Z</time>
      </trkpt>
      <trkpt lat="45.9821" lon="6.35924">
        <ele>1426.449951</ele>
        <time>2018-06-15T11:14:39.597Z</time>
      </trkpt>
      <trkpt lat="45.98206" lon="6.3591">
        <ele>1425.539917</ele>
        <time>2018-06-15T11:14:48.652Z</time>
      </trkpt>
      <trkpt lat="45.98199" lon="6.35903">
        <ele>1426.269897</ele>
        <time>2018-06-15T11:14:57.663Z</time>
      </trkpt>
      <trkpt lat="45.98191" lon="6.35889">
        <ele>1426.049927</ele>
        <time>2018-06-15T11:15:07.684Z</time>
      </trkpt>
      <trkpt lat="45.98182" lon="6.35872">
        <ele>1426.550049</ele>
        <time>2018-06-15T11:15:17.544Z</time>
      </trkpt>
      <trkpt lat="45.98175" lon="6.35857">
        <ele>1426.75</ele>
        <time>2018-06-15T11:15:26.590Z</time>
      </trkpt>
      <trkpt lat="45.98167" lon="6.35845">
        <ele>1426.939941</ele>
        <time>2018-06-15T11:15:36.523Z</time>
      </trkpt>
      <trkpt lat="45.98158" lon="6.35832">
        <ele>1428.170044</ele>
        <time>2018-06-15T11:15:45.535Z</time>
      </trkpt>
      <trkpt lat="45.98156" lon="6.35826">
        <ele>1426.619995</ele>
        <time>2018-06-15T11:15:54.680Z</time>
      </trkpt>
      <trkpt lat="45.98151" lon="6.35807">
        <ele>1427.209961</ele>
        <time>2018-06-15T11:16:04.562Z</time>
      </trkpt>
      <trkpt lat="45.98145" lon="6.35798">
        <ele>1428.109985</ele>
        <time>2018-06-15T11:16:13.569Z</time>
      </trkpt>
      <trkpt lat="45.98145" lon="6.35803">
        <ele>1429.720093</ele>
        <time>2018-06-15T11:16:22.589Z</time>
      </trkpt>
      <trkpt lat="45.98143" lon="6.35798">
        <ele>1430.160034</ele>
        <time>2018-06-15T11:16:32.592Z</time>
      </trkpt>
      <trkpt lat="45.98139" lon="6.35796">
        <ele>1429.72998</ele>
        <time>2018-06-15T11:16:42.556Z</time>
      </trkpt>
      <trkpt lat="45.98134" lon="6.35782">
        <ele>1429.5</ele>
        <time>2018-06-15T11:16:51.584Z</time>
      </trkpt>
      <trkpt lat="45.9813" lon="6.35779">
        <ele>1429.200073</ele>
        <time>2018-06-15T11:17:01.484Z</time>
      </trkpt>
      <trkpt lat="45.9813" lon="6.35781">
        <ele>1429.650024</ele>
        <time>2018-06-15T11:18:05.695Z</time>
      </trkpt>
      <trkpt lat="45.98129" lon="6.3578">
        <ele>1429.799927</ele>
        <time>2018-06-15T11:19:08.570Z</time>
      </trkpt>
      <trkpt lat="45.98128" lon="6.35776">
        <ele>1429.630005</ele>
        <time>2018-06-15T11:19:17.644Z</time>
      </trkpt>
      <trkpt lat="45.98129" lon="6.35776">
        <ele>1429.399902</ele>
        <time>2018-06-15T11:19:27.570Z</time>
      </trkpt>
      <trkpt lat="45.98127" lon="6.35772">
        <ele>1429.320068</ele>
        <time>2018-06-15T11:19:37.552Z</time>
      </trkpt>
      <trkpt lat="45.98124" lon="6.35766">
        <ele>1429.809937</ele>
        <time>2018-06-15T11:19:47.549Z</time>
      </trkpt>
      <trkpt lat="45.98122" lon="6.35757">
        <ele>1429.439941</ele>
        <time>2018-06-15T11:19:57.594Z</time>
      </trkpt>
      <trkpt lat="45.98118" lon="6.35746">
        <ele>1429.820068</ele>
        <time>2018-06-15T11:20:06.776Z</time>
      </trkpt>
      <trkpt lat="45.98111" lon="6.35734">
        <ele>1429.619995</ele>
        <time>2018-06-15T11:20:16.547Z</time>
      </trkpt>
      <trkpt lat="45.98104" lon="6.35726">
        <ele>1428.769897</ele>
        <time>2018-06-15T11:20:27.056Z</time>
      </trkpt>
      <trkpt lat="45.98104" lon="6.35716">
        <ele>1426.339966</ele>
        <time>2018-06-15T11:20:37.050Z</time>
      </trkpt>
      <trkpt lat="45.98097" lon="6.357">
        <ele>1428.659912</ele>
        <time>2018-06-15T11:20:46.574Z</time>
      </trkpt>
      <trkpt lat="45.98092" lon="6.35687">
        <ele>1431.51001</ele>
        <time>2018-06-15T11:20:56.509Z</time>
      </trkpt>
      <trkpt lat="45.98089" lon="6.35685">
        <ele>1431.300049</ele>
        <time>2018-06-15T11:21:05.555Z</time>
      </trkpt>
      <trkpt lat="45.98087" lon="6.35684">
        <ele>1431.600098</ele>
        <time>2018-06-15T11:21:19.578Z</time>
      </trkpt>
      <trkpt lat="45.98084" lon="6.35674">
        <ele>1431.469971</ele>
        <time>2018-06-15T11:21:29.485Z</time>
      </trkpt>
      <trkpt lat="45.98079" lon="6.35659">
        <ele>1430.809937</ele>
        <time>2018-06-15T11:21:38.575Z</time>
      </trkpt>
      <trkpt lat="45.98074" lon="6.35646">
        <ele>1430.030029</ele>
        <time>2018-06-15T11:21:47.588Z</time>
      </trkpt>
      <trkpt lat="45.98072" lon="6.35636">
        <ele>1428.669922</ele>
        <time>2018-06-15T11:21:57.648Z</time>
      </trkpt>
      <trkpt lat="45.98068" lon="6.3563">
        <ele>1428.160034</ele>
        <time>2018-06-15T11:22:07.549Z</time>
      </trkpt>
      <trkpt lat="45.98062" lon="6.35632">
        <ele>1428</ele>
        <time>2018-06-15T11:22:17.554Z</time>
      </trkpt>
      <trkpt lat="45.98061" lon="6.35633">
        <ele>1428</ele>
        <time>2018-06-15T11:22:27.563Z</time>
      </trkpt>
      <trkpt lat="45.98056" lon="6.35623">
        <ele>1427.51001</ele>
        <time>2018-06-15T11:22:37.514Z</time>
      </trkpt>
      <trkpt lat="45.98049" lon="6.35612">
        <ele>1427.420044</ele>
        <time>2018-06-15T11:22:46.541Z</time>
      </trkpt>
      <trkpt lat="45.98042" lon="6.35601">
        <ele>1427.349976</ele>
        <time>2018-06-15T11:22:55.620Z</time>
      </trkpt>
      <trkpt lat="45.98035" lon="6.3559">
        <ele>1427.51001</ele>
        <time>2018-06-15T11:23:05.498Z</time>
      </trkpt>
      <trkpt lat="45.98031" lon="6.35581">
        <ele>1427.259888</ele>
        <time>2018-06-15T11:23:14.514Z</time>
      </trkpt>
      <trkpt lat="45.98025" lon="6.35571">
        <ele>1428.380005</ele>
        <time>2018-06-15T11:23:23.628Z</time>
      </trkpt>
      <trkpt lat="45.9802" lon="6.3556">
        <ele>1427.23999</ele>
        <time>2018-06-15T11:23:33.760Z</time>
      </trkpt>
      <trkpt lat="45.98011" lon="6.35551">
        <ele>1427.669922</ele>
        <time>2018-06-15T11:23:43.615Z</time>
      </trkpt>
      <trkpt lat="45.98003" lon="6.35537">
        <ele>1426.469971</ele>
        <time>2018-06-15T11:23:53.597Z</time>
      </trkpt>
      <trkpt lat="45.98" lon="6.35532">
        <ele>1426.999878</ele>
        <time>2018-06-15T11:24:02.678Z</time>
      </trkpt>
      <trkpt lat="45.97997" lon="6.35527">
        <ele>1426.180054</ele>
        <time>2018-06-15T11:24:12.506Z</time>
      </trkpt>
      <trkpt lat="45.97986" lon="6.3553">
        <ele>1425.799927</ele>
        <time>2018-06-15T11:24:22.482Z</time>
      </trkpt>
      <trkpt lat="45.97982" lon="6.35522">
        <ele>1425.319946</ele>
        <time>2018-06-15T11:24:31.515Z</time>
      </trkpt>
      <trkpt lat="45.97974" lon="6.35517">
        <ele>1425.72998</ele>
        <time>2018-06-15T11:24:40.602Z</time>
      </trkpt>
      <trkpt lat="45.97967" lon="6.35509">
        <ele>1425.970093</ele>
        <time>2018-06-15T11:24:50.556Z</time>
      </trkpt>
      <trkpt lat="45.97958" lon="6.35509">
        <ele>1426.700073</ele>
        <time>2018-06-15T11:24:59.596Z</time>
      </trkpt>
      <trkpt lat="45.97952" lon="6.35503">
        <ele>1426.72998</ele>
        <time>2018-06-15T11:25:08.620Z</time>
      </trkpt>
      <trkpt lat="45.97938" lon="6.35503">
        <ele>1426.819946</ele>
        <time>2018-06-15T11:25:18.574Z</time>
      </trkpt>
      <trkpt lat="45.97936" lon="6.35505">
        <ele>1426.999878</ele>
        <time>2018-06-15T11:25:27.589Z</time>
      </trkpt>
      <trkpt lat="45.97932" lon="6.35493">
        <ele>1427.920044</ele>
        <time>2018-06-15T11:25:37.511Z</time>
      </trkpt>
      <trkpt lat="45.97929" lon="6.35478">
        <ele>1428.709961</ele>
        <time>2018-06-15T11:25:46.569Z</time>
      </trkpt>
      <trkpt lat="45.97927" lon="6.35459">
        <ele>1428.48999</ele>
        <time>2018-06-15T11:25:55.690Z</time>
      </trkpt>
      <trkpt lat="45.97921" lon="6.35458">
        <ele>1428.5</ele>
        <time>2018-06-15T11:26:05.526Z</time>
      </trkpt>
      <trkpt lat="45.97917" lon="6.35452">
        <ele>1428.030029</ele>
        <time>2018-06-15T11:26:15.527Z</time>
      </trkpt>
      <trkpt lat="45.97907" lon="6.3544">
        <ele>1428.369995</ele>
        <time>2018-06-15T11:26:24.588Z</time>
      </trkpt>
      <trkpt lat="45.97902" lon="6.35428">
        <ele>1428.570068</ele>
        <time>2018-06-15T11:26:33.618Z</time>
      </trkpt>
      <trkpt lat="45.97891" lon="6.3542">
        <ele>1428.809937</ele>
        <time>2018-06-15T11:26:43.640Z</time>
      </trkpt>
      <trkpt lat="45.97885" lon="6.3541">
        <ele>1429.109985</ele>
        <time>2018-06-15T11:26:53.540Z</time>
      </trkpt>
      <trkpt lat="45.97882" lon="6.354">
        <ele>1430.290039</ele>
        <time>2018-06-15T11:27:02.546Z</time>
      </trkpt>
      <trkpt lat="45.97878" lon="6.35392">
        <ele>1429.109985</ele>
        <time>2018-06-15T11:27:11.563Z</time>
      </trkpt>
      <trkpt lat="45.97875" lon="6.35379">
        <ele>1428.699951</ele>
        <time>2018-06-15T11:27:21.557Z</time>
      </trkpt>
      <trkpt lat="45.97871" lon="6.35366">
        <ele>1428.830078</ele>
        <time>2018-06-15T11:27:31.513Z</time>
      </trkpt>
      <trkpt lat="45.97864" lon="6.35359">
        <ele>1429.689941</ele>
        <time>2018-06-15T11:27:40.515Z</time>
      </trkpt>
      <trkpt lat="45.97862" lon="6.35355">
        <ele>1430.140015</ele>
        <time>2018-06-15T11:27:49.596Z</time>
      </trkpt>
      <trkpt lat="45.97855" lon="6.35366">
        <ele>1429.449951</ele>
        <time>2018-06-15T11:27:58.618Z</time>
      </trkpt>
      <trkpt lat="45.97855" lon="6.35364">
        <ele>1428.470093</ele>
        <time>2018-06-15T11:28:08.658Z</time>
      </trkpt>
      <trkpt lat="45.97853" lon="6.35363">
        <ele>1428.5</ele>
        <time>2018-06-15T11:28:18.744Z</time>
      </trkpt>
      <trkpt lat="45.97852" lon="6.35362">
        <ele>1428.5</ele>
        <time>2018-06-15T11:28:28.634Z</time>
      </trkpt>
      <trkpt lat="45.97854" lon="6.35362">
        <ele>1428.790039</ele>
        <time>2018-06-15T11:28:40.564Z</time>
      </trkpt>
      <trkpt lat="45.97857" lon="6.35357">
        <ele>1428.780029</ele>
        <time>2018-06-15T11:28:49.588Z</time>
      </trkpt>
      <trkpt lat="45.97858" lon="6.35354">
        <ele>1429</ele>
        <time>2018-06-15T11:28:59.457Z</time>
      </trkpt>
      <trkpt lat="45.97853" lon="6.35362">
        <ele>1429.069946</ele>
        <time>2018-06-15T11:29:22.732Z</time>
      </trkpt>
      <trkpt lat="45.97851" lon="6.35364">
        <ele>1429.069946</ele>
        <time>2018-06-15T11:29:32.532Z</time>
      </trkpt>
      <trkpt lat="45.97851" lon="6.35359">
        <ele>1429.890015</ele>
        <time>2018-06-15T11:29:41.543Z</time>
      </trkpt>
      <trkpt lat="45.97852" lon="6.35357">
        <ele>1429.919922</ele>
        <time>2018-06-15T11:30:32.523Z</time>
      </trkpt>
      <trkpt lat="45.97852" lon="6.35356">
        <ele>1430.099976</ele>
        <time>2018-06-15T11:30:42.409Z</time>
      </trkpt>
      <trkpt lat="45.97852" lon="6.35359">
        <ele>1429.720093</ele>
        <time>2018-06-15T11:30:52.644Z</time>
      </trkpt>
      <trkpt lat="45.97847" lon="6.35367">
        <ele>1429.909912</ele>
        <time>2018-06-15T11:31:02.578Z</time>
      </trkpt>
      <trkpt lat="45.9785" lon="6.35362">
        <ele>1430.900024</ele>
        <time>2018-06-15T11:31:12.439Z</time>
      </trkpt>
      <trkpt lat="45.97852" lon="6.35363">
        <ele>1431.419922</ele>
        <time>2018-06-15T11:32:12.658Z</time>
      </trkpt>
      <trkpt lat="45.97853" lon="6.3536">
        <ele>1432.26001</ele>
        <time>2018-06-15T11:32:22.512Z</time>
      </trkpt>
      <trkpt lat="45.97851" lon="6.35361">
        <ele>1432.5</ele>
        <time>2018-06-15T11:32:32.487Z</time>
      </trkpt>
      <trkpt lat="45.97849" lon="6.35364">
        <ele>1432.430054</ele>
        <time>2018-06-15T11:32:45.515Z</time>
      </trkpt>
      <trkpt lat="45.97848" lon="6.35366">
        <ele>1433.099976</ele>
        <time>2018-06-15T11:32:55.406Z</time>
      </trkpt>
      <trkpt lat="45.97852" lon="6.35363">
        <ele>1434.299927</ele>
        <time>2018-06-15T11:33:04.571Z</time>
      </trkpt>
      <trkpt lat="45.9785" lon="6.35362">
        <ele>1434.52002</ele>
        <time>2018-06-15T11:33:13.900Z</time>
      </trkpt>
      <trkpt lat="45.97847" lon="6.35357">
        <ele>1436.190063</ele>
        <time>2018-06-15T11:33:23.942Z</time>
      </trkpt>
      <trkpt lat="45.97845" lon="6.35357">
        <ele>1435.299927</ele>
        <time>2018-06-15T11:33:33.478Z</time>
      </trkpt>
      <trkpt lat="45.97846" lon="6.35351">
        <ele>1435.969971</ele>
        <time>2018-06-15T11:33:42.689Z</time>
      </trkpt>
      <trkpt lat="45.97844" lon="6.35339">
        <ele>1436.52002</ele>
        <time>2018-06-15T11:33:52.568Z</time>
      </trkpt>
      <trkpt lat="45.97836" lon="6.35328">
        <ele>1436.699951</ele>
        <time>2018-06-15T11:34:02.533Z</time>
      </trkpt>
      <trkpt lat="45.97829" lon="6.35311">
        <ele>1434.969971</ele>
        <time>2018-06-15T11:34:12.615Z</time>
      </trkpt>
      <trkpt lat="45.97824" lon="6.35305">
        <ele>1434.48999</ele>
        <time>2018-06-15T11:34:22.622Z</time>
      </trkpt>
      <trkpt lat="45.97816" lon="6.35294">
        <ele>1434.509888</ele>
        <time>2018-06-15T11:34:32.507Z</time>
      </trkpt>
      <trkpt lat="45.97811" lon="6.35291">
        <ele>1434.409912</ele>
        <time>2018-06-15T11:34:41.529Z</time>
      </trkpt>
      <trkpt lat="45.97809" lon="6.35292">
        <ele>1434.199951</ele>
        <time>2018-06-15T11:34:51.523Z</time>
      </trkpt>
      <trkpt lat="45.97805" lon="6.35292">
        <ele>1434.829956</ele>
        <time>2018-06-15T11:35:00.596Z</time>
      </trkpt>
      <trkpt lat="45.97799" lon="6.3529">
        <ele>1434.630005</ele>
        <time>2018-06-15T11:35:09.669Z</time>
      </trkpt>
      <trkpt lat="45.97795" lon="6.35281">
        <ele>1435.310059</ele>
        <time>2018-06-15T11:35:19.568Z</time>
      </trkpt>
      <trkpt lat="45.97793" lon="6.3527">
        <ele>1435.599976</ele>
        <time>2018-06-15T11:35:28.653Z</time>
      </trkpt>
      <trkpt lat="45.97788" lon="6.35263">
        <ele>1436.560059</ele>
        <time>2018-06-15T11:35:38.480Z</time>
      </trkpt>
      <trkpt lat="45.97786" lon="6.3526">
        <ele>1436.900024</ele>
        <time>2018-06-15T11:35:47.485Z</time>
      </trkpt>
      <trkpt lat="45.97779" lon="6.35249">
        <ele>1436.759888</ele>
        <time>2018-06-15T11:35:56.548Z</time>
      </trkpt>
      <trkpt lat="45.9777" lon="6.35239">
        <ele>1435.959961</ele>
        <time>2018-06-15T11:36:06.500Z</time>
      </trkpt>
      <trkpt lat="45.9777" lon="6.35223">
        <ele>1436.389893</ele>
        <time>2018-06-15T11:36:15.529Z</time>
      </trkpt>
      <trkpt lat="45.97768" lon="6.35204">
        <ele>1437.059937</ele>
        <time>2018-06-15T11:36:24.535Z</time>
      </trkpt>
      <trkpt lat="45.97756" lon="6.35196">
        <ele>1437.48999</ele>
        <time>2018-06-15T11:36:33.542Z</time>
      </trkpt>
      <trkpt lat="45.97749" lon="6.35183">
        <ele>1438.440063</ele>
        <time>2018-06-15T11:36:43.466Z</time>
      </trkpt>
      <trkpt lat="45.97747" lon="6.35182">
        <ele>1438.099976</ele>
        <time>2018-06-15T11:36:52.482Z</time>
      </trkpt>
      <trkpt lat="45.97741" lon="6.3519">
        <ele>1437.419922</ele>
        <time>2018-06-15T11:37:01.586Z</time>
      </trkpt>
      <trkpt lat="45.9774" lon="6.3519">
        <ele>1438.400024</ele>
        <time>2018-06-15T11:37:11.463Z</time>
      </trkpt>
      <trkpt lat="45.97735" lon="6.35191">
        <ele>1439.049927</ele>
        <time>2018-06-15T11:37:20.531Z</time>
      </trkpt>
      <trkpt lat="45.97734" lon="6.35193">
        <ele>1438.5</ele>
        <time>2018-06-15T11:37:30.498Z</time>
      </trkpt>
      <trkpt lat="45.97738" lon="6.35193">
        <ele>1440.070068</ele>
        <time>2018-06-15T11:37:48.525Z</time>
      </trkpt>
      <trkpt lat="45.97739" lon="6.35197">
        <ele>1441.830078</ele>
        <time>2018-06-15T11:37:58.699Z</time>
      </trkpt>
      <trkpt lat="45.97739" lon="6.35201">
        <ele>1442.350098</ele>
        <time>2018-06-15T11:38:09.533Z</time>
      </trkpt>
      <trkpt lat="45.9774" lon="6.35203">
        <ele>1443.050049</ele>
        <time>2018-06-15T11:38:18.551Z</time>
      </trkpt>
      <trkpt lat="45.97742" lon="6.35202">
        <ele>1445</ele>
        <time>2018-06-15T11:38:39.523Z</time>
      </trkpt>
      <trkpt lat="45.97739" lon="6.35197">
        <ele>1443.75</ele>
        <time>2018-06-15T11:38:49.523Z</time>
      </trkpt>
      <trkpt lat="45.97741" lon="6.35193">
        <ele>1441.900024</ele>
        <time>2018-06-15T11:38:58.673Z</time>
      </trkpt>
      <trkpt lat="45.9774" lon="6.35192">
        <ele>1441.900024</ele>
        <time>2018-06-15T11:39:09.518Z</time>
      </trkpt>
      <trkpt lat="45.97744" lon="6.3519">
        <ele>1442.099976</ele>
        <time>2018-06-15T11:39:19.483Z</time>
      </trkpt>
      <trkpt lat="45.97743" lon="6.35196">
        <ele>1441.699951</ele>
        <time>2018-06-15T11:39:29.457Z</time>
      </trkpt>
      <trkpt lat="45.97739" lon="6.352">
        <ele>1442</ele>
        <time>2018-06-15T11:39:44.508Z</time>
      </trkpt>
      <trkpt lat="45.97726" lon="6.3519">
        <ele>1441.399902</ele>
        <time>2018-06-15T11:39:53.520Z</time>
      </trkpt>
      <trkpt lat="45.97718" lon="6.35179">
        <ele>1439.079956</ele>
        <time>2018-06-15T11:40:02.533Z</time>
      </trkpt>
      <trkpt lat="45.97718" lon="6.35181">
        <ele>1439.97998</ele>
        <time>2018-06-15T11:40:12.519Z</time>
      </trkpt>
      <trkpt lat="45.97721" lon="6.35187">
        <ele>1438.590088</ele>
        <time>2018-06-15T11:40:22.595Z</time>
      </trkpt>
      <trkpt lat="45.97722" lon="6.35184">
        <ele>1438.810059</ele>
        <time>2018-06-15T11:40:32.468Z</time>
      </trkpt>
      <trkpt lat="45.97718" lon="6.35187">
        <ele>1437.150024</ele>
        <time>2018-06-15T11:41:10.532Z</time>
      </trkpt>
      <trkpt lat="45.97715" lon="6.3518">
        <ele>1437.019897</ele>
        <time>2018-06-15T11:41:20.476Z</time>
      </trkpt>
      <trkpt lat="45.97713" lon="6.35171">
        <ele>1436.830078</ele>
        <time>2018-06-15T11:41:29.547Z</time>
      </trkpt>
      <trkpt lat="45.97705" lon="6.35162">
        <ele>1436.870117</ele>
        <time>2018-06-15T11:41:38.561Z</time>
      </trkpt>
      <trkpt lat="45.97696" lon="6.35153">
        <ele>1437.670044</ele>
        <time>2018-06-15T11:41:47.577Z</time>
      </trkpt>
      <trkpt lat="45.97682" lon="6.35142">
        <ele>1437.970093</ele>
        <time>2018-06-15T11:41:57.655Z</time>
      </trkpt>
      <trkpt lat="45.97677" lon="6.35136">
        <ele>1442.429932</ele>
        <time>2018-06-15T11:42:07.529Z</time>
      </trkpt>
      <trkpt lat="45.97672" lon="6.3513">
        <ele>1443.390015</ele>
        <time>2018-06-15T11:42:17.579Z</time>
      </trkpt>
      <trkpt lat="45.97673" lon="6.35131">
        <ele>1442.499878</ele>
        <time>2018-06-15T11:42:27.462Z</time>
      </trkpt>
      <trkpt lat="45.97677" lon="6.35134">
        <ele>1440.849976</ele>
        <time>2018-06-15T11:42:42.513Z</time>
      </trkpt>
      <trkpt lat="45.97676" lon="6.35119">
        <ele>1440.569946</ele>
        <time>2018-06-15T11:42:52.557Z</time>
      </trkpt>
      <trkpt lat="45.97671" lon="6.35106">
        <ele>1441</ele>
        <time>2018-06-15T11:43:01.693Z</time>
      </trkpt>
      <trkpt lat="45.97668" lon="6.35093">
        <ele>1441.390015</ele>
        <time>2018-06-15T11:43:11.619Z</time>
      </trkpt>
      <trkpt lat="45.97663" lon="6.35084">
        <ele>1443.799927</ele>
        <time>2018-06-15T11:43:21.528Z</time>
      </trkpt>
      <trkpt lat="45.97657" lon="6.35075">
        <ele>1443.899902</ele>
        <time>2018-06-15T11:43:31.508Z</time>
      </trkpt>
      <trkpt lat="45.97653" lon="6.35066">
        <ele>1443.789917</ele>
        <time>2018-06-15T11:43:40.528Z</time>
      </trkpt>
      <trkpt lat="45.97648" lon="6.35049">
        <ele>1444.269897</ele>
        <time>2018-06-15T11:43:49.614Z</time>
      </trkpt>
      <trkpt lat="45.97646" lon="6.35039">
        <ele>1446.72998</ele>
        <time>2018-06-15T11:43:59.588Z</time>
      </trkpt>
      <trkpt lat="45.97637" lon="6.3503">
        <ele>1447.249878</ele>
        <time>2018-06-15T11:44:09.506Z</time>
      </trkpt>
      <trkpt lat="45.97636" lon="6.35017">
        <ele>1447.179932</ele>
        <time>2018-06-15T11:44:18.602Z</time>
      </trkpt>
      <trkpt lat="45.97636" lon="6.35014">
        <ele>1446.550049</ele>
        <time>2018-06-15T11:44:28.436Z</time>
      </trkpt>
      <trkpt lat="45.9764" lon="6.35022">
        <ele>1446.140015</ele>
        <time>2018-06-15T11:44:37.539Z</time>
      </trkpt>
      <trkpt lat="45.97641" lon="6.35022">
        <ele>1446.299927</ele>
        <time>2018-06-15T11:44:47.461Z</time>
      </trkpt>
      <trkpt lat="45.97639" lon="6.35012">
        <ele>1446.699951</ele>
        <time>2018-06-15T11:44:56.538Z</time>
      </trkpt>
      <trkpt lat="45.97633" lon="6.34996">
        <ele>1449.25</ele>
        <time>2018-06-15T11:45:06.530Z</time>
      </trkpt>
      <trkpt lat="45.97629" lon="6.34985">
        <ele>1449.890015</ele>
        <time>2018-06-15T11:45:15.562Z</time>
      </trkpt>
      <trkpt lat="45.97627" lon="6.34994">
        <ele>1449.080078</ele>
        <time>2018-06-15T11:45:25.448Z</time>
      </trkpt>
      <trkpt lat="45.97628" lon="6.34997">
        <ele>1448.799927</ele>
        <time>2018-06-15T11:45:34.458Z</time>
      </trkpt>
      <trkpt lat="45.97629" lon="6.35001">
        <ele>1448.75</ele>
        <time>2018-06-15T11:45:43.585Z</time>
      </trkpt>
      <trkpt lat="45.97629" lon="6.34985">
        <ele>1449.059937</ele>
        <time>2018-06-15T11:45:53.513Z</time>
      </trkpt>
      <trkpt lat="45.97627" lon="6.34973">
        <ele>1449.469971</ele>
        <time>2018-06-15T11:46:02.558Z</time>
      </trkpt>
      <trkpt lat="45.97622" lon="6.34988">
        <ele>1450.949951</ele>
        <time>2018-06-15T11:46:12.558Z</time>
      </trkpt>
      <trkpt lat="45.97624" lon="6.34994">
        <ele>1450.899902</ele>
        <time>2018-06-15T11:46:22.530Z</time>
      </trkpt>
      <trkpt lat="45.97626" lon="6.35003">
        <ele>1450.410034</ele>
        <time>2018-06-15T11:46:32.507Z</time>
      </trkpt>
      <trkpt lat="45.97628" lon="6.35013">
        <ele>1449.859985</ele>
        <time>2018-06-15T11:46:41.517Z</time>
      </trkpt>
      <trkpt lat="45.97632" lon="6.35012">
        <ele>1449.300049</ele>
        <time>2018-06-15T11:46:50.584Z</time>
      </trkpt>
      <trkpt lat="45.97632" lon="6.34998">
        <ele>1449.26001</ele>
        <time>2018-06-15T11:46:59.616Z</time>
      </trkpt>
      <trkpt lat="45.97627" lon="6.34987">
        <ele>1447.76001</ele>
        <time>2018-06-15T11:47:09.540Z</time>
      </trkpt>
      <trkpt lat="45.97622" lon="6.34973">
        <ele>1448.460083</ele>
        <time>2018-06-15T11:47:18.548Z</time>
      </trkpt>
      <trkpt lat="45.97618" lon="6.34959">
        <ele>1448.52002</ele>
        <time>2018-06-15T11:47:28.567Z</time>
      </trkpt>
      <trkpt lat="45.97619" lon="6.34947">
        <ele>1449.119995</ele>
        <time>2018-06-15T11:47:37.592Z</time>
      </trkpt>
      <trkpt lat="45.97622" lon="6.34937">
        <ele>1447.849976</ele>
        <time>2018-06-15T11:47:47.498Z</time>
      </trkpt>
      <trkpt lat="45.97618" lon="6.34942">
        <ele>1448.060059</ele>
        <time>2018-06-15T11:47:56.559Z</time>
      </trkpt>
      <trkpt lat="45.97616" lon="6.3494">
        <ele>1448.649902</ele>
        <time>2018-06-15T11:48:05.605Z</time>
      </trkpt>
      <trkpt lat="45.97616" lon="6.34937">
        <ele>1448.449951</ele>
        <time>2018-06-15T11:48:15.532Z</time>
      </trkpt>
      <trkpt lat="45.97617" lon="6.34937">
        <ele>1448.699951</ele>
        <time>2018-06-15T11:48:25.546Z</time>
      </trkpt>
      <trkpt lat="45.97617" lon="6.34938">
        <ele>1449.599976</ele>
        <time>2018-06-15T11:48:40.552Z</time>
      </trkpt>
      <trkpt lat="45.97619" lon="6.34938">
        <ele>1450.400024</ele>
        <time>2018-06-15T11:48:50.558Z</time>
      </trkpt>
      <trkpt lat="45.97627" lon="6.3493">
        <ele>1451.669922</ele>
        <time>2018-06-15T11:49:00.443Z</time>
      </trkpt>
      <trkpt lat="45.97623" lon="6.34923">
        <ele>1451.590088</ele>
        <time>2018-06-15T11:49:09.528Z</time>
      </trkpt>
      <trkpt lat="45.97622" lon="6.34929">
        <ele>1451.789917</ele>
        <time>2018-06-15T11:49:18.544Z</time>
      </trkpt>
      <trkpt lat="45.97619" lon="6.34929">
        <ele>1453.189941</ele>
        <time>2018-06-15T11:49:28.466Z</time>
      </trkpt>
      <trkpt lat="45.97621" lon="6.34926">
        <ele>1453.769897</ele>
        <time>2018-06-15T11:49:37.513Z</time>
      </trkpt>
      <trkpt lat="45.9763" lon="6.34933">
        <ele>1454.72998</ele>
        <time>2018-06-15T11:49:46.566Z</time>
      </trkpt>
      <trkpt lat="45.97628" lon="6.34932">
        <ele>1454.200073</ele>
        <time>2018-06-15T11:49:55.979Z</time>
      </trkpt>
      <trkpt lat="45.97624" lon="6.34929">
        <ele>1454.300049</ele>
        <time>2018-06-15T11:50:05.452Z</time>
      </trkpt>
      <trkpt lat="45.9762" lon="6.34934">
        <ele>1453.329956</ele>
        <time>2018-06-15T11:50:19.540Z</time>
      </trkpt>
      <trkpt lat="45.97623" lon="6.34935">
        <ele>1452.170044</ele>
        <time>2018-06-15T11:50:29.590Z</time>
      </trkpt>
      <trkpt lat="45.9762" lon="6.34923">
        <ele>1452.790039</ele>
        <time>2018-06-15T11:50:39.507Z</time>
      </trkpt>
      <trkpt lat="45.97621" lon="6.34923">
        <ele>1454.930054</ele>
        <time>2018-06-15T11:50:51.559Z</time>
      </trkpt>
      <trkpt lat="45.97622" lon="6.34926">
        <ele>1454.300049</ele>
        <time>2018-06-15T11:51:01.432Z</time>
      </trkpt>
      <trkpt lat="45.97622" lon="6.34931">
        <ele>1456.469971</ele>
        <time>2018-06-15T11:52:05.549Z</time>
      </trkpt>
      <trkpt lat="45.97621" lon="6.34929">
        <ele>1456.019897</ele>
        <time>2018-06-15T11:52:15.516Z</time>
      </trkpt>
      <trkpt lat="45.97619" lon="6.34932">
        <ele>1456.679932</ele>
        <time>2018-06-15T11:52:25.483Z</time>
      </trkpt>
      <trkpt lat="45.9762" lon="6.34937">
        <ele>1456.5</ele>
        <time>2018-06-15T11:52:35.487Z</time>
      </trkpt>
      <trkpt lat="45.97624" lon="6.34936">
        <ele>1455.300049</ele>
        <time>2018-06-15T11:53:22.517Z</time>
      </trkpt>
      <trkpt lat="45.97623" lon="6.34931">
        <ele>1454.799927</ele>
        <time>2018-06-15T11:53:32.460Z</time>
      </trkpt>
      <trkpt lat="45.97622" lon="6.34932">
        <ele>1454.130005</ele>
        <time>2018-06-15T11:53:43.620Z</time>
      </trkpt>
      <trkpt lat="45.97622" lon="6.34927">
        <ele>1452.900024</ele>
        <time>2018-06-15T11:53:53.588Z</time>
      </trkpt>
      <trkpt lat="45.9762" lon="6.34928">
        <ele>1453.050049</ele>
        <time>2018-06-15T11:54:04.586Z</time>
      </trkpt>
      <trkpt lat="45.97619" lon="6.34923">
        <ele>1453.690063</ele>
        <time>2018-06-15T11:54:14.481Z</time>
      </trkpt>
      <trkpt lat="45.97621" lon="6.34924">
        <ele>1453.52002</ele>
        <time>2018-06-15T11:54:23.681Z</time>
      </trkpt>
      <trkpt lat="45.97621" lon="6.34927">
        <ele>1453.399902</ele>
        <time>2018-06-15T11:54:33.436Z</time>
      </trkpt>
      <trkpt lat="45.97622" lon="6.34928">
        <ele>1452.609985</ele>
        <time>2018-06-15T11:54:43.725Z</time>
      </trkpt>
      <trkpt lat="45.97621" lon="6.34927">
        <ele>1452.599976</ele>
        <time>2018-06-15T11:55:01.506Z</time>
      </trkpt>
      <trkpt lat="45.97619" lon="6.34928">
        <ele>1452.700073</ele>
        <time>2018-06-15T11:55:11.517Z</time>
      </trkpt>
      <trkpt lat="45.97621" lon="6.34928">
        <ele>1452.599976</ele>
        <time>2018-06-15T11:55:23.582Z</time>
      </trkpt>
      <trkpt lat="45.97623" lon="6.34928">
        <ele>1452.5</ele>
        <time>2018-06-15T11:55:33.439Z</time>
      </trkpt>
      <trkpt lat="45.97624" lon="6.34931">
        <ele>1452.569946</ele>
        <time>2018-06-15T11:55:42.454Z</time>
      </trkpt>
      <trkpt lat="45.97626" lon="6.34932">
        <ele>1452.700073</ele>
        <time>2018-06-15T11:55:51.520Z</time>
      </trkpt>
      <trkpt lat="45.97627" lon="6.34928">
        <ele>1452.380005</ele>
        <time>2018-06-15T11:56:01.519Z</time>
      </trkpt>
      <trkpt lat="45.97624" lon="6.34928">
        <ele>1452.690063</ele>
        <time>2018-06-15T11:56:11.574Z</time>
      </trkpt>
      <trkpt lat="45.97624" lon="6.34924">
        <ele>1454.090088</ele>
        <time>2018-06-15T11:56:21.459Z</time>
      </trkpt>
      <trkpt lat="45.97624" lon="6.34922">
        <ele>1456.700073</ele>
        <time>2018-06-15T11:56:31.510Z</time>
      </trkpt>
      <trkpt lat="45.97623" lon="6.34923">
        <ele>1457.700073</ele>
        <time>2018-06-15T11:56:40.544Z</time>
      </trkpt>
      <trkpt lat="45.97621" lon="6.34923">
        <ele>1458.559937</ele>
        <time>2018-06-15T11:56:49.549Z</time>
      </trkpt>
      <trkpt lat="45.97617" lon="6.34926">
        <ele>1458.259888</ele>
        <time>2018-06-15T11:56:58.581Z</time>
      </trkpt>
      <trkpt lat="45.97618" lon="6.34929">
        <ele>1456.440063</ele>
        <time>2018-06-15T11:57:08.497Z</time>
      </trkpt>
      <trkpt lat="45.9762" lon="6.34934">
        <ele>1453.900024</ele>
        <time>2018-06-15T11:57:18.464Z</time>
      </trkpt>
      <trkpt lat="45.9762" lon="6.3493">
        <ele>1453.599976</ele>
        <time>2018-06-15T11:57:36.462Z</time>
      </trkpt>
      <trkpt lat="45.97624" lon="6.34927">
        <ele>1453.02002</ele>
        <time>2018-06-15T11:57:45.513Z</time>
      </trkpt>
      <trkpt lat="45.97623" lon="6.34925">
        <ele>1452.929932</ele>
        <time>2018-06-15T11:57:58.540Z</time>
      </trkpt>
      <trkpt lat="45.97622" lon="6.34924">
        <ele>1453.179932</ele>
        <time>2018-06-15T11:58:25.497Z</time>
      </trkpt>
      <trkpt lat="45.97624" lon="6.34928">
        <ele>1452.359985</ele>
        <time>2018-06-15T11:58:34.556Z</time>
      </trkpt>
      <trkpt lat="45.97625" lon="6.34932">
        <ele>1451.900024</ele>
        <time>2018-06-15T11:58:44.401Z</time>
      </trkpt>
      <trkpt lat="45.97626" lon="6.34929">
        <ele>1451.319946</ele>
        <time>2018-06-15T11:58:53.569Z</time>
      </trkpt>
      <trkpt lat="45.97621" lon="6.34924">
        <ele>1451.709961</ele>
        <time>2018-06-15T11:59:03.648Z</time>
      </trkpt>
      <trkpt lat="45.9762" lon="6.34925">
        <ele>1450.949951</ele>
        <time>2018-06-15T11:59:28.482Z</time>
      </trkpt>
      <trkpt lat="45.9762" lon="6.34924">
        <ele>1450.400024</ele>
        <time>2018-06-15T11:59:38.429Z</time>
      </trkpt>
      <trkpt lat="45.97616" lon="6.34925">
        <ele>1448.100098</ele>
        <time>2018-06-15T11:59:47.555Z</time>
      </trkpt>
      <trkpt lat="45.97613" lon="6.34923">
        <ele>1448.100098</ele>
        <time>2018-06-15T11:59:57.409Z</time>
      </trkpt>
      <trkpt lat="45.97619" lon="6.34923">
        <ele>1448.780029</ele>
        <time>2018-06-15T12:00:06.448Z</time>
      </trkpt>
      <trkpt lat="45.97617" lon="6.34925">
        <ele>1448.410034</ele>
        <time>2018-06-15T12:00:15.549Z</time>
      </trkpt>
      <trkpt lat="45.97617" lon="6.34933">
        <ele>1447.800049</ele>
        <time>2018-06-15T12:00:24.727Z</time>
      </trkpt>
      <trkpt lat="45.97618" lon="6.34927">
        <ele>1448.98999</ele>
        <time>2018-06-15T12:00:34.572Z</time>
      </trkpt>
      <trkpt lat="45.97619" lon="6.34928">
        <ele>1451.070068</ele>
        <time>2018-06-15T12:00:44.470Z</time>
      </trkpt>
      <trkpt lat="45.97622" lon="6.34926">
        <ele>1450.02002</ele>
        <time>2018-06-15T12:00:54.502Z</time>
      </trkpt>
      <trkpt lat="45.97624" lon="6.34924">
        <ele>1449.400024</ele>
        <time>2018-06-15T12:01:04.452Z</time>
      </trkpt>
      <trkpt lat="45.97624" lon="6.34928">
        <ele>1449.550049</ele>
        <time>2018-06-15T12:01:41.595Z</time>
      </trkpt>
      <trkpt lat="45.97626" lon="6.34931">
        <ele>1450.51001</ele>
        <time>2018-06-15T12:01:51.467Z</time>
      </trkpt>
      <trkpt lat="45.97622" lon="6.34927">
        <ele>1448.47998</ele>
        <time>2018-06-15T12:02:34.596Z</time>
      </trkpt>
      <trkpt lat="45.97625" lon="6.34924">
        <ele>1449</ele>
        <time>2018-06-15T12:02:44.381Z</time>
      </trkpt>
      <trkpt lat="45.97622" lon="6.34924">
        <ele>1447.27002</ele>
        <time>2018-06-15T12:03:14.483Z</time>
      </trkpt>
      <trkpt lat="45.97619" lon="6.34924">
        <ele>1448.160034</ele>
        <time>2018-06-15T12:03:24.489Z</time>
      </trkpt>
      <trkpt lat="45.9762" lon="6.34923">
        <ele>1447.75</ele>
        <time>2018-06-15T12:03:33.534Z</time>
      </trkpt>
      <trkpt lat="45.9762" lon="6.34925">
        <ele>1447.800049</ele>
        <time>2018-06-15T12:03:43.485Z</time>
      </trkpt>
      <trkpt lat="45.97617" lon="6.34926">
        <ele>1447.200073</ele>
        <time>2018-06-15T12:04:04.582Z</time>
      </trkpt>
      <trkpt lat="45.97618" lon="6.34928">
        <ele>1446.72998</ele>
        <time>2018-06-15T12:04:14.480Z</time>
      </trkpt>
      <trkpt lat="45.9762" lon="6.34927">
        <ele>1446.900024</ele>
        <time>2018-06-15T12:04:24.471Z</time>
      </trkpt>
      <trkpt lat="45.97621" lon="6.3493">
        <ele>1448.179932</ele>
        <time>2018-06-15T12:04:33.628Z</time>
      </trkpt>
      <trkpt lat="45.97626" lon="6.34926">
        <ele>1445.130005</ele>
        <time>2018-06-15T12:04:43.442Z</time>
      </trkpt>
      <trkpt lat="45.97623" lon="6.34926">
        <ele>1444.269897</ele>
        <time>2018-06-15T12:04:53.513Z</time>
      </trkpt>
      <trkpt lat="45.97623" lon="6.34925">
        <ele>1443.970093</ele>
        <time>2018-06-15T12:05:18.493Z</time>
      </trkpt>
      <trkpt lat="45.97622" lon="6.34929">
        <ele>1446.099976</ele>
        <time>2018-06-15T12:05:28.608Z</time>
      </trkpt>
      <trkpt lat="45.97624" lon="6.3493">
        <ele>1447.399902</ele>
        <time>2018-06-15T12:05:38.468Z</time>
      </trkpt>
      <trkpt lat="45.97622" lon="6.34929">
        <ele>1448</ele>
        <time>2018-06-15T12:05:48.502Z</time>
      </trkpt>
      <trkpt lat="45.9762" lon="6.3493">
        <ele>1448.100098</ele>
        <time>2018-06-15T12:05:58.441Z</time>
      </trkpt>
      <trkpt lat="45.97624" lon="6.34929">
        <ele>1449.52002</ele>
        <time>2018-06-15T12:06:22.493Z</time>
      </trkpt>
      <trkpt lat="45.97621" lon="6.34923">
        <ele>1449.799927</ele>
        <time>2018-06-15T12:06:31.597Z</time>
      </trkpt>
      <trkpt lat="45.97622" lon="6.34926">
        <ele>1450.300049</ele>
        <time>2018-06-15T12:06:41.449Z</time>
      </trkpt>
      <trkpt lat="45.9762" lon="6.34927">
        <ele>1450.109985</ele>
        <time>2018-06-15T12:06:50.504Z</time>
      </trkpt>
      <trkpt lat="45.9762" lon="6.34928">
        <ele>1448.539917</ele>
        <time>2018-06-15T12:07:01.653Z</time>
      </trkpt>
      <trkpt lat="45.9762" lon="6.34926">
        <ele>1448.040039</ele>
        <time>2018-06-15T12:07:11.646Z</time>
      </trkpt>
      <trkpt lat="45.97619" lon="6.34925">
        <ele>1446.189941</ele>
        <time>2018-06-15T12:07:21.526Z</time>
      </trkpt>
      <trkpt lat="45.97622" lon="6.34924">
        <ele>1446.280029</ele>
        <time>2018-06-15T12:07:31.473Z</time>
      </trkpt>
      <trkpt lat="45.97623" lon="6.34927">
        <ele>1446.400024</ele>
        <time>2018-06-15T12:07:41.510Z</time>
      </trkpt>
      <trkpt lat="45.97624" lon="6.34928">
        <ele>1446.170044</ele>
        <time>2018-06-15T12:07:52.779Z</time>
      </trkpt>
      <trkpt lat="45.97625" lon="6.34934">
        <ele>1447.849976</ele>
        <time>2018-06-15T12:08:02.575Z</time>
      </trkpt>
      <trkpt lat="45.97626" lon="6.34928">
        <ele>1446.829956</ele>
        <time>2018-06-15T12:08:12.540Z</time>
      </trkpt>
      <trkpt lat="45.97626" lon="6.34929">
        <ele>1446.900024</ele>
        <time>2018-06-15T12:08:23.562Z</time>
      </trkpt>
      <trkpt lat="45.97623" lon="6.34927">
        <ele>1445.75</ele>
        <time>2018-06-15T12:08:52.746Z</time>
      </trkpt>
      <trkpt lat="45.97623" lon="6.34925">
        <ele>1445.299927</ele>
        <time>2018-06-15T12:09:02.410Z</time>
      </trkpt>
      <trkpt lat="45.97626" lon="6.34924">
        <ele>1445.220093</ele>
        <time>2018-06-15T12:09:17.551Z</time>
      </trkpt>
      <trkpt lat="45.97625" lon="6.34919">
        <ele>1446.140015</ele>
        <time>2018-06-15T12:09:27.461Z</time>
      </trkpt>
      <trkpt lat="45.97628" lon="6.34925">
        <ele>1447.27002</ele>
        <time>2018-06-15T12:10:18.560Z</time>
      </trkpt>
      <trkpt lat="45.97631" lon="6.34924">
        <ele>1447.869995</ele>
        <time>2018-06-15T12:10:28.457Z</time>
      </trkpt>
      <trkpt lat="45.97629" lon="6.34926">
        <ele>1447.609985</ele>
        <time>2018-06-15T12:10:37.495Z</time>
      </trkpt>
      <trkpt lat="45.97629" lon="6.34929">
        <ele>1447.730103</ele>
        <time>2018-06-15T12:10:52.809Z</time>
      </trkpt>
      <trkpt lat="45.97628" lon="6.34932">
        <ele>1447.880127</ele>
        <time>2018-06-15T12:11:02.625Z</time>
      </trkpt>
      <trkpt lat="45.97626" lon="6.3493">
        <ele>1448.100098</ele>
        <time>2018-06-15T12:11:15.523Z</time>
      </trkpt>
      <trkpt lat="45.97625" lon="6.34925">
        <ele>1447.310059</ele>
        <time>2018-06-15T12:11:25.443Z</time>
      </trkpt>
      <trkpt lat="45.97623" lon="6.34928">
        <ele>1449.279907</ele>
        <time>2018-06-15T12:11:46.445Z</time>
      </trkpt>
      <trkpt lat="45.97624" lon="6.34928">
        <ele>1449.880005</ele>
        <time>2018-06-15T12:12:09.519Z</time>
      </trkpt>
      <trkpt lat="45.97622" lon="6.34928">
        <ele>1451.25</ele>
        <time>2018-06-15T12:12:19.433Z</time>
      </trkpt>
      <trkpt lat="45.97621" lon="6.34929">
        <ele>1451.5</ele>
        <time>2018-06-15T12:12:29.367Z</time>
      </trkpt>
      <trkpt lat="45.97619" lon="6.34934">
        <ele>1457.650024</ele>
        <time>2018-06-15T12:13:11.466Z</time>
      </trkpt>
      <trkpt lat="45.97624" lon="6.34931">
        <ele>1457.800049</ele>
        <time>2018-06-15T12:13:38.468Z</time>
      </trkpt>
      <trkpt lat="45.97625" lon="6.34929">
        <ele>1456.600098</ele>
        <time>2018-06-15T12:13:48.498Z</time>
      </trkpt>
      <trkpt lat="45.97621" lon="6.34927">
        <ele>1454.720093</ele>
        <time>2018-06-15T12:13:57.567Z</time>
      </trkpt>
      <trkpt lat="45.9762" lon="6.34928">
        <ele>1454</ele>
        <time>2018-06-15T12:14:07.427Z</time>
      </trkpt>
      <trkpt lat="45.9762" lon="6.34929">
        <ele>1445.900024</ele>
        <time>2018-06-15T12:16:50.493Z</time>
      </trkpt>
      <trkpt lat="45.97621" lon="6.34933">
        <ele>1442.870117</ele>
        <time>2018-06-15T12:17:00.450Z</time>
      </trkpt>
      <trkpt lat="45.97619" lon="6.34927">
        <ele>1447.52002</ele>
        <time>2018-06-15T12:17:58.614Z</time>
      </trkpt>
      <trkpt lat="45.97623" lon="6.34921">
        <ele>1449.970093</ele>
        <time>2018-06-15T12:18:07.713Z</time>
      </trkpt>
      <trkpt lat="45.97621" lon="6.34922">
        <ele>1449.51001</ele>
        <time>2018-06-15T12:18:17.455Z</time>
      </trkpt>
      <trkpt lat="45.97622" lon="6.34924">
        <ele>1448.839966</ele>
        <time>2018-06-15T12:18:27.478Z</time>
      </trkpt>
      <trkpt lat="45.97619" lon="6.34928">
        <ele>1448.329956</ele>
        <time>2018-06-15T12:18:36.510Z</time>
      </trkpt>
      <trkpt lat="45.97618" lon="6.34928">
        <ele>1448.200073</ele>
        <time>2018-06-15T12:18:46.445Z</time>
      </trkpt>
      <trkpt lat="45.97615" lon="6.34928">
        <ele>1448.689941</ele>
        <time>2018-06-15T12:18:55.511Z</time>
      </trkpt>
      <trkpt lat="45.97615" lon="6.34929">
        <ele>1448.300049</ele>
        <time>2018-06-15T12:19:06.450Z</time>
      </trkpt>
      <trkpt lat="45.97617" lon="6.3493">
        <ele>1451.070068</ele>
        <time>2018-06-15T12:19:15.603Z</time>
      </trkpt>
      <trkpt lat="45.97618" lon="6.34943">
        <ele>1452.48999</ele>
        <time>2018-06-15T12:19:25.552Z</time>
      </trkpt>
      <trkpt lat="45.97621" lon="6.34952">
        <ele>1453.089966</ele>
        <time>2018-06-15T12:19:35.475Z</time>
      </trkpt>
      <trkpt lat="45.97622" lon="6.34946">
        <ele>1450.719971</ele>
        <time>2018-06-15T12:19:45.502Z</time>
      </trkpt>
      <trkpt lat="45.9762" lon="6.34938">
        <ele>1450.799927</ele>
        <time>2018-06-15T12:19:55.438Z</time>
      </trkpt>
      <trkpt lat="45.97621" lon="6.34944">
        <ele>1451.569946</ele>
        <time>2018-06-15T12:20:04.481Z</time>
      </trkpt>
      <trkpt lat="45.97608" lon="6.3495">
        <ele>1451.309937</ele>
        <time>2018-06-15T12:20:14.092Z</time>
      </trkpt>
      <trkpt lat="45.97603" lon="6.34938">
        <ele>1448.109985</ele>
        <time>2018-06-15T12:20:23.453Z</time>
      </trkpt>
      <trkpt lat="45.97606" lon="6.34943">
        <ele>1450.47998</ele>
        <time>2018-06-15T12:20:33.460Z</time>
      </trkpt>
      <trkpt lat="45.97604" lon="6.34941">
        <ele>1451.800049</ele>
        <time>2018-06-15T12:20:42.522Z</time>
      </trkpt>
      <trkpt lat="45.97602" lon="6.34941">
        <ele>1451.929932</ele>
        <time>2018-06-15T12:20:51.538Z</time>
      </trkpt>
      <trkpt lat="45.97603" lon="6.34943">
        <ele>1453.940063</ele>
        <time>2018-06-15T12:21:01.438Z</time>
      </trkpt>
      <trkpt lat="45.97598" lon="6.34937">
        <ele>1453.310059</ele>
        <time>2018-06-15T12:21:10.602Z</time>
      </trkpt>
      <trkpt lat="45.97589" lon="6.34932">
        <ele>1452.97998</ele>
        <time>2018-06-15T12:21:20.474Z</time>
      </trkpt>
      <trkpt lat="45.97582" lon="6.34925">
        <ele>1453.47998</ele>
        <time>2018-06-15T12:21:29.497Z</time>
      </trkpt>
      <trkpt lat="45.97575" lon="6.3493">
        <ele>1452.459961</ele>
        <time>2018-06-15T12:21:38.532Z</time>
      </trkpt>
      <trkpt lat="45.97567" lon="6.34936">
        <ele>1452.030029</ele>
        <time>2018-06-15T12:21:48.470Z</time>
      </trkpt>
      <trkpt lat="45.9756" lon="6.34946">
        <ele>1451.25</ele>
        <time>2018-06-15T12:21:57.546Z</time>
      </trkpt>
      <trkpt lat="45.9755" lon="6.34956">
        <ele>1450.73999</ele>
        <time>2018-06-15T12:22:07.403Z</time>
      </trkpt>
      <trkpt lat="45.97541" lon="6.34966">
        <ele>1450.369995</ele>
        <time>2018-06-15T12:22:16.510Z</time>
      </trkpt>
      <trkpt lat="45.97535" lon="6.34977">
        <ele>1450.52002</ele>
        <time>2018-06-15T12:22:26.514Z</time>
      </trkpt>
      <trkpt lat="45.97525" lon="6.34987">
        <ele>1450.400024</ele>
        <time>2018-06-15T12:22:35.529Z</time>
      </trkpt>
      <trkpt lat="45.9752" lon="6.34998">
        <ele>1450.230103</ele>
        <time>2018-06-15T12:22:44.541Z</time>
      </trkpt>
      <trkpt lat="45.97512" lon="6.35008">
        <ele>1450.089966</ele>
        <time>2018-06-15T12:22:53.563Z</time>
      </trkpt>
      <trkpt lat="45.97505" lon="6.35017">
        <ele>1450.180054</ele>
        <time>2018-06-15T12:23:03.570Z</time>
      </trkpt>
      <trkpt lat="45.97498" lon="6.35025">
        <ele>1450.410034</ele>
        <time>2018-06-15T12:23:13.455Z</time>
      </trkpt>
      <trkpt lat="45.97488" lon="6.35035">
        <ele>1449.810059</ele>
        <time>2018-06-15T12:23:22.603Z</time>
      </trkpt>
      <trkpt lat="45.97477" lon="6.35047">
        <ele>1449.610107</ele>
        <time>2018-06-15T12:23:32.465Z</time>
      </trkpt>
      <trkpt lat="45.97469" lon="6.35059">
        <ele>1448.880005</ele>
        <time>2018-06-15T12:23:41.505Z</time>
      </trkpt>
      <trkpt lat="45.97465" lon="6.35069">
        <ele>1448.589966</ele>
        <time>2018-06-15T12:23:50.828Z</time>
      </trkpt>
      <trkpt lat="45.97458" lon="6.3508">
        <ele>1449.26001</ele>
        <time>2018-06-15T12:24:00.351Z</time>
      </trkpt>
      <trkpt lat="45.97457" lon="6.35079">
        <ele>1449.389893</ele>
        <time>2018-06-15T12:24:14.521Z</time>
      </trkpt>
      <trkpt lat="45.97444" lon="6.35074">
        <ele>1449.790039</ele>
        <time>2018-06-15T12:24:24.469Z</time>
      </trkpt>
      <trkpt lat="45.97438" lon="6.3506">
        <ele>1449.169922</ele>
        <time>2018-06-15T12:24:33.498Z</time>
      </trkpt>
      <trkpt lat="45.97433" lon="6.35046">
        <ele>1450.400024</ele>
        <time>2018-06-15T12:24:43.499Z</time>
      </trkpt>
      <trkpt lat="45.97427" lon="6.3503">
        <ele>1450.51001</ele>
        <time>2018-06-15T12:24:53.373Z</time>
      </trkpt>
      <trkpt lat="45.97422" lon="6.35016">
        <ele>1451.150024</ele>
        <time>2018-06-15T12:25:02.447Z</time>
      </trkpt>
      <trkpt lat="45.97421" lon="6.35013">
        <ele>1451.400024</ele>
        <time>2018-06-15T12:25:12.385Z</time>
      </trkpt>
      <trkpt lat="45.97425" lon="6.35013">
        <ele>1452.669922</ele>
        <time>2018-06-15T12:25:21.554Z</time>
      </trkpt>
      <trkpt lat="45.97418" lon="6.35005">
        <ele>1452.459961</ele>
        <time>2018-06-15T12:25:31.538Z</time>
      </trkpt>
      <trkpt lat="45.97407" lon="6.34997">
        <ele>1451.550049</ele>
        <time>2018-06-15T12:25:41.516Z</time>
      </trkpt>
      <trkpt lat="45.97395" lon="6.34997">
        <ele>1451</ele>
        <time>2018-06-15T12:25:51.503Z</time>
      </trkpt>
      <trkpt lat="45.97387" lon="6.34991">
        <ele>1451.010132</ele>
        <time>2018-06-15T12:26:01.492Z</time>
      </trkpt>
      <trkpt lat="45.97381" lon="6.34977">
        <ele>1451.220093</ele>
        <time>2018-06-15T12:26:11.462Z</time>
      </trkpt>
      <trkpt lat="45.97374" lon="6.34965">
        <ele>1450.579956</ele>
        <time>2018-06-15T12:26:20.517Z</time>
      </trkpt>
      <trkpt lat="45.97366" lon="6.3495">
        <ele>1449.810059</ele>
        <time>2018-06-15T12:26:30.457Z</time>
      </trkpt>
      <trkpt lat="45.97362" lon="6.3494">
        <ele>1449.040039</ele>
        <time>2018-06-15T12:26:40.510Z</time>
      </trkpt>
      <trkpt lat="45.9736" lon="6.34929">
        <ele>1448.410034</ele>
        <time>2018-06-15T12:26:50.439Z</time>
      </trkpt>
      <trkpt lat="45.97358" lon="6.34929">
        <ele>1447.76001</ele>
        <time>2018-06-15T12:27:09.505Z</time>
      </trkpt>
      <trkpt lat="45.97351" lon="6.34916">
        <ele>1447.02002</ele>
        <time>2018-06-15T12:27:19.600Z</time>
      </trkpt>
      <trkpt lat="45.97347" lon="6.349">
        <ele>1444.359985</ele>
        <time>2018-06-15T12:27:29.574Z</time>
      </trkpt>
      <trkpt lat="45.97343" lon="6.34882">
        <ele>1443.429932</ele>
        <time>2018-06-15T12:27:39.831Z</time>
      </trkpt>
      <trkpt lat="45.9734" lon="6.34871">
        <ele>1442.930054</ele>
        <time>2018-06-15T12:27:49.416Z</time>
      </trkpt>
      <trkpt lat="45.97338" lon="6.34866">
        <ele>1442.799927</ele>
        <time>2018-06-15T12:28:00.488Z</time>
      </trkpt>
      <trkpt lat="45.97335" lon="6.34864">
        <ele>1441.509888</ele>
        <time>2018-06-15T12:28:10.450Z</time>
      </trkpt>
      <trkpt lat="45.97334" lon="6.34861">
        <ele>1440.299927</ele>
        <time>2018-06-15T12:28:20.411Z</time>
      </trkpt>
      <trkpt lat="45.9733" lon="6.34847">
        <ele>1438.630005</ele>
        <time>2018-06-15T12:28:29.513Z</time>
      </trkpt>
      <trkpt lat="45.97318" lon="6.34826">
        <ele>1434.659912</ele>
        <time>2018-06-15T12:28:39.435Z</time>
      </trkpt>
      <trkpt lat="45.97311" lon="6.34816">
        <ele>1430.839966</ele>
        <time>2018-06-15T12:28:48.482Z</time>
      </trkpt>
      <trkpt lat="45.97301" lon="6.34805">
        <ele>1432.030029</ele>
        <time>2018-06-15T12:28:57.505Z</time>
      </trkpt>
      <trkpt lat="45.97292" lon="6.34793">
        <ele>1434.089966</ele>
        <time>2018-06-15T12:29:07.503Z</time>
      </trkpt>
      <trkpt lat="45.97283" lon="6.3478">
        <ele>1435.339966</ele>
        <time>2018-06-15T12:29:16.519Z</time>
      </trkpt>
      <trkpt lat="45.97276" lon="6.34771">
        <ele>1436.099976</ele>
        <time>2018-06-15T12:29:26.569Z</time>
      </trkpt>
      <trkpt lat="45.97268" lon="6.34761">
        <ele>1437.050049</ele>
        <time>2018-06-15T12:29:36.526Z</time>
      </trkpt>
      <trkpt lat="45.97261" lon="6.3475">
        <ele>1437.200073</ele>
        <time>2018-06-15T12:29:45.553Z</time>
      </trkpt>
      <trkpt lat="45.97253" lon="6.34737">
        <ele>1437.550049</ele>
        <time>2018-06-15T12:29:55.682Z</time>
      </trkpt>
      <trkpt lat="45.97247" lon="6.34725">
        <ele>1437.019897</ele>
        <time>2018-06-15T12:30:05.617Z</time>
      </trkpt>
      <trkpt lat="45.97241" lon="6.34707">
        <ele>1436.069946</ele>
        <time>2018-06-15T12:30:15.487Z</time>
      </trkpt>
      <trkpt lat="45.97239" lon="6.34702">
        <ele>1436.169922</ele>
        <time>2018-06-15T12:30:25.464Z</time>
      </trkpt>
      <trkpt lat="45.97232" lon="6.34682">
        <ele>1435.930054</ele>
        <time>2018-06-15T12:30:35.473Z</time>
      </trkpt>
      <trkpt lat="45.97228" lon="6.34674">
        <ele>1436.200073</ele>
        <time>2018-06-15T12:30:45.422Z</time>
      </trkpt>
      <trkpt lat="45.97228" lon="6.34676">
        <ele>1436.099976</ele>
        <time>2018-06-15T12:30:55.394Z</time>
      </trkpt>
      <trkpt lat="45.97229" lon="6.34677">
        <ele>1435.880005</ele>
        <time>2018-06-15T12:31:08.457Z</time>
      </trkpt>
      <trkpt lat="45.97227" lon="6.34663">
        <ele>1435.919922</ele>
        <time>2018-06-15T12:31:17.507Z</time>
      </trkpt>
      <trkpt lat="45.97222" lon="6.3465">
        <ele>1436.930054</ele>
        <time>2018-06-15T12:31:27.471Z</time>
      </trkpt>
      <trkpt lat="45.97223" lon="6.34651">
        <ele>1437.670044</ele>
        <time>2018-06-15T12:31:37.481Z</time>
      </trkpt>
      <trkpt lat="45.9722" lon="6.34635">
        <ele>1437.600098</ele>
        <time>2018-06-15T12:31:46.563Z</time>
      </trkpt>
      <trkpt lat="45.97216" lon="6.34624">
        <ele>1437.920044</ele>
        <time>2018-06-15T12:31:56.470Z</time>
      </trkpt>
      <trkpt lat="45.97215" lon="6.34607">
        <ele>1438.560059</ele>
        <time>2018-06-15T12:32:05.536Z</time>
      </trkpt>
      <trkpt lat="45.97214" lon="6.34602">
        <ele>1439</ele>
        <time>2018-06-15T12:32:15.413Z</time>
      </trkpt>
      <trkpt lat="45.97214" lon="6.34604">
        <ele>1438.359985</ele>
        <time>2018-06-15T12:32:26.436Z</time>
      </trkpt>
      <trkpt lat="45.97215" lon="6.34608">
        <ele>1437.400024</ele>
        <time>2018-06-15T12:32:36.395Z</time>
      </trkpt>
      <trkpt lat="45.97214" lon="6.34607">
        <ele>1437.670044</ele>
        <time>2018-06-15T12:32:47.455Z</time>
      </trkpt>
      <trkpt lat="45.97214" lon="6.34602">
        <ele>1437.579956</ele>
        <time>2018-06-15T12:32:57.470Z</time>
      </trkpt>
      <trkpt lat="45.97213" lon="6.34601">
        <ele>1437.400024</ele>
        <time>2018-06-15T12:33:06.484Z</time>
      </trkpt>
      <trkpt lat="45.97214" lon="6.34603">
        <ele>1437.099976</ele>
        <time>2018-06-15T12:33:33.777Z</time>
      </trkpt>
      <trkpt lat="45.97213" lon="6.34606">
        <ele>1436.710083</ele>
        <time>2018-06-15T12:33:43.431Z</time>
      </trkpt>
      <trkpt lat="45.97213" lon="6.34608">
        <ele>1436.140015</ele>
        <time>2018-06-15T12:33:52.458Z</time>
      </trkpt>
      <trkpt lat="45.97213" lon="6.34606">
        <ele>1435.460083</ele>
        <time>2018-06-15T12:34:02.443Z</time>
      </trkpt>
      <trkpt lat="45.97212" lon="6.34603">
        <ele>1436.429932</ele>
        <time>2018-06-15T12:34:11.609Z</time>
      </trkpt>
      <trkpt lat="45.97207" lon="6.34595">
        <ele>1436.900024</ele>
        <time>2018-06-15T12:34:21.494Z</time>
      </trkpt>
      <trkpt lat="45.97209" lon="6.34591">
        <ele>1436.429932</ele>
        <time>2018-06-15T12:34:31.501Z</time>
      </trkpt>
      <trkpt lat="45.97209" lon="6.34587">
        <ele>1436.77002</ele>
        <time>2018-06-15T12:34:41.449Z</time>
      </trkpt>
      <trkpt lat="45.97204" lon="6.34574">
        <ele>1436.880005</ele>
        <time>2018-06-15T12:34:50.475Z</time>
      </trkpt>
      <trkpt lat="45.97202" lon="6.34565">
        <ele>1437.600098</ele>
        <time>2018-06-15T12:35:00.362Z</time>
      </trkpt>
      <trkpt lat="45.97196" lon="6.3455">
        <ele>1438.190063</ele>
        <time>2018-06-15T12:35:09.502Z</time>
      </trkpt>
      <trkpt lat="45.97191" lon="6.34538">
        <ele>1438.939941</ele>
        <time>2018-06-15T12:35:18.515Z</time>
      </trkpt>
      <trkpt lat="45.97183" lon="6.34524">
        <ele>1439.390015</ele>
        <time>2018-06-15T12:35:28.451Z</time>
      </trkpt>
      <trkpt lat="45.97181" lon="6.34523">
        <ele>1438.880005</ele>
        <time>2018-06-15T12:35:37.855Z</time>
      </trkpt>
      <trkpt lat="45.97183" lon="6.34522">
        <ele>1439.369873</ele>
        <time>2018-06-15T12:35:48.539Z</time>
      </trkpt>
      <trkpt lat="45.97182" lon="6.34511">
        <ele>1438.660034</ele>
        <time>2018-06-15T12:35:57.661Z</time>
      </trkpt>
      <trkpt lat="45.97182" lon="6.34497">
        <ele>1438.820068</ele>
        <time>2018-06-15T12:36:07.478Z</time>
      </trkpt>
      <trkpt lat="45.97186" lon="6.3449">
        <ele>1439.170044</ele>
        <time>2018-06-15T12:36:17.401Z</time>
      </trkpt>
      <trkpt lat="45.97186" lon="6.34482">
        <ele>1438.839966</ele>
        <time>2018-06-15T12:36:26.554Z</time>
      </trkpt>
      <trkpt lat="45.97189" lon="6.34466">
        <ele>1438.009888</ele>
        <time>2018-06-15T12:36:36.470Z</time>
      </trkpt>
      <trkpt lat="45.97189" lon="6.34464">
        <ele>1438.120117</ele>
        <time>2018-06-15T12:36:47.428Z</time>
      </trkpt>
      <trkpt lat="45.97192" lon="6.34448">
        <ele>1436.640015</ele>
        <time>2018-06-15T12:36:56.544Z</time>
      </trkpt>
      <trkpt lat="45.97193" lon="6.34442">
        <ele>1437.099976</ele>
        <time>2018-06-15T12:37:06.390Z</time>
      </trkpt>
      <trkpt lat="45.97194" lon="6.34435">
        <ele>1437.97998</ele>
        <time>2018-06-15T12:37:15.545Z</time>
      </trkpt>
      <trkpt lat="45.97192" lon="6.34416">
        <ele>1437.600098</ele>
        <time>2018-06-15T12:37:25.410Z</time>
      </trkpt>
      <trkpt lat="45.97185" lon="6.34399">
        <ele>1437.880005</ele>
        <time>2018-06-15T12:37:34.462Z</time>
      </trkpt>
      <trkpt lat="45.97181" lon="6.34393">
        <ele>1438.98999</ele>
        <time>2018-06-15T12:37:43.478Z</time>
      </trkpt>
      <trkpt lat="45.97182" lon="6.34391">
        <ele>1439.299927</ele>
        <time>2018-06-15T12:37:56.551Z</time>
      </trkpt>
      <trkpt lat="45.97179" lon="6.34384">
        <ele>1439.180054</ele>
        <time>2018-06-15T12:38:06.438Z</time>
      </trkpt>
      <trkpt lat="45.97174" lon="6.34375">
        <ele>1439.929932</ele>
        <time>2018-06-15T12:38:15.460Z</time>
      </trkpt>
      <trkpt lat="45.97169" lon="6.34366">
        <ele>1440.290039</ele>
        <time>2018-06-15T12:38:24.553Z</time>
      </trkpt>
      <trkpt lat="45.97165" lon="6.34356">
        <ele>1440.869995</ele>
        <time>2018-06-15T12:38:33.614Z</time>
      </trkpt>
      <trkpt lat="45.97162" lon="6.34346">
        <ele>1438.859985</ele>
        <time>2018-06-15T12:38:43.528Z</time>
      </trkpt>
      <trkpt lat="45.97159" lon="6.34333">
        <ele>1440.23999</ele>
        <time>2018-06-15T12:38:52.559Z</time>
      </trkpt>
      <trkpt lat="45.97157" lon="6.34323">
        <ele>1440.22998</ele>
        <time>2018-06-15T12:39:01.939Z</time>
      </trkpt>
      <trkpt lat="45.97155" lon="6.34309">
        <ele>1440.079956</ele>
        <time>2018-06-15T12:39:11.388Z</time>
      </trkpt>
      <trkpt lat="45.9715" lon="6.34298">
        <ele>1441.460083</ele>
        <time>2018-06-15T12:39:20.447Z</time>
      </trkpt>
      <trkpt lat="45.97147" lon="6.3429">
        <ele>1443.119995</ele>
        <time>2018-06-15T12:39:29.469Z</time>
      </trkpt>
      <trkpt lat="45.97143" lon="6.34278">
        <ele>1442.919922</ele>
        <time>2018-06-15T12:39:39.509Z</time>
      </trkpt>
      <trkpt lat="45.97141" lon="6.34269">
        <ele>1444.369995</ele>
        <time>2018-06-15T12:39:49.400Z</time>
      </trkpt>
      <trkpt lat="45.97138" lon="6.34263">
        <ele>1444.97998</ele>
        <time>2018-06-15T12:39:58.405Z</time>
      </trkpt>
      <trkpt lat="45.97134" lon="6.34253">
        <ele>1444.97998</ele>
        <time>2018-06-15T12:40:07.443Z</time>
      </trkpt>
      <trkpt lat="45.97127" lon="6.34245">
        <ele>1445.889893</ele>
        <time>2018-06-15T12:40:16.457Z</time>
      </trkpt>
      <trkpt lat="45.97122" lon="6.34232">
        <ele>1445.939941</ele>
        <time>2018-06-15T12:40:26.431Z</time>
      </trkpt>
      <trkpt lat="45.9712" lon="6.34217">
        <ele>1446.72998</ele>
        <time>2018-06-15T12:40:35.525Z</time>
      </trkpt>
      <trkpt lat="45.97112" lon="6.34204">
        <ele>1448.209961</ele>
        <time>2018-06-15T12:40:45.485Z</time>
      </trkpt>
      <trkpt lat="45.97111" lon="6.34194">
        <ele>1449.179932</ele>
        <time>2018-06-15T12:40:54.702Z</time>
      </trkpt>
      <trkpt lat="45.97109" lon="6.34194">
        <ele>1449.949951</ele>
        <time>2018-06-15T12:41:04.578Z</time>
      </trkpt>
      <trkpt lat="45.97105" lon="6.34194">
        <ele>1449.050049</ele>
        <time>2018-06-15T12:41:14.449Z</time>
      </trkpt>
      <trkpt lat="45.97099" lon="6.34195">
        <ele>1450.01001</ele>
        <time>2018-06-15T12:41:23.512Z</time>
      </trkpt>
      <trkpt lat="45.97091" lon="6.34198">
        <ele>1450.869995</ele>
        <time>2018-06-15T12:41:33.497Z</time>
      </trkpt>
      <trkpt lat="45.97085" lon="6.34204">
        <ele>1451.469971</ele>
        <time>2018-06-15T12:41:43.521Z</time>
      </trkpt>
      <trkpt lat="45.97071" lon="6.34214">
        <ele>1451.97998</ele>
        <time>2018-06-15T12:41:53.437Z</time>
      </trkpt>
      <trkpt lat="45.97059" lon="6.34223">
        <ele>1453.100098</ele>
        <time>2018-06-15T12:42:03.499Z</time>
      </trkpt>
      <trkpt lat="45.97049" lon="6.34218">
        <ele>1452.72998</ele>
        <time>2018-06-15T12:42:13.463Z</time>
      </trkpt>
      <trkpt lat="45.97042" lon="6.34206">
        <ele>1451.629883</ele>
        <time>2018-06-15T12:42:23.460Z</time>
      </trkpt>
      <trkpt lat="45.97037" lon="6.34195">
        <ele>1452.320068</ele>
        <time>2018-06-15T12:42:33.450Z</time>
      </trkpt>
      <trkpt lat="45.97033" lon="6.34186">
        <ele>1453.030029</ele>
        <time>2018-06-15T12:42:42.460Z</time>
      </trkpt>
      <trkpt lat="45.97026" lon="6.34179">
        <ele>1453.869995</ele>
        <time>2018-06-15T12:42:51.544Z</time>
      </trkpt>
      <trkpt lat="45.97019" lon="6.3417">
        <ele>1454.909912</ele>
        <time>2018-06-15T12:43:01.466Z</time>
      </trkpt>
      <trkpt lat="45.97017" lon="6.34166">
        <ele>1455.900024</ele>
        <time>2018-06-15T12:43:11.344Z</time>
      </trkpt>
      <trkpt lat="45.97014" lon="6.3416">
        <ele>1457.159912</ele>
        <time>2018-06-15T12:43:20.459Z</time>
      </trkpt>
      <trkpt lat="45.97004" lon="6.34147">
        <ele>1457.309937</ele>
        <time>2018-06-15T12:43:30.421Z</time>
      </trkpt>
      <trkpt lat="45.96997" lon="6.34134">
        <ele>1457.309937</ele>
        <time>2018-06-15T12:43:39.478Z</time>
      </trkpt>
      <trkpt lat="45.96991" lon="6.34123">
        <ele>1457.109985</ele>
        <time>2018-06-15T12:43:48.480Z</time>
      </trkpt>
      <trkpt lat="45.96984" lon="6.34112">
        <ele>1457.77002</ele>
        <time>2018-06-15T12:43:57.529Z</time>
      </trkpt>
      <trkpt lat="45.96978" lon="6.341">
        <ele>1457.309937</ele>
        <time>2018-06-15T12:44:07.504Z</time>
      </trkpt>
      <trkpt lat="45.96978" lon="6.34099">
        <ele>1457.700073</ele>
        <time>2018-06-15T12:44:17.424Z</time>
      </trkpt>
      <trkpt lat="45.96978" lon="6.34098">
        <ele>1458.070068</ele>
        <time>2018-06-15T12:44:33.454Z</time>
      </trkpt>
      <trkpt lat="45.96971" lon="6.34089">
        <ele>1457.359985</ele>
        <time>2018-06-15T12:44:43.391Z</time>
      </trkpt>
      <trkpt lat="45.96964" lon="6.34081">
        <ele>1457.960083</ele>
        <time>2018-06-15T12:44:52.858Z</time>
      </trkpt>
      <trkpt lat="45.96959" lon="6.34065">
        <ele>1456.970093</ele>
        <time>2018-06-15T12:45:02.429Z</time>
      </trkpt>
      <trkpt lat="45.96952" lon="6.34052">
        <ele>1455.27002</ele>
        <time>2018-06-15T12:45:11.452Z</time>
      </trkpt>
      <trkpt lat="45.96948" lon="6.34038">
        <ele>1454.98999</ele>
        <time>2018-06-15T12:45:21.423Z</time>
      </trkpt>
      <trkpt lat="45.9694" lon="6.34026">
        <ele>1455.549927</ele>
        <time>2018-06-15T12:45:30.453Z</time>
      </trkpt>
      <trkpt lat="45.96932" lon="6.34016">
        <ele>1454.329956</ele>
        <time>2018-06-15T12:45:39.545Z</time>
      </trkpt>
      <trkpt lat="45.96927" lon="6.34007">
        <ele>1454.430054</ele>
        <time>2018-06-15T12:45:49.510Z</time>
      </trkpt>
      <trkpt lat="45.96922" lon="6.33997">
        <ele>1455.400024</ele>
        <time>2018-06-15T12:45:59.460Z</time>
      </trkpt>
      <trkpt lat="45.96918" lon="6.33988">
        <ele>1455.640015</ele>
        <time>2018-06-15T12:46:08.462Z</time>
      </trkpt>
      <trkpt lat="45.96912" lon="6.33986">
        <ele>1455.77002</ele>
        <time>2018-06-15T12:46:17.653Z</time>
      </trkpt>
      <trkpt lat="45.96901" lon="6.33996">
        <ele>1455.099976</ele>
        <time>2018-06-15T12:46:27.509Z</time>
      </trkpt>
      <trkpt lat="45.9689" lon="6.34005">
        <ele>1454.130005</ele>
        <time>2018-06-15T12:46:37.420Z</time>
      </trkpt>
      <trkpt lat="45.96882" lon="6.34012">
        <ele>1453.650024</ele>
        <time>2018-06-15T12:46:46.468Z</time>
      </trkpt>
      <trkpt lat="45.96874" lon="6.3402">
        <ele>1452.559937</ele>
        <time>2018-06-15T12:46:55.579Z</time>
      </trkpt>
      <trkpt lat="45.96867" lon="6.34026">
        <ele>1450.829956</ele>
        <time>2018-06-15T12:47:05.468Z</time>
      </trkpt>
      <trkpt lat="45.96858" lon="6.34034">
        <ele>1450.679932</ele>
        <time>2018-06-15T12:47:15.503Z</time>
      </trkpt>
      <trkpt lat="45.9685" lon="6.34042">
        <ele>1451.26001</ele>
        <time>2018-06-15T12:47:25.463Z</time>
      </trkpt>
      <trkpt lat="45.96845" lon="6.34048">
        <ele>1450.600098</ele>
        <time>2018-06-15T12:47:35.408Z</time>
      </trkpt>
      <trkpt lat="45.96837" lon="6.34055">
        <ele>1451.390015</ele>
        <time>2018-06-15T12:47:44.423Z</time>
      </trkpt>
      <trkpt lat="45.96832" lon="6.3406">
        <ele>1452.070068</ele>
        <time>2018-06-15T12:47:54.467Z</time>
      </trkpt>
      <trkpt lat="45.96827" lon="6.34064">
        <ele>1452.959961</ele>
        <time>2018-06-15T12:48:04.523Z</time>
      </trkpt>
      <trkpt lat="45.96823" lon="6.34068">
        <ele>1454.090088</ele>
        <time>2018-06-15T12:48:13.618Z</time>
      </trkpt>
      <trkpt lat="45.96821" lon="6.34064">
        <ele>1453.900024</ele>
        <time>2018-06-15T12:48:23.432Z</time>
      </trkpt>
      <trkpt lat="45.96819" lon="6.34063">
        <ele>1454.799927</ele>
        <time>2018-06-15T12:48:33.726Z</time>
      </trkpt>
      <trkpt lat="45.96818" lon="6.34061">
        <ele>1454.649902</ele>
        <time>2018-06-15T12:48:54.428Z</time>
      </trkpt>
      <trkpt lat="45.96817" lon="6.34059">
        <ele>1455</ele>
        <time>2018-06-15T12:49:17.529Z</time>
      </trkpt>
      <trkpt lat="45.96811" lon="6.34047">
        <ele>1454.48999</ele>
        <time>2018-06-15T12:49:26.686Z</time>
      </trkpt>
      <trkpt lat="45.96805" lon="6.34035">
        <ele>1453.900024</ele>
        <time>2018-06-15T12:49:36.467Z</time>
      </trkpt>
      <trkpt lat="45.96802" lon="6.34029">
        <ele>1454.170044</ele>
        <time>2018-06-15T12:49:46.444Z</time>
      </trkpt>
      <trkpt lat="45.96798" lon="6.34021">
        <ele>1454.619995</ele>
        <time>2018-06-15T12:49:56.691Z</time>
      </trkpt>
      <trkpt lat="45.96795" lon="6.34011">
        <ele>1454.570068</ele>
        <time>2018-06-15T12:50:06.439Z</time>
      </trkpt>
      <trkpt lat="45.96793" lon="6.33994">
        <ele>1455.209961</ele>
        <time>2018-06-15T12:50:15.495Z</time>
      </trkpt>
      <trkpt lat="45.96787" lon="6.3398">
        <ele>1457.400024</ele>
        <time>2018-06-15T12:50:25.467Z</time>
      </trkpt>
      <trkpt lat="45.96779" lon="6.33965">
        <ele>1457.969971</ele>
        <time>2018-06-15T12:50:35.370Z</time>
      </trkpt>
      <trkpt lat="45.96774" lon="6.33959">
        <ele>1459.079956</ele>
        <time>2018-06-15T12:50:45.537Z</time>
      </trkpt>
      <trkpt lat="45.96766" lon="6.3395">
        <ele>1461.539917</ele>
        <time>2018-06-15T12:50:54.639Z</time>
      </trkpt>
      <trkpt lat="45.96758" lon="6.33942">
        <ele>1463.710083</ele>
        <time>2018-06-15T12:51:04.490Z</time>
      </trkpt>
      <trkpt lat="45.96751" lon="6.33941">
        <ele>1464.810059</ele>
        <time>2018-06-15T12:51:14.441Z</time>
      </trkpt>
      <trkpt lat="45.96741" lon="6.33939">
        <ele>1467.01001</ele>
        <time>2018-06-15T12:51:23.475Z</time>
      </trkpt>
      <trkpt lat="45.96735" lon="6.33934">
        <ele>1465.52002</ele>
        <time>2018-06-15T12:51:33.430Z</time>
      </trkpt>
      <trkpt lat="45.96734" lon="6.33932">
        <ele>1464.869995</ele>
        <time>2018-06-15T12:51:45.447Z</time>
      </trkpt>
      <trkpt lat="45.96729" lon="6.33923">
        <ele>1465.030029</ele>
        <time>2018-06-15T12:51:54.530Z</time>
      </trkpt>
      <trkpt lat="45.96725" lon="6.33915">
        <ele>1466.390015</ele>
        <time>2018-06-15T12:52:04.553Z</time>
      </trkpt>
      <trkpt lat="45.96719" lon="6.33904">
        <ele>1467.47998</ele>
        <time>2018-06-15T12:52:14.469Z</time>
      </trkpt>
      <trkpt lat="45.96716" lon="6.33905">
        <ele>1468.300049</ele>
        <time>2018-06-15T12:52:24.353Z</time>
      </trkpt>
      <trkpt lat="45.96716" lon="6.33904">
        <ele>1467.25</ele>
        <time>2018-06-15T12:52:36.405Z</time>
      </trkpt>
      <trkpt lat="45.96715" lon="6.33902">
        <ele>1467.570068</ele>
        <time>2018-06-15T12:52:45.487Z</time>
      </trkpt>
      <trkpt lat="45.96713" lon="6.339">
        <ele>1465.400024</ele>
        <time>2018-06-15T12:52:55.440Z</time>
      </trkpt>
      <trkpt lat="45.96716" lon="6.33901">
        <ele>1464.800049</ele>
        <time>2018-06-15T12:53:04.480Z</time>
      </trkpt>
      <trkpt lat="45.96715" lon="6.33897">
        <ele>1467.209961</ele>
        <time>2018-06-15T12:53:13.567Z</time>
      </trkpt>
      <trkpt lat="45.96715" lon="6.339">
        <ele>1466.329956</ele>
        <time>2018-06-15T12:53:23.346Z</time>
      </trkpt>
      <trkpt lat="45.96714" lon="6.33901">
        <ele>1467.799927</ele>
        <time>2018-06-15T12:53:32.385Z</time>
      </trkpt>
      <trkpt lat="45.96715" lon="6.33901">
        <ele>1467.350098</ele>
        <time>2018-06-15T12:53:55.484Z</time>
      </trkpt>
      <trkpt lat="45.96714" lon="6.33901">
        <ele>1466.47998</ele>
        <time>2018-06-15T12:54:19.402Z</time>
      </trkpt>
      <trkpt lat="45.96714" lon="6.33899">
        <ele>1465.869995</ele>
        <time>2018-06-15T12:54:57.465Z</time>
      </trkpt>
      <trkpt lat="45.96709" lon="6.3389">
        <ele>1464.819946</ele>
        <time>2018-06-15T12:55:07.478Z</time>
      </trkpt>
      <trkpt lat="45.96706" lon="6.33884">
        <ele>1464.140015</ele>
        <time>2018-06-15T12:55:17.515Z</time>
      </trkpt>
      <trkpt lat="45.967" lon="6.33874">
        <ele>1463.120117</ele>
        <time>2018-06-15T12:55:26.520Z</time>
      </trkpt>
      <trkpt lat="45.96695" lon="6.33864">
        <ele>1463.5</ele>
        <time>2018-06-15T12:55:36.612Z</time>
      </trkpt>
      <trkpt lat="45.96689" lon="6.33853">
        <ele>1465.160034</ele>
        <time>2018-06-15T12:55:45.653Z</time>
      </trkpt>
      <trkpt lat="45.96685" lon="6.33842">
        <ele>1465.25</ele>
        <time>2018-06-15T12:55:55.403Z</time>
      </trkpt>
      <trkpt lat="45.96684" lon="6.33837">
        <ele>1465.640015</ele>
        <time>2018-06-15T12:56:04.528Z</time>
      </trkpt>
      <trkpt lat="45.96682" lon="6.33837">
        <ele>1465.400024</ele>
        <time>2018-06-15T12:56:14.367Z</time>
      </trkpt>
      <trkpt lat="45.96681" lon="6.33836">
        <ele>1466.339966</ele>
        <time>2018-06-15T12:56:32.563Z</time>
      </trkpt>
      <trkpt lat="45.96678" lon="6.33833">
        <ele>1466.769897</ele>
        <time>2018-06-15T12:56:42.428Z</time>
      </trkpt>
      <trkpt lat="45.96673" lon="6.33822">
        <ele>1466.819946</ele>
        <time>2018-06-15T12:56:51.542Z</time>
      </trkpt>
      <trkpt lat="45.96667" lon="6.33815">
        <ele>1466.27002</ele>
        <time>2018-06-15T12:57:01.387Z</time>
      </trkpt>
      <trkpt lat="45.96662" lon="6.3381">
        <ele>1466.349976</ele>
        <time>2018-06-15T12:57:10.533Z</time>
      </trkpt>
      <trkpt lat="45.96658" lon="6.33805">
        <ele>1466.060059</ele>
        <time>2018-06-15T12:57:20.397Z</time>
      </trkpt>
      <trkpt lat="45.96651" lon="6.33801">
        <ele>1466.119995</ele>
        <time>2018-06-15T12:57:29.560Z</time>
      </trkpt>
      <trkpt lat="45.96649" lon="6.33797">
        <ele>1466.200073</ele>
        <time>2018-06-15T12:57:38.778Z</time>
      </trkpt>
      <trkpt lat="45.96647" lon="6.33795">
        <ele>1464.339966</ele>
        <time>2018-06-15T12:58:03.644Z</time>
      </trkpt>
      <trkpt lat="45.96639" lon="6.33785">
        <ele>1466.119995</ele>
        <time>2018-06-15T12:58:13.451Z</time>
      </trkpt>
      <trkpt lat="45.96637" lon="6.3378">
        <ele>1468.050049</ele>
        <time>2018-06-15T12:58:22.499Z</time>
      </trkpt>
      <trkpt lat="45.96633" lon="6.33773">
        <ele>1468.420044</ele>
        <time>2018-06-15T12:58:31.579Z</time>
      </trkpt>
      <trkpt lat="45.96628" lon="6.33764">
        <ele>1468.150024</ele>
        <time>2018-06-15T12:58:41.558Z</time>
      </trkpt>
      <trkpt lat="45.9662" lon="6.33753">
        <ele>1468.839966</ele>
        <time>2018-06-15T12:58:50.569Z</time>
      </trkpt>
      <trkpt lat="45.96614" lon="6.33747">
        <ele>1468.849976</ele>
        <time>2018-06-15T12:59:00.585Z</time>
      </trkpt>
      <trkpt lat="45.96607" lon="6.3374">
        <ele>1468.059937</ele>
        <time>2018-06-15T12:59:09.633Z</time>
      </trkpt>
      <trkpt lat="45.96605" lon="6.33739">
        <ele>1468.400024</ele>
        <time>2018-06-15T12:59:19.483Z</time>
      </trkpt>
      <trkpt lat="45.96603" lon="6.33737">
        <ele>1467.439941</ele>
        <time>2018-06-15T12:59:28.565Z</time>
      </trkpt>
      <trkpt lat="45.96603" lon="6.33735">
        <ele>1467.599976</ele>
        <time>2018-06-15T12:59:38.502Z</time>
      </trkpt>
      <trkpt lat="45.96603" lon="6.33733">
        <ele>1467.589966</ele>
        <time>2018-06-15T12:59:47.585Z</time>
      </trkpt>
      <trkpt lat="45.966" lon="6.3373">
        <ele>1468.319946</ele>
        <time>2018-06-15T12:59:57.561Z</time>
      </trkpt>
      <trkpt lat="45.96596" lon="6.33724">
        <ele>1468.380005</ele>
        <time>2018-06-15T13:00:07.620Z</time>
      </trkpt>
      <trkpt lat="45.96588" lon="6.33714">
        <ele>1468.670044</ele>
        <time>2018-06-15T13:00:17.569Z</time>
      </trkpt>
      <trkpt lat="45.96581" lon="6.33703">
        <ele>1468.959961</ele>
        <time>2018-06-15T13:00:27.489Z</time>
      </trkpt>
      <trkpt lat="45.96575" lon="6.33694">
        <ele>1470.800049</ele>
        <time>2018-06-15T13:00:36.598Z</time>
      </trkpt>
      <trkpt lat="45.96568" lon="6.33682">
        <ele>1471.149902</ele>
        <time>2018-06-15T13:00:46.489Z</time>
      </trkpt>
      <trkpt lat="45.9656" lon="6.33672">
        <ele>1472.039917</ele>
        <time>2018-06-15T13:00:56.563Z</time>
      </trkpt>
      <trkpt lat="45.96554" lon="6.33662">
        <ele>1472.719971</ele>
        <time>2018-06-15T13:01:05.638Z</time>
      </trkpt>
      <trkpt lat="45.96546" lon="6.33652">
        <ele>1473.390015</ele>
        <time>2018-06-15T13:01:14.734Z</time>
      </trkpt>
      <trkpt lat="45.96546" lon="6.33649">
        <ele>1474.030029</ele>
        <time>2018-06-15T13:01:23.746Z</time>
      </trkpt>
      <trkpt lat="45.96541" lon="6.33644">
        <ele>1473.189941</ele>
        <time>2018-06-15T13:01:33.497Z</time>
      </trkpt>
      <trkpt lat="45.96533" lon="6.33629">
        <ele>1474.050049</ele>
        <time>2018-06-15T13:01:43.665Z</time>
      </trkpt>
      <trkpt lat="45.96529" lon="6.33624">
        <ele>1472.559937</ele>
        <time>2018-06-15T13:01:53.575Z</time>
      </trkpt>
      <trkpt lat="45.96529" lon="6.33622">
        <ele>1471.969971</ele>
        <time>2018-06-15T13:02:15.527Z</time>
      </trkpt>
      <trkpt lat="45.96521" lon="6.33609">
        <ele>1473.599976</ele>
        <time>2018-06-15T13:02:24.540Z</time>
      </trkpt>
      <trkpt lat="45.96514" lon="6.33599">
        <ele>1475.650024</ele>
        <time>2018-06-15T13:02:33.636Z</time>
      </trkpt>
      <trkpt lat="45.96506" lon="6.33586">
        <ele>1477.800049</ele>
        <time>2018-06-15T13:02:42.673Z</time>
      </trkpt>
      <trkpt lat="45.96495" lon="6.33575">
        <ele>1479.759888</ele>
        <time>2018-06-15T13:02:52.503Z</time>
      </trkpt>
      <trkpt lat="45.96495" lon="6.3357">
        <ele>1480</ele>
        <time>2018-06-15T13:03:02.560Z</time>
      </trkpt>
      <trkpt lat="45.96496" lon="6.3357">
        <ele>1480</ele>
        <time>2018-06-15T13:03:12.463Z</time>
      </trkpt>
      <trkpt lat="45.96495" lon="6.3357">
        <ele>1480.450073</ele>
        <time>2018-06-15T13:03:24.594Z</time>
      </trkpt>
      <trkpt lat="45.96495" lon="6.33573">
        <ele>1481</ele>
        <time>2018-06-15T13:03:34.458Z</time>
      </trkpt>
      <trkpt lat="45.96495" lon="6.33571">
        <ele>1481.569946</ele>
        <time>2018-06-15T13:03:43.526Z</time>
      </trkpt>
      <trkpt lat="45.96492" lon="6.33564">
        <ele>1483.079956</ele>
        <time>2018-06-15T13:03:52.673Z</time>
      </trkpt>
      <trkpt lat="45.96494" lon="6.33565">
        <ele>1485</ele>
        <time>2018-06-15T13:04:02.474Z</time>
      </trkpt>
      <trkpt lat="45.96495" lon="6.33565">
        <ele>1485.559937</ele>
        <time>2018-06-15T13:04:11.513Z</time>
      </trkpt>
      <trkpt lat="45.96487" lon="6.33554">
        <ele>1484.879883</ele>
        <time>2018-06-15T13:04:20.542Z</time>
      </trkpt>
      <trkpt lat="45.96478" lon="6.3354">
        <ele>1483.309937</ele>
        <time>2018-06-15T13:04:30.571Z</time>
      </trkpt>
      <trkpt lat="45.96468" lon="6.33531">
        <ele>1483.419922</ele>
        <time>2018-06-15T13:04:39.742Z</time>
      </trkpt>
      <trkpt lat="45.96468" lon="6.3353">
        <ele>1483.76001</ele>
        <time>2018-06-15T13:05:07.482Z</time>
      </trkpt>
      <trkpt lat="45.96461" lon="6.33518">
        <ele>1484.01001</ele>
        <time>2018-06-15T13:05:16.655Z</time>
      </trkpt>
      <trkpt lat="45.96453" lon="6.33508">
        <ele>1485.26001</ele>
        <time>2018-06-15T13:05:26.553Z</time>
      </trkpt>
      <trkpt lat="45.96446" lon="6.335">
        <ele>1486.25</ele>
        <time>2018-06-15T13:05:35.605Z</time>
      </trkpt>
      <trkpt lat="45.96439" lon="6.3349">
        <ele>1487.090088</ele>
        <time>2018-06-15T13:05:44.948Z</time>
      </trkpt>
      <trkpt lat="45.96427" lon="6.33479">
        <ele>1488.47998</ele>
        <time>2018-06-15T13:05:54.460Z</time>
      </trkpt>
      <trkpt lat="45.96416" lon="6.33473">
        <ele>1488.939941</ele>
        <time>2018-06-15T13:06:03.555Z</time>
      </trkpt>
      <trkpt lat="45.96407" lon="6.33468">
        <ele>1488.789917</ele>
        <time>2018-06-15T13:06:12.618Z</time>
      </trkpt>
      <trkpt lat="45.96394" lon="6.33462">
        <ele>1489.669922</ele>
        <time>2018-06-15T13:06:22.577Z</time>
      </trkpt>
      <trkpt lat="45.96389" lon="6.33445">
        <ele>1488.780029</ele>
        <time>2018-06-15T13:06:32.549Z</time>
      </trkpt>
      <trkpt lat="45.96387" lon="6.33447">
        <ele>1488.199951</ele>
        <time>2018-06-15T13:06:42.455Z</time>
      </trkpt>
      <trkpt lat="45.96387" lon="6.3345">
        <ele>1487.600098</ele>
        <time>2018-06-15T13:07:52.550Z</time>
      </trkpt>
      <trkpt lat="45.96389" lon="6.33438">
        <ele>1488</ele>
        <time>2018-06-15T13:08:02.584Z</time>
      </trkpt>
      <trkpt lat="45.96389" lon="6.33423">
        <ele>1488.579956</ele>
        <time>2018-06-15T13:08:12.554Z</time>
      </trkpt>
      <trkpt lat="45.96391" lon="6.33408">
        <ele>1489.640015</ele>
        <time>2018-06-15T13:08:22.532Z</time>
      </trkpt>
      <trkpt lat="45.96393" lon="6.334">
        <ele>1491.410034</ele>
        <time>2018-06-15T13:08:32.561Z</time>
      </trkpt>
      <trkpt lat="45.96393" lon="6.334">
        <ele>1492.980103</ele>
        <time>2018-06-15T13:09:38.592Z</time>
      </trkpt>
      <trkpt lat="45.96393" lon="6.33393">
        <ele>1494.300049</ele>
        <time>2018-06-15T13:09:48.550Z</time>
      </trkpt>
      <trkpt lat="45.96394" lon="6.33391">
        <ele>1494.379883</ele>
        <time>2018-06-15T13:09:59.550Z</time>
      </trkpt>
      <trkpt lat="45.96394" lon="6.33388">
        <ele>1494.800049</ele>
        <time>2018-06-15T13:10:09.438Z</time>
      </trkpt>
      <trkpt lat="45.96396" lon="6.33377">
        <ele>1495.969971</ele>
        <time>2018-06-15T13:10:18.599Z</time>
      </trkpt>
      <trkpt lat="45.96401" lon="6.33366">
        <ele>1496.280029</ele>
        <time>2018-06-15T13:10:27.621Z</time>
      </trkpt>
      <trkpt lat="45.96404" lon="6.33357">
        <ele>1495.920044</ele>
        <time>2018-06-15T13:10:37.603Z</time>
      </trkpt>
      <trkpt lat="45.96404" lon="6.33347">
        <ele>1494.849976</ele>
        <time>2018-06-15T13:10:50.555Z</time>
      </trkpt>
      <trkpt lat="45.96403" lon="6.33348">
        <ele>1494.529907</ele>
        <time>2018-06-15T13:10:59.567Z</time>
      </trkpt>
      <trkpt lat="45.96397" lon="6.33353">
        <ele>1494.140015</ele>
        <time>2018-06-15T13:11:08.591Z</time>
      </trkpt>
      <trkpt lat="45.96402" lon="6.33347">
        <ele>1493.25</ele>
        <time>2018-06-15T13:11:18.550Z</time>
      </trkpt>
      <trkpt lat="45.96409" lon="6.33339">
        <ele>1494.400024</ele>
        <time>2018-06-15T13:11:27.606Z</time>
      </trkpt>
      <trkpt lat="45.96413" lon="6.33328">
        <ele>1494.400024</ele>
        <time>2018-06-15T13:11:37.696Z</time>
      </trkpt>
      <trkpt lat="45.96421" lon="6.33317">
        <ele>1494.199951</ele>
        <time>2018-06-15T13:11:47.480Z</time>
      </trkpt>
      <trkpt lat="45.96425" lon="6.33307">
        <ele>1494.290039</ele>
        <time>2018-06-15T13:11:56.565Z</time>
      </trkpt>
      <trkpt lat="45.96428" lon="6.33297">
        <ele>1494.5</ele>
        <time>2018-06-15T13:12:06.503Z</time>
      </trkpt>
      <trkpt lat="45.96429" lon="6.33293">
        <ele>1495.099976</ele>
        <time>2018-06-15T13:12:16.633Z</time>
      </trkpt>
      <trkpt lat="45.96422" lon="6.33296">
        <ele>1493.51001</ele>
        <time>2018-06-15T13:12:26.550Z</time>
      </trkpt>
      <trkpt lat="45.96428" lon="6.33309">
        <ele>1494.540039</ele>
        <time>2018-06-15T13:12:35.560Z</time>
      </trkpt>
      <trkpt lat="45.9643" lon="6.33311">
        <ele>1495.599976</ele>
        <time>2018-06-15T13:12:45.449Z</time>
      </trkpt>
      <trkpt lat="45.9643" lon="6.33307">
        <ele>1495.099976</ele>
        <time>2018-06-15T13:12:55.419Z</time>
      </trkpt>
      <trkpt lat="45.96428" lon="6.33307">
        <ele>1494.130005</ele>
        <time>2018-06-15T13:13:38.801Z</time>
      </trkpt>
      <trkpt lat="45.96429" lon="6.33312">
        <ele>1493.429932</ele>
        <time>2018-06-15T13:13:48.500Z</time>
      </trkpt>
      <trkpt lat="45.96431" lon="6.33314">
        <ele>1493.72998</ele>
        <time>2018-06-15T13:13:58.585Z</time>
      </trkpt>
      <trkpt lat="45.96431" lon="6.33317">
        <ele>1496.530029</ele>
        <time>2018-06-15T13:14:08.611Z</time>
      </trkpt>
      <trkpt lat="45.96437" lon="6.33329">
        <ele>1496.709961</ele>
        <time>2018-06-15T13:14:18.507Z</time>
      </trkpt>
      <trkpt lat="45.96447" lon="6.33339">
        <ele>1497.719971</ele>
        <time>2018-06-15T13:14:28.491Z</time>
      </trkpt>
      <trkpt lat="45.9646" lon="6.33347">
        <ele>1492.920044</ele>
        <time>2018-06-15T13:14:38.584Z</time>
      </trkpt>
      <trkpt lat="45.96471" lon="6.33352">
        <ele>1489.900024</ele>
        <time>2018-06-15T13:14:48.539Z</time>
      </trkpt>
      <trkpt lat="45.9648" lon="6.33362">
        <ele>1489.110107</ele>
        <time>2018-06-15T13:14:58.494Z</time>
      </trkpt>
      <trkpt lat="45.96488" lon="6.33373">
        <ele>1489.839966</ele>
        <time>2018-06-15T13:15:07.500Z</time>
      </trkpt>
      <trkpt lat="45.96492" lon="6.33385">
        <ele>1490.320068</ele>
        <time>2018-06-15T13:15:17.461Z</time>
      </trkpt>
      <trkpt lat="45.96493" lon="6.334">
        <ele>1490.160034</ele>
        <time>2018-06-15T13:15:26.554Z</time>
      </trkpt>
      <trkpt lat="45.96495" lon="6.33405">
        <ele>1489.800049</ele>
        <time>2018-06-15T13:15:36.625Z</time>
      </trkpt>
      <trkpt lat="45.96497" lon="6.33404">
        <ele>1488.490112</ele>
        <time>2018-06-15T13:15:46.480Z</time>
      </trkpt>
      <trkpt lat="45.96499" lon="6.33405">
        <ele>1488.089966</ele>
        <time>2018-06-15T13:15:55.776Z</time>
      </trkpt>
      <trkpt lat="45.96501" lon="6.33404">
        <ele>1488.52002</ele>
        <time>2018-06-15T13:16:34.648Z</time>
      </trkpt>
      <trkpt lat="45.96501" lon="6.33405">
        <ele>1486.499878</ele>
        <time>2018-06-15T13:16:55.433Z</time>
      </trkpt>
      <trkpt lat="45.9651" lon="6.33389">
        <ele>1482.859985</ele>
        <time>2018-06-15T14:14:01.022Z</time>
      </trkpt>
      <trkpt lat="45.96512" lon="6.33388">
        <ele>1484.02002</ele>
        <time>2018-06-15T14:14:10.026Z</time>
      </trkpt>
      <trkpt lat="45.96511" lon="6.33388">
        <ele>1483.060059</ele>
        <time>2018-06-15T14:14:23.960Z</time>
      </trkpt>
      <trkpt lat="45.96508" lon="6.33382">
        <ele>1478.249878</ele>
        <time>2018-06-15T14:14:33.009Z</time>
      </trkpt>
      <trkpt lat="45.96511" lon="6.33386">
        <ele>1480.75</ele>
        <time>2018-06-15T14:14:42.034Z</time>
      </trkpt>
      <trkpt lat="45.96509" lon="6.33385">
        <ele>1479.189941</ele>
        <time>2018-06-15T14:14:59.943Z</time>
      </trkpt>
      <trkpt lat="45.96507" lon="6.33383">
        <ele>1480.169922</ele>
        <time>2018-06-15T14:15:09.021Z</time>
      </trkpt>
      <trkpt lat="45.96508" lon="6.33382">
        <ele>1481.810059</ele>
        <time>2018-06-15T14:16:11.940Z</time>
      </trkpt>
      <trkpt lat="45.96511" lon="6.33382">
        <ele>1480.949951</ele>
        <time>2018-06-15T14:16:22.208Z</time>
      </trkpt>
      <trkpt lat="45.9651" lon="6.33382">
        <ele>1480.119995</ele>
        <time>2018-06-15T14:16:32.941Z</time>
      </trkpt>
      <trkpt lat="45.96503" lon="6.33381">
        <ele>1480.300049</ele>
        <time>2018-06-15T14:16:44.067Z</time>
      </trkpt>
      <trkpt lat="45.96504" lon="6.3338">
        <ele>1481.749878</ele>
        <time>2018-06-15T14:16:53.985Z</time>
      </trkpt>
      <trkpt lat="45.96502" lon="6.33379">
        <ele>1481.97998</ele>
        <time>2018-06-15T14:17:16.033Z</time>
      </trkpt>
      <trkpt lat="45.9649" lon="6.33365">
        <ele>1480.01001</ele>
        <time>2018-06-15T14:17:25.958Z</time>
      </trkpt>
      <trkpt lat="45.96477" lon="6.33354">
        <ele>1480.75</ele>
        <time>2018-06-15T14:17:35.921Z</time>
      </trkpt>
      <trkpt lat="45.96469" lon="6.33344">
        <ele>1480.98999</ele>
        <time>2018-06-15T14:17:45.024Z</time>
      </trkpt>
      <trkpt lat="45.9646" lon="6.33335">
        <ele>1482.059937</ele>
        <time>2018-06-15T14:17:55.027Z</time>
      </trkpt>
      <trkpt lat="45.96453" lon="6.33323">
        <ele>1481.810059</ele>
        <time>2018-06-15T14:18:05.014Z</time>
      </trkpt>
      <trkpt lat="45.96448" lon="6.33309">
        <ele>1482.25</ele>
        <time>2018-06-15T14:18:14.017Z</time>
      </trkpt>
      <trkpt lat="45.96437" lon="6.33298">
        <ele>1480.059937</ele>
        <time>2018-06-15T14:18:23.953Z</time>
      </trkpt>
      <trkpt lat="45.96426" lon="6.33288">
        <ele>1480.75</ele>
        <time>2018-06-15T14:18:32.963Z</time>
      </trkpt>
      <trkpt lat="45.96419" lon="6.33278">
        <ele>1481.180054</ele>
        <time>2018-06-15T14:18:41.970Z</time>
      </trkpt>
      <trkpt lat="45.96416" lon="6.33266">
        <ele>1481.019897</ele>
        <time>2018-06-15T14:18:51.926Z</time>
      </trkpt>
      <trkpt lat="45.96412" lon="6.3325">
        <ele>1477.02002</ele>
        <time>2018-06-15T14:19:00.956Z</time>
      </trkpt>
      <trkpt lat="45.96408" lon="6.33231">
        <ele>1475.77002</ele>
        <time>2018-06-15T14:19:10.964Z</time>
      </trkpt>
      <trkpt lat="45.96403" lon="6.33213">
        <ele>1473</ele>
        <time>2018-06-15T14:19:20.459Z</time>
      </trkpt>
      <trkpt lat="45.96398" lon="6.33196">
        <ele>1472.02002</ele>
        <time>2018-06-15T14:19:29.865Z</time>
      </trkpt>
      <trkpt lat="45.96394" lon="6.3318">
        <ele>1472.179932</ele>
        <time>2018-06-15T14:19:39.256Z</time>
      </trkpt>
      <trkpt lat="45.96392" lon="6.33162">
        <ele>1472.599976</ele>
        <time>2018-06-15T14:19:48.884Z</time>
      </trkpt>
      <trkpt lat="45.9639" lon="6.33147">
        <ele>1470.51001</ele>
        <time>2018-06-15T14:19:58.914Z</time>
      </trkpt>
      <trkpt lat="45.96385" lon="6.33127">
        <ele>1461.26001</ele>
        <time>2018-06-15T14:20:08.912Z</time>
      </trkpt>
      <trkpt lat="45.96382" lon="6.3311">
        <ele>1463.75</ele>
        <time>2018-06-15T14:20:18.028Z</time>
      </trkpt>
      <trkpt lat="45.96379" lon="6.33091">
        <ele>1461.940063</ele>
        <time>2018-06-15T14:20:27.920Z</time>
      </trkpt>
      <trkpt lat="45.96378" lon="6.33075">
        <ele>1461.01001</ele>
        <time>2018-06-15T14:20:36.948Z</time>
      </trkpt>
      <trkpt lat="45.96379" lon="6.33058">
        <ele>1461.980103</ele>
        <time>2018-06-15T14:20:45.963Z</time>
      </trkpt>
      <trkpt lat="45.96377" lon="6.33056">
        <ele>1464.440063</ele>
        <time>2018-06-15T14:20:55.968Z</time>
      </trkpt>
      <trkpt lat="45.96377" lon="6.33058">
        <ele>1463.269897</ele>
        <time>2018-06-15T14:21:05.892Z</time>
      </trkpt>
      <trkpt lat="45.96377" lon="6.33056">
        <ele>1466.470093</ele>
        <time>2018-06-15T14:21:56.869Z</time>
      </trkpt>
      <trkpt lat="45.9638" lon="6.33041">
        <ele>1465.26001</ele>
        <time>2018-06-15T14:22:05.953Z</time>
      </trkpt>
      <trkpt lat="45.96383" lon="6.33026">
        <ele>1464.75</ele>
        <time>2018-06-15T14:22:15.205Z</time>
      </trkpt>
      <trkpt lat="45.96387" lon="6.33011">
        <ele>1461.079956</ele>
        <time>2018-06-15T14:22:24.932Z</time>
      </trkpt>
      <trkpt lat="45.96391" lon="6.32997">
        <ele>1461.980103</ele>
        <time>2018-06-15T14:22:34.874Z</time>
      </trkpt>
      <trkpt lat="45.96394" lon="6.32978">
        <ele>1461.940063</ele>
        <time>2018-06-15T14:22:43.921Z</time>
      </trkpt>
      <trkpt lat="45.96393" lon="6.3296">
        <ele>1464</ele>
        <time>2018-06-15T14:22:53.855Z</time>
      </trkpt>
      <trkpt lat="45.9639" lon="6.32944">
        <ele>1465.000122</ele>
        <time>2018-06-15T14:23:02.934Z</time>
      </trkpt>
      <trkpt lat="45.96388" lon="6.3293">
        <ele>1466.060059</ele>
        <time>2018-06-15T14:23:12.026Z</time>
      </trkpt>
      <trkpt lat="45.96381" lon="6.32916">
        <ele>1467.75</ele>
        <time>2018-06-15T14:23:21.948Z</time>
      </trkpt>
      <trkpt lat="45.96375" lon="6.329">
        <ele>1469.939941</ele>
        <time>2018-06-15T14:23:31.933Z</time>
      </trkpt>
      <trkpt lat="45.96367" lon="6.32886">
        <ele>1470.25</ele>
        <time>2018-06-15T14:23:41.942Z</time>
      </trkpt>
      <trkpt lat="45.96363" lon="6.32872">
        <ele>1470.72998</ele>
        <time>2018-06-15T14:23:51.887Z</time>
      </trkpt>
      <trkpt lat="45.96357" lon="6.32857">
        <ele>1470.070068</ele>
        <time>2018-06-15T14:24:00.962Z</time>
      </trkpt>
      <trkpt lat="45.96351" lon="6.3284">
        <ele>1468.050049</ele>
        <time>2018-06-15T14:24:10.950Z</time>
      </trkpt>
      <trkpt lat="45.96348" lon="6.32826">
        <ele>1470.75</ele>
        <time>2018-06-15T14:24:19.959Z</time>
      </trkpt>
      <trkpt lat="45.96345" lon="6.32809">
        <ele>1471.800049</ele>
        <time>2018-06-15T14:24:29.929Z</time>
      </trkpt>
      <trkpt lat="45.96344" lon="6.32792">
        <ele>1473.980103</ele>
        <time>2018-06-15T14:24:39.970Z</time>
      </trkpt>
      <trkpt lat="45.96343" lon="6.32775">
        <ele>1476.059937</ele>
        <time>2018-06-15T14:24:49.945Z</time>
      </trkpt>
      <trkpt lat="45.96344" lon="6.32764">
        <ele>1478.950073</ele>
        <time>2018-06-15T14:24:59.934Z</time>
      </trkpt>
      <trkpt lat="45.96343" lon="6.32763">
        <ele>1479.940063</ele>
        <time>2018-06-15T14:25:19.856Z</time>
      </trkpt>
      <trkpt lat="45.96343" lon="6.32762">
        <ele>1479.060059</ele>
        <time>2018-06-15T14:25:28.955Z</time>
      </trkpt>
      <trkpt lat="45.96342" lon="6.32763">
        <ele>1480</ele>
        <time>2018-06-15T14:25:46.994Z</time>
      </trkpt>
      <trkpt lat="45.96341" lon="6.32764">
        <ele>1480.75</ele>
        <time>2018-06-15T14:25:56.856Z</time>
      </trkpt>
      <trkpt lat="45.96348" lon="6.32761">
        <ele>1478.48999</ele>
        <time>2018-06-15T14:26:07.037Z</time>
      </trkpt>
      <trkpt lat="45.96355" lon="6.32754">
        <ele>1476.25</ele>
        <time>2018-06-15T14:26:16.045Z</time>
      </trkpt>
      <trkpt lat="45.96357" lon="6.32754">
        <ele>1476.950073</ele>
        <time>2018-06-15T14:26:27.129Z</time>
      </trkpt>
      <trkpt lat="45.96358" lon="6.32751">
        <ele>1476.810059</ele>
        <time>2018-06-15T14:26:36.928Z</time>
      </trkpt>
      <trkpt lat="45.96359" lon="6.32751">
        <ele>1475.750122</ele>
        <time>2018-06-15T14:26:45.943Z</time>
      </trkpt>
      <trkpt lat="45.9636" lon="6.32751">
        <ele>1476</ele>
        <time>2018-06-15T14:27:17.988Z</time>
      </trkpt>
      <trkpt lat="45.96362" lon="6.32747">
        <ele>1473.890015</ele>
        <time>2018-06-15T14:27:27.924Z</time>
      </trkpt>
      <trkpt lat="45.96364" lon="6.32746">
        <ele>1475</ele>
        <time>2018-06-15T14:27:36.985Z</time>
      </trkpt>
      <trkpt lat="45.96367" lon="6.32745">
        <ele>1476.339966</ele>
        <time>2018-06-15T14:27:46.909Z</time>
      </trkpt>
      <trkpt lat="45.96366" lon="6.32748">
        <ele>1475.76001</ele>
        <time>2018-06-15T14:27:55.930Z</time>
      </trkpt>
      <trkpt lat="45.96364" lon="6.32751">
        <ele>1476.999878</ele>
        <time>2018-06-15T14:28:05.881Z</time>
      </trkpt>
      <trkpt lat="45.96363" lon="6.32751">
        <ele>1476.929932</ele>
        <time>2018-06-15T14:28:15.928Z</time>
      </trkpt>
      <trkpt lat="45.96363" lon="6.32749">
        <ele>1476.999878</ele>
        <time>2018-06-15T14:28:26.043Z</time>
      </trkpt>
      <trkpt lat="45.96362" lon="6.32747">
        <ele>1476.130005</ele>
        <time>2018-06-15T14:28:40.921Z</time>
      </trkpt>
      <trkpt lat="45.96361" lon="6.32748">
        <ele>1476.999878</ele>
        <time>2018-06-15T14:28:50.943Z</time>
      </trkpt>
      <trkpt lat="45.9636" lon="6.32749">
        <ele>1481.650024</ele>
        <time>2018-06-15T14:29:03.916Z</time>
      </trkpt>
      <trkpt lat="45.96359" lon="6.32751">
        <ele>1482.939941</ele>
        <time>2018-06-15T14:29:12.950Z</time>
      </trkpt>
      <trkpt lat="45.96359" lon="6.32753">
        <ele>1485.5</ele>
        <time>2018-06-15T14:29:28.978Z</time>
      </trkpt>
      <trkpt lat="45.96355" lon="6.32759">
        <ele>1488.099976</ele>
        <time>2018-06-15T14:29:38.145Z</time>
      </trkpt>
      <trkpt lat="45.96362" lon="6.32773">
        <ele>1487.789917</ele>
        <time>2018-06-15T14:29:47.973Z</time>
      </trkpt>
      <trkpt lat="45.96362" lon="6.32782">
        <ele>1484.52002</ele>
        <time>2018-06-15T14:29:57.015Z</time>
      </trkpt>
      <trkpt lat="45.96362" lon="6.32783">
        <ele>1483.01001</ele>
        <time>2018-06-15T14:30:36.919Z</time>
      </trkpt>
      <trkpt lat="45.96363" lon="6.32785">
        <ele>1480.329956</ele>
        <time>2018-06-15T14:30:46.887Z</time>
      </trkpt>
      <trkpt lat="45.96363" lon="6.32786">
        <ele>1480.01001</ele>
        <time>2018-06-15T14:30:49.845Z</time>
      </trkpt>
    </trkseg>
  </trk>
</gpx>